[[{"header":{"parameterUnit":"m.s-1","parameterCategory":1,"la1":30.6,"la2":29.2853,"lo1":-89.7004,"lo2":-87.6739,"dy":0.0162,"dx":0.0183,"nx":112,"ny":82,"refTime":"2023-06-27T06:00:00:Z","depth":0,"parameterNumber":2,"parameterNumberName":"U-component_of_WINDS"},"data":[0.0,0.0,0.0,0.0,0.0,0.0,0.0,0.0,0.0,0.0,0.0,0.0,0.0,0.0,0.0,0.0,0.0,0.0,0.0,0.0,0.0,0.0,0.0,0.0,0.0,0.0,0.0,0.0,0.0,0.0,0.0,0.0,0.0,0.0,0.0,0.0,0.0,0.0,0.0,0.0,0.0,0.0,0.0,0.0,0.0,0.0,0.0,0.0,0.0,0.0,0.0,0.0,0.0,0.0,0.0,0.0,0.0,0.0,0.0,0.0,0.0,0.0,0.0,0.0,0.0,0.0,0.0,0.0,0.0,0.0,0.0,0.0,0.0,0.0,0.0,0.0,0.0,0.0,0.0,0.0,0.0,0.0,0.0,0.0,0.0,0.0,0.0,0.0,0.0,0.0,0.0,-1.0487,-1.2553,-1.3745,-1.3415,-1.3516,-1.2846,-1.1113,0.0,0.0,0.0,0.0,0.0,0.0,0.0,0.0,0.0,0.0,0.0,0.0,0.0,0.0,0.0,0.0,0.0,0.0,0.0,0.0,0.0,0.0,0.0,0.0,0.0,0.0,0.0,0.0,0.0,0.0,0.0,0.0,0.0,0.0,0.0,0.0,0.0,0.0,0.0,0.0,0.0,0.0,0.0,0.0,0.0,0.0,0.0,0.0,0.0,0.0,0.0,0.0,0.0,0.0,0.0,0.0,0.0,0.0,0.0,0.0,0.0,0.0,0.0,0.0,0.0,0.0,0.0,0.0,0.0,0.0,0.0,0.0,0.0,0.0,0.0,0.0,0.0,0.0,0.0,0.0,0.0,0.0,0.0,0.0,0.0,0.0,0.0,0.0,0.0,0.0,0.0,0.0,0.0,0.0,0.0,0.0,0.0,0.0,0.0,0.0,0.0,0.0,0.0,0.0,-1.0192,-1.1693,-1.3048,-1.3855,-1.38,-1.291,-1.2076,-1.1434,0.0,0.0,0.0,0.0,0.0,0.0,0.0,0.0,0.0,0.0,0.0,0.0,0.0,0.0,0.0,0.0,0.0,0.0,0.0,0.0,0.0,0.0,0.0,0.0,0.0,0.0,0.0,0.0,0.0,0.0,0.0,0.0,0.0,0.0,0.0,0.0,0.0,0.0,0.0,0.0,0.0,0.0,0.0,0.0,0.0,0.0,0.0,0.0,0.0,0.0,0.0,0.0,0.0,0.0,0.0,0.0,0.0,0.0,0.0,0.0,0.0,0.0,0.0,0.0,0.0,0.0,0.0,0.0,0.0,0.0,0.0,0.0,0.0,0.0,0.0,0.0,0.0,0.0,0.0,0.0,0.0,0.0,0.0,0.0,0.0,0.0,0.0,0.0,0.0,0.0,0.0,0.0,0.0,0.0,0.0,0.0,0.0,0.0,0.0,0.0,0.0,0.0,0.0,-0.9916,-1.0579,-1.1929,-1.2816,-1.3276,-1.3276,-1.2324,-1.1442,-1.0687,-1.0785,0.0,0.0,0.0,0.0,0.0,0.0,0.0,0.0,0.0,0.0,0.0,0.0,0.0,0.0,0.0,0.0,0.0,0.0,0.0,0.0,0.0,0.0,0.0,0.0,0.0,0.0,0.0,0.0,0.0,0.0,0.0,0.0,0.0,0.0,0.0,0.0,0.0,0.0,0.0,0.0,0.0,0.0,0.0,0.0,0.0,0.0,0.0,0.0,0.0,0.0,0.0,0.0,0.0,0.0,0.0,0.0,0.0,0.0,0.0,0.0,0.0,0.0,0.0,0.0,0.0,0.0,0.0,0.0,0.0,0.0,0.0,0.0,0.0,0.0,0.0,0.0,0.0,0.0,0.0,0.0,0.0,0.0,0.0,0.0,0.0,0.0,0.0,0.0,0.0,0.0,0.0,0.0,0.0,0.0,0.0,0.0,0.0,0.0,0.0,0.0,0.0,0.0,-1.0229,-1.0634,-1.181,-1.2337,-1.254,-1.2397,-1.1654,-1.084,-0.9966,-0.9879,0.0,0.0,0.0,0.0,0.0,0.0,0.0,0.0,0.0,0.0,0.0,0.0,0.0,0.0,0.0,0.0,0.0,0.0,0.0,0.0,0.0,0.0,0.0,0.0,0.0,0.0,0.0,0.0,0.0,0.0,0.0,0.0,0.0,0.0,0.0,0.0,0.0,0.0,0.0,0.0,0.0,0.0,0.0,0.0,0.0,0.0,0.0,0.0,0.0,0.0,0.0,0.0,0.0,0.0,0.0,0.0,0.0,0.0,0.0,0.0,0.0,0.0,0.0,0.0,0.0,0.0,0.0,0.0,0.0,0.0,0.0,0.0,0.0,0.0,0.0,0.0,0.0,0.0,0.0,0.0,0.0,0.0,0.0,0.0,0.0,0.0,0.0,0.0,0.0,0.0,0.0,0.0,0.0,0.0,0.0,0.0,0.0,0.0,0.0,0.0,0.0,0.0,-0.999,-1.0187,-1.1397,-1.1883,-1.1966,-1.1599,-1.0873,-1.0249,-0.9931,-0.9024,0.0,0.0,0.0,0.0,0.0,0.0,0.0,0.0,0.0,0.0,0.0,0.0,0.0,0.0,0.0,0.0,0.0,0.0,0.0,0.0,0.0,0.0,0.0,0.0,0.0,0.0,0.0,0.0,0.0,0.0,0.0,0.0,0.0,0.0,0.0,0.0,0.0,0.0,0.0,0.0,0.0,0.0,0.0,0.0,0.0,0.0,0.0,0.0,0.0,0.0,0.0,0.0,0.0,0.0,0.0,0.0,0.0,0.0,0.0,0.0,0.0,0.0,0.0,0.0,0.0,0.0,0.0,0.0,0.0,0.0,0.0,0.0,0.0,0.0,0.0,0.0,0.0,0.0,0.0,0.0,0.0,0.0,0.0,0.0,0.0,0.0,0.0,0.0,0.0,0.0,0.0,0.0,0.0,0.0,0.0,0.0,0.0,0.0,0.0,0.0,0.0,0.0,-1.033,-1.0459,0.0,-1.1214,-1.103,-1.1131,-1.0164,-0.95,-0.9336,0.0,0.0,0.0,0.0,0.0,0.0,0.0,0.0,0.0,0.0,0.0,0.0,0.0,0.0,0.0,0.0,0.0,0.0,0.0,0.0,0.0,0.0,0.0,0.0,0.0,0.0,0.0,0.0,0.0,0.0,0.0,0.0,0.0,0.0,0.0,0.0,0.0,0.0,0.0,0.0,0.0,0.0,0.0,0.0,0.0,0.0,0.0,0.0,0.0,0.0,0.0,0.0,0.0,0.0,0.0,0.0,0.0,0.0,0.0,0.0,0.0,0.0,0.0,0.0,0.0,0.0,0.0,0.0,0.0,0.0,0.0,0.0,0.0,0.0,0.0,0.0,0.0,0.0,0.0,0.0,0.0,0.0,0.0,0.0,0.0,0.0,0.0,0.0,0.0,0.0,0.0,0.0,0.0,0.0,0.0,0.0,0.0,0.0,0.0,0.0,0.0,0.0,-1.0837,-1.033,-1.0238,0.0,-1.049,-1.0183,-1.0321,-0.9456,-0.892,-0.8898,0.0,0.0,0.0,0.0,0.0,0.0,0.0,0.0,0.0,0.0,0.0,0.0,0.0,0.0,0.0,0.0,0.0,0.0,0.0,0.0,0.0,0.0,0.0,0.0,0.0,0.0,0.0,0.0,0.0,0.0,0.0,0.0,0.0,0.0,0.0,0.0,0.0,0.0,0.0,0.0,0.0,0.0,0.0,0.0,0.0,0.0,0.0,0.0,0.0,0.0,0.0,0.0,0.0,0.0,0.0,0.0,0.0,0.0,0.0,0.0,0.0,0.0,0.0,0.0,0.0,0.0,0.0,0.0,0.0,0.0,0.0,0.0,0.0,0.0,0.0,0.0,0.0,0.0,0.0,0.0,0.0,0.0,0.0,0.0,0.0,0.0,0.0,0.0,0.0,0.0,0.0,0.0,0.0,0.0,0.0,0.0,0.0,0.0,0.0,0.0,0.0,0.0,-1.0809,-0.9851,-0.9409,-1.0229,-0.9962,-0.9548,-0.9124,-0.8728,-0.8557,0.0,0.0,0.0,0.0,0.0,0.0,0.0,0.0,0.0,0.0,0.0,0.0,0.0,0.0,0.0,0.0,0.0,0.0,0.0,0.0,0.0,0.0,0.0,0.0,0.0,0.0,0.0,0.0,0.0,0.0,0.0,0.0,0.0,0.0,0.0,0.0,0.0,0.0,0.0,0.0,0.0,0.0,0.0,0.0,0.0,0.0,0.0,0.0,0.0,0.0,0.0,0.0,0.0,0.0,0.0,0.0,0.0,0.0,0.0,0.0,0.0,0.0,0.0,0.0,0.0,0.0,0.0,0.0,0.0,0.0,0.0,0.0,0.0,0.0,0.0,0.0,0.0,0.0,0.0,0.0,0.0,0.0,0.0,0.0,0.0,0.0,0.0,0.0,0.0,0.0,0.0,0.0,0.0,0.0,0.0,0.0,0.0,0.0,0.0,0.0,0.0,0.0,0.0,-1.1279,-1.0293,-0.9732,-1.0257,-0.9962,-0.9548,-0.9124,-0.8728,-0.8486,-0.8492,0.0,0.0,0.0,0.0,0.0,0.0,0.0,0.0,0.0,0.0,0.0,0.0,0.0,0.0,0.0,0.0,0.0,0.0,0.0,0.0,0.0,0.0,0.0,0.0,0.0,0.0,0.0,0.0,0.0,0.0,0.0,0.0,0.0,0.0,0.0,0.0,0.0,0.0,0.0,0.0,0.0,0.0,0.0,0.0,0.0,0.0,0.0,0.0,0.0,0.0,0.0,0.0,0.0,0.0,0.0,0.0,0.0,0.0,0.0,0.0,0.0,0.0,0.0,0.0,0.0,0.0,0.0,0.0,0.0,0.0,0.0,0.0,0.0,0.0,0.0,0.0,0.0,0.0,0.0,0.0,0.0,0.0,0.0,0.0,0.0,0.0,0.0,0.0,0.0,0.0,0.0,0.0,0.0,0.0,0.0,0.0,0.0,0.0,0.0,0.0,0.0,0.0,-1.0937,-1.0324,-0.999,-1.0072,-0.9861,-0.9492,-0.8903,-0.8636,-0.8386,-0.8166,0.0,0.0,0.0,0.0,0.0,0.0,0.0,0.0,0.0,0.0,0.0,0.0,0.0,0.0,0.0,0.0,0.0,0.0,0.0,0.0,0.0,0.0,0.0,0.0,0.0,0.0,0.0,0.0,0.0,0.0,0.0,0.0,0.0,0.0,0.0,0.0,0.0,0.0,0.0,0.0,0.0,0.0,0.0,0.0,0.0,0.0,0.0,0.0,0.0,0.0,0.0,0.0,0.0,0.0,0.0,0.0,0.0,0.0,0.0,0.0,0.0,0.0,0.0,0.0,0.0,0.0,0.0,0.0,0.0,0.0,0.0,0.0,0.0,0.0,0.0,0.0,0.0,0.0,0.0,0.0,0.0,0.0,0.0,0.0,0.0,0.0,0.0,0.0,0.0,0.0,0.0,0.0,0.0,0.0,0.0,0.0,0.0,0.0,0.0,0.0,0.0,0.0,-1.0217,-1.0205,-1.0164,-0.9729,-0.9683,-0.94,-0.8618,-0.8516,-0.8307,-0.7801,0.0,0.0,0.0,0.0,0.0,0.0,0.0,0.0,0.0,0.0,0.0,0.0,0.0,0.0,0.0,0.0,0.0,0.0,0.0,0.0,0.0,0.0,0.0,0.0,0.0,0.0,0.0,0.0,0.0,0.0,0.0,0.0,0.0,0.0,0.0,0.0,0.0,0.0,0.0,0.0,0.0,0.0,0.0,0.0,0.0,0.0,0.0,0.0,0.0,0.0,0.0,0.0,0.0,0.0,0.0,0.0,0.0,0.0,0.0,0.0,-2.3428,0.0,0.0,0.0,0.0,0.0,0.0,0.0,0.0,0.0,0.0,0.0,0.0,0.0,0.0,0.0,0.0,0.0,0.0,0.0,0.0,0.0,0.0,0.0,0.0,0.0,0.0,0.0,0.0,0.0,0.0,0.0,0.0,0.0,0.0,0.0,0.0,0.0,0.0,0.0,0.0,0.0,-1.0759,-1.0465,-1.0164,-0.9729,-0.9683,-0.952,-0.9004,-0.8673,-0.8244,-0.767,-0.734,0.0,0.0,0.0,0.0,0.0,0.0,0.0,0.0,0.0,0.0,0.0,0.0,0.0,0.0,0.0,0.0,0.0,0.0,0.0,0.0,0.0,0.0,0.0,0.0,0.0,0.0,0.0,0.0,0.0,0.0,0.0,0.0,0.0,0.0,0.0,0.0,0.0,0.0,0.0,0.0,0.0,0.0,0.0,0.0,0.0,0.0,0.0,0.0,0.0,0.0,0.0,0.0,0.0,0.0,0.0,0.0,0.0,0.0,0.0,0.0,-2.3496,0.0,0.0,0.0,0.0,0.0,0.0,0.0,0.0,0.0,0.0,0.0,0.0,0.0,0.0,0.0,0.0,0.0,0.0,0.0,0.0,0.0,0.0,0.0,0.0,0.0,0.0,0.0,0.0,0.0,0.0,0.0,0.0,0.0,0.0,0.0,0.0,0.0,0.0,0.0,0.0,-1.0377,-1.0321,-1.0164,-0.9729,-0.9683,-0.9548,-0.9124,-0.8903,-0.8558,-0.8079,-0.7727,0.0,0.0,0.0,0.0,0.0,0.0,0.0,0.0,0.0,0.0,0.0,0.0,0.0,0.0,0.0,0.0,0.0,0.0,0.0,0.0,0.0,0.0,0.0,0.0,0.0,0.0,0.0,0.0,0.0,0.0,0.0,0.0,0.0,0.0,0.0,0.0,0.0,0.0,0.0,0.0,0.0,0.0,0.0,0.0,0.0,0.0,0.0,0.0,0.0,0.0,0.0,0.0,0.0,-3.0453,-3.0428,-3.077,-2.9624,-2.8583,-2.768,-2.6721,-2.5418,-2.388,-2.3343,0.0,0.0,0.0,0.0,0.0,0.0,0.0,0.0,0.0,0.0,0.0,0.0,0.0,0.0,0.0,0.0,0.0,0.0,0.0,0.0,0.0,0.0,0.0,0.0,-1.6678,-1.5355,0.0,0.0,0.0,0.0,0.0,0.0,0.0,0.0,0.0,0.0,0.0,0.0,-1.014,-1.0351,-1.0422,-0.9879,-0.9824,-0.9658,-0.9235,-0.905,-0.8794,-0.8406,-0.8064,-0.7763,0.0,0.0,0.0,0.0,0.0,0.0,0.0,0.0,0.0,0.0,0.0,0.0,0.0,0.0,0.0,0.0,0.0,0.0,0.0,0.0,0.0,0.0,0.0,0.0,0.0,0.0,0.0,0.0,0.0,0.0,0.0,0.0,-2.3874,-2.4627,0.0,0.0,0.0,0.0,0.0,0.0,0.0,0.0,0.0,0.0,0.0,0.0,0.0,-3.2482,-3.3059,-3.4115,-3.4327,-3.3793,-3.436,-3.4046,-3.2898,-3.2687,-3.2522,-3.217,-3.0446,0.0,-2.4053,-2.3428,0.0,0.0,0.0,0.0,0.0,0.0,0.0,0.0,0.0,0.0,0.0,0.0,0.0,0.0,0.0,0.0,0.0,0.0,0.0,0.0,0.0,0.0,-1.7693,-1.6828,-1.6358,-1.5822,0.0,-1.4697,-1.4778,-1.51,-1.4475,0.0,0.0,0.0,0.0,0.0,0.0,0.0,-1.1375,-1.1595,-1.1416,-1.0358,-1.0229,-1.0072,-0.9677,-0.8947,-0.8333,-0.801,-0.7293,-0.6932,-0.7065,-0.6941,0.0,0.0,0.0,0.0,0.0,0.0,0.0,0.0,0.0,0.0,0.0,0.0,0.0,0.0,0.0,0.0,0.0,0.0,0.0,0.0,0.0,0.0,0.0,0.0,0.0,0.0,0.0,0.0,0.0,-2.591,-2.6108,-2.527,-2.7006,-2.7979,0.0,0.0,0.0,0.0,0.0,0.0,0.0,0.0,0.0,-3.3261,-3.4136,-3.4878,-3.5543,-3.6831,-3.7541,-3.7632,-3.7628,-3.7045,-3.6065,-3.5285,-3.4455,-3.3515,-3.2687,-3.0911,-2.8465,-2.6185,-2.5046,-2.4666,0.0,0.0,0.0,0.0,-2.35,-2.3005,-2.286,-2.2578,0.0,-2.1528,0.0,0.0,0.0,0.0,0.0,0.0,0.0,0.0,0.0,0.0,-1.8162,-1.7307,-1.6775,-1.6346,-1.5978,-1.5684,-1.542,0.0,-1.4654,-1.4419,-1.4563,0.0,0.0,0.0,0.0,-1.1375,-1.0665,-1.093,-1.0846,-1.0052,-0.9793,-0.956,-0.9241,-0.865,-0.8278,-0.8119,-0.7583,-0.7356,-0.7601,-0.7281,-0.7199,0.0,0.0,0.0,0.0,0.0,0.0,0.0,0.0,0.0,0.0,0.0,0.0,0.0,0.0,0.0,0.0,0.0,0.0,0.0,0.0,0.0,0.0,0.0,0.0,0.0,0.0,0.0,0.0,-2.7267,-2.7919,-2.6078,-2.8502,-2.9744,0.0,0.0,0.0,0.0,0.0,0.0,-3.2482,-3.332,-3.4382,-3.5699,-3.6586,-3.7397,-3.813,-3.9252,-4.0115,-4.0607,-3.9851,-3.9062,-3.8204,-3.6992,-3.5642,-3.4316,-3.4167,-3.3675,-3.2589,-2.9157,-2.7379,-2.6728,-2.5982,-2.552,-2.5303,-2.5588,-2.5333,-2.4826,-2.47,-2.457,-2.4233,-2.266,-2.2017,-2.1536,-2.0057,0.0,0.0,0.0,0.0,-2.0217,-1.9792,-1.9194,-1.8646,-1.8195,-1.766,-1.7187,-1.708,-1.6709,-1.6143,0.0,-1.4932,-1.4875,-1.5138,0.0,0.0,0.0,0.0,-1.097,-1.0391,-1.0578,-1.0572,-1.0039,-0.9603,-0.9252,-0.8915,-0.8442,-0.8144,-0.8144,-0.7847,-0.7788,-0.8034,-0.7754,-0.7662,-0.7775,0.0,0.0,0.0,0.0,0.0,0.0,0.0,0.0,0.0,0.0,0.0,0.0,0.0,0.0,0.0,0.0,0.0,0.0,0.0,0.0,0.0,0.0,0.0,0.0,0.0,0.0,0.0,0.0,0.0,-2.6707,-2.9998,0.0,0.0,0.0,0.0,-3.2258,-3.2916,-3.3888,-3.5235,-3.6492,-3.7778,-3.9125,-4.0016,-4.0898,-4.1741,-4.2023,-4.1908,-4.154,-4.0689,-3.9565,-3.8101,-3.7266,-3.6425,-3.5601,-3.5031,-3.4746,-3.4461,-3.1463,-2.9862,-2.9184,-2.8017,-2.7895,-2.8302,-2.7773,-2.7306,-2.677,-2.5626,-2.5014,-2.4663,-2.442,-2.3701,-2.2702,-2.1608,-2.0947,0.0,0.0,-2.01,-1.9675,-2.0045,-1.9553,-1.8962,-1.9315,-1.8944,-1.8428,-1.8037,-1.7617,-1.7061,0.0,-1.5342,-1.4875,-1.5138,0.0,-1.3539,-1.3341,-1.2983,-1.2405,-1.1623,-1.1684,-1.1547,-1.0755,-1.0136,-0.9596,-0.9221,-0.8308,-0.7724,-0.7724,-0.7586,-0.7627,-0.7896,-0.8183,-0.823,-0.7986,-0.7986,0.0,0.0,0.0,0.0,0.0,0.0,0.0,0.0,0.0,0.0,0.0,0.0,0.0,0.0,0.0,0.0,0.0,0.0,0.0,0.0,0.0,0.0,0.0,0.0,0.0,0.0,0.0,0.0,-3.1674,-3.4397,0.0,-3.4173,-3.4068,-3.4532,-3.5579,-3.6267,-3.7419,-3.9185,-4.0113,-4.1205,-4.2521,-4.301,-4.3328,-4.3648,-4.4051,-4.396,-4.3302,-4.2636,-4.1477,-3.9958,-3.9098,-3.7798,-3.628,-3.6062,-3.575,-3.5289,-3.3851,-3.2671,-3.1667,-3.0473,-2.9916,-2.974,-2.9523,-2.8797,-2.798,-2.7593,-2.7072,-2.6396,-2.4972,-2.3821,-2.2847,-2.2125,-2.2017,-2.2137,-2.2137,-2.2178,-2.2081,-2.1251,-2.0586,-1.9995,-1.9143,-1.8567,-1.8193,-1.8047,-1.7891,-1.7607,-1.7031,-1.6436,-1.5996,-1.5809,-1.5037,-1.4282,-1.3766,-1.3254,-1.2587,-1.1518,-1.1653,-1.1451,-1.042,-0.9939,-0.9457,-0.8749,-0.8164,-0.774,-0.7577,-0.7534,-0.7735,-0.8196,-0.8317,-0.8406,-0.8371,-0.8371,-0.8216,0.0,0.0,0.0,0.0,0.0,0.0,0.0,0.0,0.0,0.0,0.0,0.0,0.0,0.0,0.0,0.0,0.0,0.0,0.0,0.0,0.0,0.0,0.0,0.0,0.0,0.0,-3.4981,-3.5415,-3.7988,-3.9215,-3.7928,-3.7614,-3.7928,-3.9005,-3.9694,-4.0756,-4.2282,-4.2985,-4.3748,-4.4616,-4.4809,-4.477,-4.4609,-4.4864,-4.466,-4.3945,-4.294,-4.1857,-4.067,-3.9464,-3.8103,-3.6605,-3.6605,-3.6266,-3.5683,-3.5289,-3.4665,-3.3837,-3.2657,-3.1951,-3.1585,-3.1382,-3.0762,-2.9973,-2.9353,-2.8537,-2.7488,-2.6069,-2.4771,-2.3701,-2.3352,-2.3244,-2.3244,-2.3244,-2.3353,-2.3238,-2.2351,-2.1527,-2.0775,-1.9879,-1.9061,-1.8477,-1.8623,-1.8428,-1.8184,-1.8047,-1.7441,-1.6807,-1.6367,-1.5529,-1.4866,-1.4533,-1.3674,-1.2777,-1.1875,-1.1966,-1.165,-1.0404,-1.0151,-0.9687,-0.8724,-0.8397,-0.8056,-0.7649,-0.7809,-0.8056,-0.8363,-0.847,-0.8552,-0.8521,-0.8281,-0.822,-0.8373,0.0,0.0,0.0,0.0,0.0,0.0,0.0,0.0,0.0,0.0,0.0,0.0,0.0,0.0,0.0,0.0,0.0,0.0,0.0,0.0,0.0,0.0,0.0,-3.1541,-3.504,-3.7524,-3.7614,-4.0516,-4.2013,-4.0741,-4.119,-4.1833,-4.2491,-4.315,-4.3793,-4.4407,-4.502,-4.5349,-4.5349,-4.5349,-4.5117,-4.4685,-4.4655,-4.4243,-4.3334,-4.1592,-4.0524,-4.0025,-3.8297,-3.7243,-3.6659,-3.6632,-3.6293,-3.575,-3.5723,-3.571,-3.5601,-3.4356,-3.3896,-3.3801,-3.3281,-3.305,-3.2718,-3.0903,-2.9148,-2.7741,-2.7729,-2.6659,-2.5384,-2.536,-2.465,-2.3845,-2.3845,-2.3329,-2.2856,-2.3293,-2.2319,-2.126,-2.1707,-2.0481,-1.9404,-1.9805,-1.9238,-1.8789,-1.9209,-1.8281,-1.7285,-1.6846,-1.5889,-1.5346,-1.5725,-1.4356,0.0,-1.2749,-1.2734,-1.222,-1.0744,-1.0647,-1.0272,-0.9279,-0.8985,-0.8571,-0.7948,-0.8484,-0.8671,-0.8397,-0.8657,-0.8699,-0.8427,-0.7648,-0.7498,-0.7925,0.0,0.0,0.0,0.0,0.0,0.0,0.0,0.0,0.0,0.0,0.0,0.0,0.0,0.0,0.0,0.0,0.0,0.0,0.0,0.0,0.0,0.0,-3.4906,-3.51,-3.7689,-4.0292,-4.2192,-4.4511,-4.5798,-4.5439,-4.5574,-4.5948,-4.6606,-4.6396,-4.6516,-4.716,-4.6905,-4.6756,-4.6756,-4.6756,-4.6426,-4.5852,-4.5507,-4.5087,-4.4506,-4.2342,-4.1367,-4.1372,-3.9643,-3.8491,-3.7894,-3.746,-3.6931,-3.632,-3.5886,-3.571,-3.5642,-3.4882,-3.4248,-3.3801,-3.3281,-3.2244,-3.0916,-2.9998,-2.902,-2.8234,-2.7849,-2.7416,-2.6995,-2.6598,-2.6009,-2.5456,-2.5456,-2.5027,-2.4472,-2.4033,-2.2922,-2.1825,-2.1376,-2.0249,-1.9316,-1.9434,-1.9277,-1.915,-1.9268,-1.875,-1.8154,-1.7734,-1.7164,-1.6581,-1.6061,-1.5477,0.0,-1.312,-1.283,-1.222,-1.0744,-1.0601,-1.0356,-0.9606,-0.9292,-0.8958,-0.8591,-0.8524,-0.855,-0.8684,-0.8764,-0.8699,-0.8527,-0.8413,-0.8452,0.0,0.0,0.0,0.0,0.0,0.0,0.0,0.0,0.0,0.0,0.0,0.0,0.0,0.0,0.0,0.0,0.0,0.0,0.0,0.0,0.0,0.0,-3.6791,-3.8826,-3.9649,-4.1085,-4.2821,-4.49,-4.6426,-4.7309,-4.7309,-4.7549,-4.7758,-4.7863,-4.7773,-4.7758,-4.7878,-4.7519,-4.7309,-4.7309,-4.7309,-4.698,-4.6476,-4.5804,-4.5132,-4.4559,-4.2458,-4.1383,-4.138,-3.9968,-3.8979,-3.8383,-3.7786,-3.7175,-3.6551,-3.5967,-3.571,0.0,0.0,0.0,0.0,0.0,-3.211,-3.0241,-2.9871,-2.9184,-2.8462,-2.8162,-2.7897,-2.7669,-2.7356,-2.6875,-2.6454,-2.6454,-2.6057,-2.5613,-2.5318,-2.3931,-2.2502,-2.2254,-2.0859,-1.96,-1.9785,-1.9678,-1.96,-1.9785,-1.9473,0.0,-1.8613,-1.79,-1.7266,-1.6934,-1.651,-1.5751,-1.4449,-1.3851,-1.2983,-1.1496,-1.1017,-1.054,-0.9893,-0.9706,0.0,0.0,0.0,-0.8891,-0.8811,-0.8745,0.0,0.0,0.0,-0.8814,-0.9026,0.0,0.0,0.0,-0.8751,-0.8873,0.0,0.0,0.0,0.0,0.0,0.0,0.0,0.0,0.0,0.0,0.0,0.0,0.0,0.0,0.0,0.0,-4.0008,-4.2312,-4.4362,-4.4646,-4.5095,-4.6292,-4.701,-4.7444,-4.7519,-4.8117,-4.8267,-4.7683,-4.8117,-4.8117,-4.7459,0.0,0.0,0.0,0.0,-4.7167,-4.6719,-4.5776,-4.487,-4.4065,-4.211,-4.0977,-4.0589,-3.9706,-3.902,-3.8491,-3.7894,-3.7284,-3.6659,-3.6062,-3.5778,-3.571,-3.5642,-3.5574,-3.5384,-3.418,-3.2259,-3.0317,-3.0241,0.0,0.0,-2.851,-2.8198,-2.7813,-2.7813,-2.744,-2.7019,-2.7019,-2.6622,-2.6298,-2.6731,-2.5021,-2.3273,-2.3569,-2.1766,-2.0156,-2.0498,-2.0264,-2.0098,-2.0488,-2.0215,-1.9795,-1.9424,-1.834,-1.7617,-1.79,-1.7295,-1.6584,-1.6072,-1.5186,-1.4104,-1.2603,0.0,0.0,-1.0295,-1.0114,-0.988,-0.9269,-0.9539,-0.9452,-0.8925,-0.8784,-0.8849,-0.9069,-0.8845,-0.8865,-0.9076,-0.8899,-0.8782,-0.8735,-0.9184,-0.9274,0.0,0.0,0.0,0.0,0.0,0.0,0.0,0.0,0.0,0.0,0.0,0.0,0.0,0.0,0.0,-4.0801,-4.2282,-4.3838,-4.6367,-4.6726,-4.683,-4.7085,-4.7698,-4.8312,-4.8835,-4.9479,-4.9808,-4.9673,-4.9299,-4.879,-4.8132,-4.7593,-4.7381,-4.7553,-4.7553,-4.7478,-4.7428,-4.6205,-4.5266,-4.4453,0.0,0.0,-4.0589,-3.9706,-3.9237,-3.9102,-3.8505,-3.7908,-3.7311,-3.6687,-3.6144,-3.5669,-3.5181,-3.4719,-3.4126,-3.2911,-3.1509,-3.0241,-2.9716,-2.9106,-2.851,-2.851,-2.8438,-2.8366,-2.8366,-2.7993,0.0,-2.7572,-2.7188,-2.6695,-2.6346,-2.5199,-2.3951,-2.3252,-2.2045,-2.0908,-2.0625,-2.0498,-2.0469,-2.0547,-2.0215,-1.9883,-1.9805,-1.9014,-1.8193,-1.7598,-1.7363,-1.6814,-1.5548,-1.5034,-1.4363,-1.3116,-1.2172,-1.1463,-1.0972,-1.0416,-0.9967,-0.9619,-0.9653,-0.9633,-0.9519,-0.9512,-0.9539,-0.9542,-0.9542,-0.9506,-0.949,-0.943,-0.9308,-0.9047,-0.8878,-0.8914,0.0,0.0,0.0,0.0,0.0,0.0,0.0,0.0,0.0,0.0,0.0,-3.5564,0.0,0.0,-4.1265,-4.3913,-4.517,-4.6157,-4.716,-4.7309,-4.7309,-4.7309,-4.7593,-4.7923,-4.8252,-4.888,-4.9119,-4.879,-4.8775,-4.8491,-4.7833,-4.7489,-4.7396,-4.7467,-4.7553,-4.7624,-4.7794,-4.6461,-4.5268,-4.4306,-4.231,-4.0926,-3.9954,-3.9455,-3.9305,-3.9278,-3.8667,-3.8084,-3.746,-3.6537,-3.5981,-3.5683,-3.5398,-3.4733,-3.3829,-3.3198,-3.1832,-3.0254,-2.9947,-2.9263,-2.851,-2.851,-2.851,-2.851,-2.851,-2.833,-2.8114,-2.8114,-2.7741,-2.732,-2.7308,-2.6163,-2.4893,-2.426,-2.3108,-2.198,-2.1066,-2.0898,-2.083,-2.0605,-2.0391,-2.0166,-1.9951,-1.9561,-1.8984,-1.8135,-1.7832,-1.7407,-1.6712,-1.5974,-1.5256,-1.4558,-1.3249,-1.2212,-1.167,-1.0711,-0.9993,-0.9699,-0.9546,-0.9526,-0.9679,-0.9406,-0.9385,-0.9679,-0.9482,-0.9382,-0.9483,-0.9364,-0.9238,-0.9046,-0.88,-0.8634,0.0,0.0,0.0,0.0,0.0,0.0,0.0,0.0,-3.4262,-3.5714,-3.7464,-3.9484,-4.1908,-4.3629,-4.514,-4.6486,-4.7489,-4.7908,-4.7384,-4.7309,-4.7249,-4.713,-4.7234,-4.7354,-4.7489,-4.7982,-4.8072,-4.7534,-4.7982,-4.7997,-4.7339,-4.7309,-4.7381,-4.7467,-4.7624,-4.7794,-4.8049,-4.6541,-4.5106,-4.3877,-4.2077,-4.0614,-3.9305,-3.9305,-3.9305,-3.9264,-3.8559,-3.7975,-3.7446,-3.6225,-3.571,-3.571,-3.571,-3.5058,-3.4045,-3.3954,-3.2407,-3.0484,-3.033,-2.9506,-2.851,-2.851,-2.851,-2.851,-2.851,-2.851,-2.851,-2.851,-2.821,-2.7945,-2.827,-2.7152,-2.5858,-2.5187,-2.4196,-2.291,-2.1607,-2.1357,-2.125,-2.0889,-2.0752,-2.0586,-2.0234,-2.0029,-1.9619,-1.876,-1.835,-1.8135,-1.8066,-1.7043,-1.6352,-1.6251,-1.4405,-1.2869,-1.1934,-1.0822,-1.004,-0.9866,-0.9633,-0.9579,-0.976,-0.9312,-0.9259,-0.9679,-0.9339,-0.9219,-0.9389,-0.9143,-0.9026,-0.8909,-0.8847,-0.8537,-2.7485,-2.7904,-2.8846,-2.9909,-3.0746,-3.2362,0.0,0.0,-3.9185,-4.1085,-4.2581,-4.4003,-4.5499,-4.5948,-4.6531,-4.7863,-4.7698,-4.7399,-4.7309,-4.7309,-4.7085,-4.6501,-4.695,-4.7534,-4.8117,-4.8237,-4.8252,-4.8177,-4.8252,-4.7997,-4.7339,-4.7467,-4.7724,-4.788,-4.8133,-4.8202,-4.8301,-4.6175,-4.4649,-4.3603,-4.1465,-4.0037,-3.9305,-3.9305,-3.9305,-3.9237,-3.8125,-3.7596,-3.7446,-3.6225,-3.571,-3.571,-3.571,-3.5316,-3.4654,-3.4087,-3.2685,-3.0982,-3.0524,-2.9512,-2.851,-2.851,-2.851,-2.851,-2.851,-2.851,-2.851,-2.851,-2.8474,-2.833,-2.7921,-2.7411,-2.6634,-2.4922,-2.4126,-2.3371,-2.206,-2.1816,-2.1797,-2.1748,-2.1426,-2.1143,-2.1094,-2.0439,-1.9619,-1.876,-1.8523,-1.8504,-1.8383,-1.7678,-1.7254,-1.7288,-1.5309,-1.3199,-1.1265,-1.0517,-1.0214,-1.051,-1.0434,-1.0307,-1.008,-1.0007,-0.988,-0.9686,-0.9653,-0.9472,-0.9195,-0.9195,-0.902,-0.8745,-0.8975,-0.8667,-3.0313,-3.0941,0.0,0.0,-3.507,-3.7195,-3.9125,-4.0965,-4.2731,-4.4332,-4.5708,-4.704,-4.8356,-4.8596,-4.8775,0.0,-4.888,-4.8312,-4.7938,-4.7219,-4.6486,-4.5798,-4.5633,-4.5828,-4.6486,-4.6905,-4.7145,-4.7145,-4.7504,-4.7593,-4.7309,-4.7381,-4.7553,-4.7794,-4.7964,-4.8218,-4.8286,-4.6696,-4.5244,-4.3777,-4.208,-4.056,-3.9305,-3.9305,-3.9305,-3.9237,-3.8043,-3.7528,-3.7446,-3.6225,-3.5506,-3.5235,-3.5574,-3.5357,-3.4749,-3.4512,-3.3028,-3.115,-3.0927,-2.9787,-2.851,-2.851,-2.851,-2.851,-2.851,-2.851,-2.851,-2.851,-2.851,-2.8462,-2.8234,-2.8092,-2.7487,-2.5654,-2.5053,-2.4493,-2.2661,-2.2246,-2.2178,-2.1934,-2.1738,-2.1611,-2.1611,-2.1094,-2.0469,-1.9853,-1.9336,-1.9023,-1.8961,-1.865,-1.8081,-1.7065,-1.5195,-1.341,-1.1869,-1.0925,-1.0428,-1.0618,-1.0401,-1.0321,-1.0374,-1.0047,-0.9886,-0.9933,-0.9773,-0.9621,-0.9499,-0.9389,-0.9266,-0.8968,-0.9026,-0.8658,-3.1689,0.0,0.0,-3.5923,-3.8781,-4.1369,-4.1908,-4.3928,-4.5963,-4.6935,-4.8027,-4.906,-4.9823,-4.9972,-4.9912,-4.9733,-4.9299,-4.8701,-4.7863,-4.6756,-4.5723,-4.4855,-4.4167,-4.3898,-4.4197,-4.5155,-4.5843,-4.6022,-4.6666,-4.7025,-4.7096,-4.7362,-4.7553,-4.7794,-4.8049,-4.8218,-4.837,-4.6863,-4.5424,-4.3963,-4.2252,-4.0728,-3.9305,-3.9305,-3.9305,-3.9237,-3.8043,-3.7528,-3.7446,-3.6225,-3.5465,-3.5113,-3.5371,-3.5316,-3.4966,-3.447,-3.3067,-3.1368,-3.1057,-2.9866,-2.851,-2.851,-2.8607,-2.8727,-2.8727,-2.8727,-2.8727,-2.8727,-2.8619,-2.851,-2.851,-2.851,-2.8087,-2.6577,-2.5997,-2.5314,-2.3418,-2.2857,-2.2598,-2.2295,-2.2139,-2.206,-2.206,-2.1699,-2.1269,-2.082,-2.0225,-1.9736,-1.9492,-1.9463,-1.8759,-1.6926,-1.5309,-1.3897,-1.2587,-1.1486,-1.0795,-1.0795,-1.0595,-1.0534,-1.0675,-1.0194,-1.0027,-1.0234,-0.9873,-0.9726,-0.9748,-0.9609,-0.9434,-0.9322,-0.9197,-0.8884,0.0,0.0,-3.5908,-3.7823,-4.0816,-4.3793,-4.5708,-4.7683,-4.9134,-4.9164,-4.9718,-5.0002,-4.9404,-4.9299,-4.909,-4.8446,-4.8327,-4.7863,-4.6576,-4.5783,-4.484,-4.3539,-4.2821,-4.2177,0.0,-4.324,-4.4646,-4.5274,-4.5963,-4.6421,-4.6629,-4.7516,-4.8049,-4.8286,-4.8453,-4.8604,-4.862,-4.6174,-4.4676,-4.3978,-4.1499,-3.9951,-3.9305,-3.9305,-3.9305,-3.9237,-3.8043,-3.7528,-3.7446,-3.6225,-3.571,-3.5642,-3.5072,-3.5194,-3.5466,-3.3674,-3.2659,-3.188,-3.0721,-2.9561,-2.851,-2.851,-2.8859,-2.928,-2.928,-2.928,-2.928,-2.928,-2.8907,-2.851,-2.851,-2.851,-2.8259,-2.7348,-2.6494,-2.5568,-2.4648,-2.3714,-2.3115,-2.3105,-2.2773,-2.249,-2.249,-2.2148,-2.1719,-2.1279,-2.1191,-2.0869,-2.001,-1.9893,-1.9115,-1.718,-1.6005,-1.4701,-1.3105,-1.1971,-1.1403,-1.1403,-1.139,-1.1263,-1.0989,-1.0695,-1.0604,-1.0611,-0.998,-0.9767,-0.9871,-0.9656,-0.9544,-0.9695,-0.9492,-0.9507,-3.3873,0.0,-3.9978,-4.2372,-4.514,-4.7578,-4.8671,-4.9434,-4.9658,-4.879,-4.7743,-4.6621,-4.5529,-4.5349,-4.5574,-4.6202,-4.6681,-4.698,-4.698,-4.6396,-4.5155,-4.2955,-4.2491,0.0,0.0,0.0,0.0,-4.3943,-4.5199,-4.6094,-4.6569,-4.7501,-4.8133,-4.8286,-4.837,-4.8187,-4.7649,-4.6375,-4.4849,-4.3005,-4.0666,-3.9495,-3.9305,-3.9305,-3.9305,-3.9237,-3.8043,-3.7528,-3.7446,-3.6225,-3.5479,-3.5113,-3.4909,-3.4719,-3.4332,-3.2869,-3.2236,-3.1839,-3.0721,-2.9726,-2.8979,-2.8619,-2.8871,-2.9232,-2.8883,-2.8775,-2.8775,-2.8775,-2.8643,-2.851,-2.851,-2.851,-2.8259,-2.7429,-2.6505,-2.5579,-2.4659,-2.3734,-2.3135,-2.3135,-2.3027,-2.293,-2.293,-2.2578,-2.206,-2.1338,-2.0986,-2.0684,-2.0381,-2.0088,-1.9495,-1.8311,-1.6549,-1.507,-1.4194,-1.2445,-1.151,-1.171,-1.1536,-1.1383,-1.1283,-1.1189,-1.1136,-1.1136,-1.0942,-1.0823,-1.0923,-1.0631,-1.0481,-1.0374,-0.999,-0.9566,-3.6858,-3.9933,-4.2761,-4.5648,-4.7997,-4.9718,-5.0137,-4.9868,-4.903,-4.7234,-4.5469,-4.3778,-4.2222,-4.1758,-4.2102,-4.3643,-4.4077,-4.4691,-4.6052,-4.5469,-4.4362,-4.288,-4.2297,-4.1669,0.0,0.0,0.0,-4.3034,-4.4695,-4.5912,-4.647,-4.7547,-4.8202,-4.837,-4.8103,-4.7649,-4.7189,-4.6064,-4.4366,-4.1959,-4.0131,-3.9305,-3.9305,-3.9305,-3.9183,-3.8925,-3.7962,-3.7406,-3.7121,-3.613,-3.5493,-3.5126,-3.4909,-3.4597,-3.4049,-3.2319,-3.1816,-3.1839,-3.0412,-2.9687,-2.9208,-2.8679,-2.8871,-2.9232,-2.8895,-2.8799,-2.8799,-2.8799,-2.8655,-2.851,-2.851,-2.851,-2.8351,-2.7765,-2.6753,-2.5663,-2.5073,-2.3983,-2.3135,-2.3135,-2.3135,-2.3135,-2.3135,-2.2793,-2.2275,-2.1572,-2.1094,-2.0742,-2.0586,-2.0322,-1.986,-1.9183,-1.7172,-1.5665,-1.5051,-1.3057,-1.1888,-1.2011,-1.1844,-1.1737,-1.1737,-1.1637,-1.163,-1.1737,-1.153,-1.1476,-1.1583,-1.1289,-1.1082,-1.0942,-1.056,-0.9884,-3.9444,-4.2117,-4.4407,-4.7638,-4.9329,-5.0182,-5.0182,-4.9075,-4.7279,-4.4661,-4.2955,-4.1354,0.0,0.0,-3.8811,-4.0846,-4.0801,-4.1399,-4.3958,-4.3329,-4.2776,0.0,0.0,0.0,0.0,0.0,0.0,-4.2741,0.0,-4.5798,-4.6153,-4.7583,-4.837,-4.8438,-4.7649,-4.7189,-4.7016,-4.5149,-4.3096,-4.1055,-3.9861,-3.9305,-3.9305,-3.9305,-3.8979,-3.8383,-3.7786,-3.7175,-3.6551,-3.5967,-3.571,-3.5655,-3.5072,-3.4749,-3.4456,-3.2111,-3.1573,-3.1716,-3.0025,-2.9376,-2.9292,-2.8727,-2.8907,-2.9328,-2.928,-2.9256,-2.9256,-2.9256,-2.8895,-2.851,-2.851,-2.851,-2.851,-2.851,-2.708,-2.5819,-2.5819,-2.4402,-2.3135,-2.3135,-2.3135,-2.3135,-2.3135,-2.2793,-2.2373,-2.1982,-2.1533,-2.1074,-2.0625,-2.0566,-2.041,-1.9802,-1.7961,-1.643,-1.5651,-1.3756,-1.2546,-1.2325,-1.2311,-1.2305,-1.2305,-1.2037,-1.2024,-1.2298,-1.1757,-1.161,-1.1891,-1.159,-1.145,-1.145,-1.1299,-1.0517,-4.2986,-4.5858,-4.8192,-5.0017,-4.9987,-4.9508,-4.9508,-4.6604,-4.3404,-4.1756,-3.8409,-3.5333,0.0,0.0,0.0,-3.8018,-4.0352,0.0,-4.4077,-4.5304,0.0,-4.288,0.0,-4.3259,-4.2423,-4.1855,0.0,0.0,-4.469,-4.5206,-4.4864,-4.7181,-4.7919,-4.6579,-4.6929,-4.6476,-4.5024,-4.2981,-4.1442,-4.0418,-3.9658,-3.9305,-3.9305,-3.9305,-3.8979,-3.8383,-3.7786,-3.7175,-3.6551,-3.5967,-3.571,-3.5655,-3.5072,-3.4498,-3.3899,-3.2765,-3.2168,-3.1714,-3.0846,-3.047,-3.0326,-2.94,-2.946,-2.9737,-2.8955,-2.8703,-2.8703,-2.8703,-2.8619,-2.851,-2.851,-2.851,-2.851,-2.851,-2.708,-2.5819,-2.5819,-2.4402,-2.3135,-2.3135,-2.3135,-2.3135,-2.3135,-2.2793,-2.248,-2.2373,-2.1709,-2.1074,-2.0625,-2.0566,-2.0527,-2.042,-1.8357,-1.6995,-1.6748,-1.444,-1.2941,-1.2866,-1.2499,-1.2305,-1.2305,-1.2231,-1.2225,-1.2305,-1.2158,-1.2118,-1.2191,-1.1897,-1.1757,-1.175,-1.1398,-1.0416,-4.5214,-4.7643,-4.9271,-5.0493,-5.0017,-4.8805,-4.7055,-4.4013,-4.0689,-3.7638,-3.4661,0.0,0.0,0.0,0.0,0.0,0.0,0.0,-4.3026,-4.4162,-4.4302,0.0,-4.3948,0.0,-4.3442,-4.2782,-4.2825,0.0,-4.4706,-4.4989,-4.4586,-4.7102,-4.7734,-4.5869,-4.6314,-4.5674,-4.3681,-4.1975,-4.0947,-4.058,-3.9712,-3.9305,-3.9305,-3.9305,-3.8979,-3.8383,0.0,-3.7175,-3.6551,-3.5967,-3.571,-3.5683,-3.5357,-3.4647,-3.3684,-3.3101,-3.244,-3.1697,-3.1125,-3.1023,-3.1011,-2.9725,-2.934,-2.928,-2.8691,-2.851,-2.851,-2.851,-2.851,-2.851,-2.851,-2.851,-2.8431,-2.8007,-2.6835,-2.5746,-2.5326,-2.4155,-2.3135,-2.3135,-2.3135,-2.3135,-2.3135,-2.2939,-2.2725,-2.2539,-2.21,-2.1572,-2.0937,-2.0684,-2.0566,-2.0566,-1.8674,-1.7259,-1.7094,-1.4817,-1.3333,-1.3185,-1.2869,-1.2699,-1.2699,-1.2572,-1.2498,-1.2498,-1.2365,-1.2305,-1.2305,-1.2138,-1.2058,-1.2058,-1.1819,-1.0734,-4.6512,-4.8203,-4.8741,-5.0024,-4.9479,-4.7653,-4.3952,-4.1173,-3.8023,-3.3229,0.0,-3.0089,-2.7939,-2.8425,-3.0127,-3.3013,0.0,-3.6006,-4.1326,-4.1659,-4.2063,-4.3805,-4.4398,-4.4503,-4.4355,-4.3915,-4.3758,-4.4077,-4.4559,-4.4731,-4.4568,-4.689,-4.7463,-4.5689,-4.5508,-4.4535,-4.2656,-4.1625,-4.1042,-4.0865,-3.9807,-3.9305,-3.9305,-3.9305,-3.8979,-3.8383,-3.7881,-3.7243,-3.6564,-3.6049,-3.571,-3.5548,-3.5548,-3.4739,-3.3558,-3.3078,-3.2399,-3.1711,-3.1149,-3.1132,-3.1228,-2.9845,-2.9088,-2.8691,-2.8546,-2.851,-2.851,-2.851,-2.851,-2.851,-2.851,-2.851,-2.8283,-2.7429,-2.6595,-2.5687,-2.4826,-2.3864,-2.3223,-2.3223,-2.3184,-2.3135,-2.3135,-2.3135,-2.3018,-2.2646,-2.2549,-2.2246,-2.1504,-2.0967,-2.0635,-2.0576,-1.8806,-1.7422,-1.7083,-1.5057,-1.3729,-1.3346,-1.3227,-1.3213,-1.3213,-1.2953,-1.2869,-1.2822,-1.2492,-1.2345,-1.2305,-1.2305,-1.2305,-1.2305,-1.2305,-1.1273,-4.8057,-4.8595,-4.8427,-5.0485,-4.8087,-4.4542,-4.2356,-3.7754,0.0,0.0,0.0,-2.6674,-2.6245,-2.7187,0.0,-3.2075,0.0,0.0,0.0,0.0,-4.2163,0.0,0.0,0.0,0.0,0.0,0.0,0.0,0.0,-4.3512,-4.3245,-4.5178,-4.5764,-4.4591,-4.379,-4.278,-4.1435,-4.1218,-4.0608,-3.9617,-3.94,-3.9305,-3.9305,-3.9305,-3.8979,-3.841,-3.8315,0.0,-3.6592,-3.6497,-3.5816,-3.4881,-3.4881,-3.4069,-3.2905,-3.2734,-3.2302,-3.1632,-3.111,-3.0651,-3.0314,-3.0037,-2.9893,-2.9653,-2.8775,-2.851,-2.851,-2.851,-2.851,-2.851,-2.851,-2.851,-2.8366,-2.7856,-2.7026,-2.6185,-2.5711,-2.4536,-2.3682,-2.3682,-2.3389,-2.3135,-2.3135,-2.3135,-2.3115,-2.3047,-2.2734,-2.2461,-2.2305,-2.1602,-2.0977,-2.0605,-1.8982,-1.7894,-1.7814,-1.5572,-1.4202,-1.4121,-1.35,-1.3213,-1.3213,-1.316,-1.3013,-1.2829,-1.2768,-1.2545,-1.2305,-1.2305,-1.2305,-1.2305,-1.2305,-1.1372,-4.6812,-4.7624,-4.7707,-4.8892,-4.6185,-4.2415,-3.9207,0.0,0.0,0.0,0.0,-2.4929,-2.4924,0.0,0.0,0.0,0.0,0.0,0.0,0.0,0.0,0.0,0.0,0.0,0.0,0.0,0.0,0.0,0.0,-4.2367,-4.2833,-4.379,-4.4326,-4.4312,-4.3423,-4.2466,-4.1598,-4.1272,-4.0662,-3.9753,-3.9454,-3.9305,-3.9305,-3.9305,-3.9142,-3.8857,-3.8559,0.0,-3.6983,-3.6394,-3.5565,-3.4634,-3.4301,-3.3543,-3.2711,-3.2711,-3.2276,-3.1589,-3.106,-3.0711,-3.041,-2.9857,-2.9484,-2.9172,-2.8667,-2.851,-2.851,-2.851,-2.8703,-2.8859,-2.8582,-2.8919,-2.8976,-2.7499,-2.6215,-2.5317,-2.5088,-2.4445,-2.3789,-2.3789,-2.3437,-2.3135,-2.3135,-2.3135,-2.3135,-2.3135,-2.2969,-2.2754,-2.2539,-2.2158,-2.1641,-2.0986,-1.9344,-1.8203,-1.7844,-1.5815,-1.4434,-1.4352,-1.3899,-1.3667,-1.3667,-1.352,-1.3367,-1.3213,-1.3066,-1.2839,-1.2532,-1.2532,-1.2452,-1.2298,-1.1855,-1.095,-4.5106,-4.5915,-4.625,-4.6736,-4.4101,-4.0278,-3.6071,-3.2031,0.0,0.0,-2.4231,-2.379,-2.4063,0.0,0.0,0.0,0.0,0.0,0.0,0.0,0.0,0.0,0.0,0.0,0.0,0.0,0.0,0.0,0.0,0.0,-4.2833,-4.2765,-4.3054,-4.3756,-4.2931,-4.2222,-4.1625,-4.115,-4.0608,-3.9983,-3.9522,-3.9305,-3.9305,-3.9305,-3.9305,-3.9278,-3.8817,0.0,0.0,-3.6213,-3.5168,-3.4217,-3.3713,-3.3043,-3.245,-3.245,-3.2189,-3.1589,-3.106,-3.0879,-3.0723,-2.9773,-2.9112,-2.8655,-2.8546,-2.851,-2.851,-2.851,-2.8811,-2.9063,-2.8751,-2.9128,-2.9078,-2.6976,-2.5542,-2.4697,-2.4697,-2.4365,-2.4062,-2.4062,-2.3643,-2.3281,-2.3281,-2.3203,-2.3135,-2.3135,-2.3135,-2.3018,-2.2685,-2.2465,-2.2005,-2.1255,-1.9732,-1.8462,-1.7763,-1.6012,-1.4824,-1.4578,-1.4338,-1.4233,-1.4088,-1.3861,-1.3707,-1.3559,-1.342,-1.3153,-1.2923,-1.2923,-1.2692,-1.2398,-1.1571,-1.0628,-4.3999,-4.4034,-4.3602,-4.5138,-4.195,-3.7479,-3.4214,0.0,0.0,0.0,-2.3339,-2.2878,-2.3903,-2.3892,0.0,0.0,0.0,0.0,0.0,0.0,0.0,0.0,0.0,0.0,0.0,0.0,0.0,0.0,0.0,0.0,-4.2873,-4.2371,-4.2086,-4.2168,-4.1557,-4.0987,-4.0363,-4.0296,-3.997,-3.9386,-3.9332,-3.9305,-3.9305,-3.9305,-3.9305,-3.9305,-3.9237,0.0,0.0,-3.6465,-3.502,-3.2884,-3.2797,-3.2363,-3.1749,-3.1749,-3.1749,-3.1589,-3.106,-3.0879,-3.0783,-3.0206,-2.9653,-2.9136,-2.8655,-2.851,-2.851,-2.851,-2.8546,-2.8679,-2.9112,-2.861,-2.777,-2.6651,-2.6023,-2.5615,-2.5615,-2.5264,-2.4951,-2.4951,-2.4287,-2.373,-2.373,-2.3398,-2.3135,-2.3135,-2.3135,-2.3125,-2.3086,-2.2268,-2.1563,-2.113,-1.9883,-1.8709,-1.7746,-1.6543,-1.5637,-1.5175,-1.4902,-1.4613,-1.4102,-1.4062,-1.3921,-1.3647,-1.3621,-1.346,-1.3166,-1.3166,-1.3013,-1.2705,-1.1852,-1.0871,-4.1991,-4.3177,-4.3547,-4.342,-3.997,-3.5921,-3.3032,0.0,0.0,-2.3997,-2.2716,-2.2153,-2.3047,-2.305,-2.3461,0.0,0.0,0.0,0.0,0.0,0.0,0.0,0.0,0.0,0.0,0.0,0.0,0.0,0.0,0.0,-4.2371,-4.2127,-4.1842,-4.1489,-4.1245,-4.0825,-4.0201,-4.0187,-3.9888,-3.9305,-3.9305,-3.9305,-3.9305,-3.9305,-3.9305,-3.9305,-3.9305,0.0,0.0,-3.624,-3.4842,-3.3083,-3.2399,-3.1925,-3.1661,-3.1661,-3.1661,-3.1589,-3.106,-3.0879,-3.0735,-2.9893,-2.9472,-2.9256,-2.9051,-2.8763,-2.851,-2.851,-2.8967,-2.9436,-2.9328,-2.8538,-2.7655,-2.7045,-2.624,-2.5664,-2.5391,-2.5195,-2.499,-2.4727,-2.4394,-2.417,-2.417,-2.3818,-2.3525,-2.3525,-2.3301,-2.3135,-2.3135,-2.2236,-2.1453,-2.066,-1.9411,-1.8409,-1.7771,-1.6632,-1.5881,-1.549,-1.5127,-1.4715,-1.4355,-1.4182,-1.4035,-1.3915,-1.3908,-1.3768,-1.3467,-1.3467,-1.332,-1.3026,-1.1581,-1.0655,-3.9365,-4.13,-4.2277,-4.0941,-3.7922,-3.4481,0.0,0.0,0.0,-2.3616,-2.2298,-2.1655,-2.2696,-2.2763,-2.3027,0.0,0.0,0.0,0.0,0.0,0.0,0.0,0.0,0.0,0.0,0.0,0.0,0.0,0.0,0.0,-4.1774,-4.1571,-4.1272,-4.0865,-4.0675,-4.0363,-3.9929,-3.9916,-3.9712,-3.9305,-3.9305,-3.9305,-3.9305,-3.9305,-3.9305,-3.9305,-3.9024,0.0,0.0,-3.5711,-3.4361,-3.3138,-3.2043,-3.1661,-3.1661,-3.1661,-3.1661,-3.1613,-3.124,-3.1108,-3.0963,-3.0062,-2.9665,-2.9532,-2.9532,-2.916,-2.8775,-2.8931,-2.9451,-2.9697,-2.9066,-2.8275,-2.7519,-2.6938,-2.6187,-2.5644,-2.5332,-2.5264,-2.5176,-2.4863,-2.4697,-2.457,-2.4443,-2.4072,-2.375,-2.3613,-2.333,-2.296,-2.2687,-2.1872,-2.0872,-1.9877,-1.8747,-1.7877,-1.7644,-1.6832,-1.6256,-1.5805,-1.5506,-1.5041,-1.4522,-1.4322,-1.4175,-1.4088,-1.4088,-1.3981,-1.3774,-1.3774,-1.3457,-1.2933,-1.145,-1.0269,-3.6173,-3.801,-3.8873,-3.7698,-3.5483,-3.2842,0.0,0.0,-2.3955,-2.3341,-2.1983,-2.1429,-2.3157,-2.3108,-2.3204,-2.4376,0.0,0.0,0.0,0.0,0.0,0.0,0.0,0.0,0.0,0.0,0.0,0.0,0.0,0.0,-4.1164,-4.054,-4.0201,-4.0201,-3.9631,-3.9319,-3.9305,-3.9305,-3.9305,-3.9305,-3.9305,-3.9305,-3.9305,-3.9305,-3.9305,0.0,0.0,0.0,0.0,-3.4914,-3.3666,-3.2442,-3.1889,-3.1661,-3.1661,-3.1661,-3.1661,-3.1661,-3.1661,-3.1661,-3.1565,-3.1036,-3.0506,-3.0074,-3.0074,-2.9713,-2.94,-2.9917,-2.9738,-2.9135,-2.8129,-2.7572,-2.701,-2.5917,-2.5732,-2.5742,-2.5732,-2.5732,-2.5732,-2.5723,-2.5361,-2.4922,-2.4492,-2.4072,-2.3643,-2.3213,-2.3135,-2.2775,-2.1872,-2.0872,-1.9869,-1.888,-1.7878,-1.7326,-1.7318,-1.7318,-1.6993,-1.6134,-1.6113,-1.5569,-1.4543,-1.4516,-1.4382,-1.4095,-1.4088,-1.4088,-1.4082,-1.4082,-1.3503,-1.2306,-1.1377,-0.9673,-3.2747,-3.4313,-3.5074,-3.3886,-3.2279,-3.027,-2.7802,0.0,-2.3993,-2.2591,-2.226,-2.2272,-2.2497,-2.3098,-2.3956,-2.5137,-2.6115,0.0,0.0,0.0,0.0,0.0,0.0,0.0,0.0,0.0,0.0,0.0,0.0,0.0,-4.115,-4.0526,-3.9997,-3.959,-3.94,-3.9305,-3.9305,-3.9305,-3.9305,-3.9305,-3.9305,-3.9305,-3.9305,-3.9305,-3.9305,0.0,0.0,0.0,0.0,-3.4914,-3.3887,-3.2947,-3.2022,-3.1901,-3.219,-3.1805,-3.1661,-3.1661,-3.1661,-3.1432,-3.1096,-3.0927,-3.0518,-3.0086,-3.0086,-2.946,-2.8943,-2.9833,-2.975,-2.9226,-2.8638,-2.7828,-2.6914,-2.5917,-2.5742,-2.5654,-2.5352,-2.5518,-2.5644,-2.5342,-2.541,-2.5478,-2.5342,-2.4707,-2.417,-2.4033,-2.3516,-2.296,-2.2687,-2.123,-2.0051,-1.9786,-1.8234,-1.7326,-1.7326,-1.7326,-1.7008,-1.6441,-1.6239,-1.577,-1.4843,-1.4629,-1.4382,-1.4095,-1.4088,-1.4088,-1.4088,-1.4088,-1.3262,-1.1555,-1.0701,-0.9465,0.0,-3.107,-3.1669,-3.0703,-2.96,0.0,0.0,0.0,-2.3468,-2.2087,-2.2218,-2.2536,-2.2466,-2.3245,-2.4213,-2.5283,-2.6148,0.0,0.0,0.0,0.0,0.0,0.0,0.0,0.0,0.0,0.0,0.0,0.0,0.0,-4.0798,-4.0187,-3.9685,-3.9305,-3.9305,-3.9305,-3.9305,-3.9305,-3.9305,-3.9305,-3.9305,-3.9305,-3.9305,-3.9305,-3.9127,0.0,0.0,0.0,0.0,-3.4768,-3.3893,-3.32,-3.2322,-3.207,-3.2142,-3.1793,-3.1661,-3.1661,-3.1661,-3.1444,-3.1144,-3.0939,-3.0518,-3.005,-2.9845,-2.9605,-2.9581,-3.0446,-2.991,-2.9037,-2.8789,-2.7662,-2.6466,-2.582,-2.5742,-2.5664,-2.5381,-2.5537,-2.5654,-2.5371,-2.5547,-2.5684,-2.5518,-2.5029,-2.4551,-2.4228,-2.3721,-2.3144,-2.2618,-2.1141,-2.0051,-1.9695,-1.8241,-1.7326,-1.7326,-1.7326,-1.7145,-1.6588,-1.6406,-1.5985,-1.5137,-1.4843,-1.4549,-1.4255,-1.4142,-1.4088,-1.4088,-1.3392,-1.2272,-1.0722,-0.9864,-0.8903,0.0,0.0,0.0,0.0,0.0,0.0,0.0,0.0,0.0,-2.1877,-2.199,-2.2358,-2.3043,-2.3581,-2.4242,-2.503,-2.6067,0.0,0.0,0.0,0.0,0.0,0.0,0.0,0.0,0.0,0.0,0.0,0.0,0.0,-4.0214,-3.9631,-3.9305,-3.9305,-3.9264,-3.9264,-3.9305,-3.9305,-3.9305,-3.9305,-3.9264,-3.9237,-3.9237,-3.9094,-3.8725,0.0,0.0,0.0,0.0,-3.4423,-3.3681,-3.3236,-3.2659,-3.2154,-3.1721,-3.1673,-3.1661,-3.1661,-3.1661,-3.1613,-3.1468,-3.0975,-3.0494,-3.0013,-2.9593,-3.0098,-3.0927,-3.1408,-3.018,-2.8637,-2.8669,-2.721,-2.5742,-2.5742,-2.5742,-2.5742,-2.5742,-2.5742,-2.5742,-2.5742,-2.5742,-2.5605,-2.5185,-2.5088,-2.4795,-2.3994,-2.3857,-2.3403,-2.2063,-2.1006,-1.9994,-1.8972,-1.7963,-1.7419,-1.7333,-1.7326,-1.7145,-1.6683,-1.6588,-1.6261,-1.5503,-1.5137,-1.4843,-1.4529,-1.4235,-1.4088,-1.4004,-1.2186,-1.0809,-0.9859,-0.8999,-0.8388,-2.3255,0.0,-2.5121,-2.4541,0.0,0.0,0.0,0.0,0.0,0.0,0.0,0.0,0.0,0.0,0.0,0.0,0.0,0.0,0.0,0.0,0.0,0.0,0.0,0.0,0.0,0.0,0.0,0.0,0.0,-4.035,-4.0201,-3.9631,-3.9305,-3.9305,-3.8857,-3.8844,-3.9305,-3.9305,-3.9305,-3.9292,-3.8844,-3.8627,-3.8613,-3.7591,-3.7029,0.0,0.0,0.0,-3.4674,-3.3344,-3.3032,-3.32,-3.2238,-3.2046,-3.225,-3.1817,-3.1661,-3.1661,-3.1661,-3.1132,-3.0434,-3.0314,-3.0194,-3.0218,-3.0903,-3.0723,-3.0302,-3.0422,-2.9297,-2.8211,-2.8582,-2.721,-2.5742,-2.5742,-2.5742,-2.5742,-2.5742,-2.5742,-2.5742,-2.5742,-2.5742,-2.5703,-2.5596,-2.5293,-2.5,-2.4805,-2.4482,-2.402,-2.3413,-2.2425,-2.129,-1.9994,-1.9055,-1.8149,-1.7326,-1.7326,-1.7145,-1.6878,-1.6683,-1.6362,-1.5695,-1.5429,-1.505,-1.4529,-1.4235,-1.3743,-1.3052,-1.1843,-1.0809,-0.9859,-0.8999,-0.8476,-2.221,-2.2997,-2.3662,-2.3608,-2.3378,-2.3043,0.0,0.0,0.0,0.0,0.0,0.0,0.0,0.0,0.0,0.0,0.0,0.0,0.0,0.0,0.0,0.0,0.0,0.0,0.0,0.0,0.0,0.0,0.0,-4.0065,-3.9794,-3.9481,-3.9305,-3.9305,-3.8722,-3.8708,-3.9292,-3.8762,-3.8627,-3.8884,-3.8301,-3.7831,-3.7531,-3.6851,-3.6171,0.0,0.0,0.0,-3.3882,-3.3155,-3.2887,-3.2875,-3.2274,-3.207,-3.2082,-3.1781,-3.1661,-3.1625,-3.1384,-3.0927,-3.041,-3.017,-3.0254,-3.0506,-3.0843,-3.0543,-3.0194,-3.0675,-2.955,-2.8353,-2.8615,-2.721,-2.5742,-2.5742,-2.5742,-2.5742,-2.5742,-2.5742,-2.5742,-2.5742,-2.5742,-2.5742,-2.5742,-2.5537,-2.5303,-2.5098,-2.4863,-2.4492,-2.3867,-2.2574,-2.1296,-2.0275,-1.8964,-1.7878,-1.7326,-1.7326,-1.7239,-1.6979,-1.6777,-1.6418,-1.5992,-1.5564,-1.5117,-1.4529,-1.4362,-1.3519,-1.21,-1.1585,-1.0636,-0.9257,-0.8828,-0.8472,-2.2234,-2.28,-2.3393,-2.373,-2.3486,-2.3257,0.0,0.0,0.0,0.0,0.0,0.0,0.0,0.0,0.0,0.0,0.0,0.0,0.0,0.0,0.0,0.0,0.0,0.0,0.0,0.0,0.0,0.0,0.0,-3.9753,-3.9061,-3.9034,-3.8993,-3.8898,-3.8315,-3.8242,-3.8843,-3.7944,-3.7786,-3.8274,-3.7592,-3.6941,-3.6386,-3.6035,-3.5311,-3.418,0.0,0.0,-3.3164,-3.308,-3.2827,-3.2491,-3.2406,-3.2082,-3.1661,-3.1661,-3.1661,-3.1589,-3.106,-3.0819,-3.0699,-3.0326,-3.0506,-3.0807,-3.0446,-3.0241,-3.0324,-3.1221,-3.0112,-2.8582,-2.8473,-2.7115,-2.5742,-2.5742,-2.5742,-2.5742,-2.5742,-2.5742,-2.5742,-2.5742,-2.5742,-2.5742,-2.5742,-2.5742,-2.5605,-2.5225,-2.5166,-2.4883,-2.39,-2.2235,-2.0931,-2.0178,-1.8542,-1.7512,-1.7326,-1.7326,-1.7239,-1.7066,-1.6777,-1.6494,-1.6123,-1.5651,-1.5164,-1.4663,-1.4609,-1.3554,-1.1381,-1.1381,-1.041,-0.8568,-0.8568,-0.8472,-2.177,-2.2988,-2.3755,-2.2682,-2.2746,-2.307,0.0,0.0,0.0,0.0,0.0,0.0,0.0,0.0,0.0,0.0,0.0,0.0,0.0,0.0,0.0,0.0,0.0,0.0,0.0,0.0,0.0,0.0,0.0,-3.8952,-3.7867,-3.7813,-3.7568,-3.7026,-3.6442,-3.6397,-3.6957,-3.7353,-3.7582,-3.7663,-3.6436,-3.5804,-3.5693,-3.4015,-3.3133,-3.2972,0.0,-3.2268,-3.2587,-3.2106,-3.2142,-3.2454,-3.1973,-3.1745,-3.1661,-3.1661,-3.1661,-3.1589,-3.106,-3.0579,-3.0266,-3.0639,-3.0807,-3.0951,-3.1312,-3.0868,-3.0244,-3.0406,-2.9308,-2.7893,-2.7547,-2.6552,-2.5742,-2.5742,-2.5742,-2.5742,-2.5742,-2.5742,-2.5742,-2.5742,-2.5742,-2.5742,-2.5742,-2.5742,-2.5713,-2.5644,-2.5635,-2.515,-2.3765,-2.3015,-2.1893,-1.9649,-1.8877,-1.8241,-1.7326,-1.7326,-1.7333,-1.7239,-1.6864,-1.64,-1.5927,-1.5551,-1.5351,-1.5264,-1.5017,-1.3843,-1.1717,-1.1717,-1.0647,-0.8568,-0.8568,-0.8472,-2.0913,-2.1766,-2.2393,-2.1792,-2.2678,-2.3668,0.0,0.0,0.0,0.0,0.0,0.0,0.0,0.0,0.0,0.0,0.0,0.0,0.0,0.0,0.0,0.0,0.0,0.0,0.0,0.0,0.0,0.0,0.0,0.0,-3.7002,-3.6976,-3.6855,-3.6561,-3.565,-3.5175,-3.544,-3.5424,-3.5594,-3.5897,-3.4966,-3.4353,-3.4011,-3.3082,-3.2537,-3.2101,0.0,-3.1805,-3.2034,-3.1769,-3.1817,-3.2022,-3.1769,-3.1661,-3.1661,-3.1661,-3.148,-3.1204,-3.0963,-3.0723,-3.0506,-3.0458,-3.0831,-3.1288,-3.1252,-3.1156,-3.0812,-2.9704,-2.8517,-2.7471,-2.7222,-2.6466,-2.5742,-2.5742,-2.5742,-2.5742,-2.5742,-2.5742,-2.5742,-2.5742,-2.5742,-2.5742,-2.5742,-2.5742,-2.5742,-2.5742,-2.5742,-2.5179,-2.3653,-2.2847,-2.1717,-1.9734,-1.8822,-1.8055,-1.7589,-1.7428,-1.7239,-1.6958,-1.6676,-1.6393,-1.5825,-1.5698,-1.5558,-1.5398,-1.5264,-1.4411,-1.2771,-1.2098,-1.1008,-0.9589,-0.8874,-0.8564,-2.0078,-2.0625,-2.1091,-2.1089,0.0,0.0,0.0,0.0,0.0,0.0,0.0,0.0,0.0,0.0,0.0,0.0,0.0,0.0,0.0,0.0,0.0,0.0,0.0,0.0,0.0,0.0,0.0,0.0,0.0,0.0,-3.5877,-3.5851,-3.5798,-3.5654,-3.471,-3.4126,-3.4193,-3.3534,-3.362,-3.4353,-3.3747,-3.3215,-3.2711,-3.2414,-3.2066,-3.1661,-3.1529,-3.1541,-3.1661,-3.1661,-3.1661,-3.1661,-3.1661,-3.1661,-3.1661,-3.1661,-3.1336,-3.0891,-3.1011,-3.0975,-3.0831,-3.0543,-3.0999,-3.1589,-3.118,-3.1061,-3.0633,-2.9143,-2.7851,-2.6829,-2.6829,-2.6284,-2.5742,-2.5742,-2.5742,-2.5742,-2.5742,-2.5742,-2.5742,-2.5742,-2.5742,-2.5742,-2.5742,-2.5742,-2.5742,-2.5742,-2.5742,-2.5111,-2.3481,-2.2566,-2.1327,-1.9701,-1.8604,-1.7896,-1.7823,-1.7516,-1.7145,-1.6683,-1.6588,-1.64,-1.5927,-1.5832,-1.5725,-1.5504,-1.5498,-1.4883,-1.3677,-1.2564,-1.1452,-1.041,-0.9285,-0.8694,-1.9794,-2.0496,-2.1082,-2.0758,0.0,0.0,0.0,0.0,0.0,0.0,0.0,0.0,0.0,0.0,0.0,0.0,0.0,0.0,0.0,0.0,0.0,0.0,0.0,0.0,0.0,0.0,0.0,0.0,0.0,0.0,-3.3977,-3.3913,-3.3669,-3.3116,-3.2982,-3.2891,-3.286,-3.2287,-3.2613,-3.3777,-3.3068,-3.2711,-3.2698,-3.1503,-3.1279,-3.1637,-3.1144,-3.1216,-3.1661,-3.1661,-3.1661,-3.1661,-3.1661,-3.1661,-3.1661,-3.1661,-3.1336,-3.0951,-3.1432,-3.1288,-3.0951,-3.1408,-3.1601,-3.1661,-3.1613,-3.0328,-2.8866,-2.8773,-2.7305,-2.583,-2.583,-2.5732,-2.5742,-2.5742,-2.5742,-2.5742,-2.5742,-2.5742,-2.5742,-2.5742,-2.5742,-2.5742,-2.5742,-2.5742,-2.5742,-2.5742,-2.5742,-2.4913,-2.2859,-2.224,-2.123,-1.9048,-1.8559,-1.8145,-1.7838,-1.7516,-1.7239,-1.6979,-1.6784,-1.6494,-1.6218,-1.5927,-1.5818,-1.5798,-1.5798,-1.5175,-1.395,-1.2983,-1.1833,-1.0527,-0.952,-0.906,-1.9281,-2.0036,-2.0701,-2.0135,0.0,0.0,0.0,0.0,0.0,0.0,0.0,0.0,0.0,0.0,0.0,0.0,0.0,0.0,0.0,0.0,0.0,0.0,0.0,0.0,0.0,0.0,0.0,0.0,0.0,0.0,-3.2626,-3.2588,-3.2336,-3.177,-3.1357,-3.1134,-3.1101,-3.0894,-3.0966,-3.1427,-3.1186,-3.1101,-3.1113,-3.0991,-3.0987,-3.118,-3.1312,-3.148,-3.1661,-3.1661,-3.1661,-3.1661,-3.1661,-3.1661,-3.1661,-3.1661,-3.1541,-3.1396,-3.1589,-3.1529,-3.1396,-3.1601,-3.1661,-3.1661,-3.1661,-3.0734,-2.9521,-2.8866,-2.7662,-2.6456,-2.582,-2.5742,-2.5742,-2.5742,-2.5742,-2.5742,-2.5742,-2.5742,-2.5742,-2.5742,-2.5742,-2.5742,-2.5742,-2.5742,-2.5742,-2.5742,-2.5742,-2.4922,-2.2793,-2.2364,-2.1478,-1.9287,-1.8803,-1.8394,-1.786,-1.7699,-1.745,-1.716,-1.6777,-1.6494,-1.6224,-1.5927,-1.5832,-1.5832,-1.5832,-1.5582,-1.5087,-1.3391,-1.2229,-1.1765,-0.9979,-0.9096,-1.9143,-1.954,-1.9861,0.0,0.0,0.0,0.0,0.0,0.0,0.0,0.0,0.0,0.0,0.0,0.0,0.0,0.0,0.0,0.0,0.0,0.0,0.0,0.0,0.0,0.0,0.0,0.0,0.0,0.0,0.0,0.0,-3.1612,-3.1366,-3.0823,-3.0325,-3.0086,-3.0086,-2.9917,-2.9833,-2.9833,-2.9677,-2.9845,-3.0338,-3.0543,-3.0807,-3.1132,-3.1336,-3.1504,-3.1661,-3.1661,-3.1661,-3.1661,-3.1661,-3.1661,-3.1661,-3.1661,-3.1661,-3.1661,-3.1661,-3.1661,-3.1661,-3.1661,-3.1472,-3.1193,-3.1193,-3.026,-2.9143,-2.8402,-2.7474,-2.6552,-2.5917,-2.5742,-2.5742,-2.5742,-2.5742,-2.5742,-2.5742,-2.5742,-2.5742,-2.5742,-2.5742,-2.5742,-2.5742,-2.543,-2.5216,-2.5216,-2.4922,-2.4007,-2.219,-2.1988,-2.1285,-1.948,-1.8986,-1.8606,-1.816,-1.7933,-1.7721,-1.7494,-1.6921,-1.6494,-1.6312,-1.6021,-1.5832,-1.5832,-1.5832,-1.5635,-1.535,-1.3423,-1.2384,-1.2004,-1.0165,-0.9267,-1.9492,-1.9023,0.0,0.0,0.0,0.0,0.0,0.0,0.0,0.0,0.0,0.0,0.0,0.0,0.0,0.0,0.0,0.0,0.0,0.0,0.0,0.0,0.0,0.0,0.0,0.0,0.0,0.0,0.0,0.0,0.0,-3.0855,-3.0615,-3.0086,-3.0074,-3.0074,-3.0074,-2.9556,-2.9292,-2.928,-2.8763,-2.9328,-3.0831,-3.0314,-3.0651,-3.1613,-3.1096,-3.1168,-3.1661,-3.1661,-3.1661,-3.1661,-3.1661,-3.1661,-3.1661,-3.1661,-3.1661,-3.1661,-3.1661,-3.1661,-3.1661,-3.1661,-3.1003,-3.017,-3.017,-2.8773,-2.7189,-2.7189,-2.6466,-2.5742,-2.5742,-2.5742,-2.5742,-2.5742,-2.5742,-2.5742,-2.5742,-2.5742,-2.5742,-2.5742,-2.5742,-2.5742,-2.5742,-2.4815,-2.4088,-2.4088,-2.3194,-2.2089,-2.1089,-2.0885,-2.0483,-1.9376,-1.8986,-1.8789,-1.8789,-1.8196,-1.7823,-1.7816,-1.7049,-1.6595,-1.6588,-1.6109,-1.5832,-1.5832,-1.5832,-1.535,-1.4298,-1.3221,-1.2145,-1.117,-1.0109,-0.9628,-1.9313,0.0,0.0,0.0,0.0,0.0,0.0,0.0,0.0,0.0,0.0,0.0,0.0,0.0,0.0,0.0,0.0,0.0,0.0,0.0,0.0,0.0,0.0,0.0,0.0,0.0,0.0,0.0,0.0,0.0,0.0,-2.9761,-2.9532,-2.8991,-2.8979,-2.8979,-2.8979,-2.8823,-2.8751,-2.8739,-2.8595,-2.8751,-2.922,-2.9436,-2.9701,-3.0037,-3.0627,-3.0963,-3.1144,-3.1517,-3.1661,-3.1661,-3.1661,-3.1661,-3.1661,-3.1661,-3.1661,-3.1613,-3.124,-3.1348,-3.1601,-3.1228,-3.0708,-3.017,-3.017,-2.8773,-2.7189,-2.7189,-2.6466,-2.5742,-2.5742,-2.5742,-2.5742,-2.5742,-2.5742,-2.5742,-2.5742,-2.5742,-2.5742,-2.5742,-2.5742,-2.5742,-2.5742,-2.4815,-2.4088,-2.4088,-2.3194,-2.2089,-2.1089,-2.0285,-1.968,-1.9376,-1.9191,-1.9038,-1.8811,-1.8613,-1.8306,-1.7845,-1.7455,-1.7036,-1.6602,-1.6109,-1.5832,-1.5832,-1.5832,-1.535,-1.4298,-1.3221,-1.2145,-1.117,-1.0109,-0.9628,-1.9357,0.0,0.0,0.0,0.0,0.0,0.0,0.0,0.0,0.0,0.0,0.0,0.0,0.0,0.0,0.0,0.0,0.0,0.0,0.0,0.0,0.0,0.0,0.0,0.0,0.0,0.0,0.0,0.0,0.0,0.0,-2.9304,-2.9051,-2.8522,-2.851,-2.851,-2.851,-2.851,-2.851,-2.851,-2.851,-2.851,-2.8522,-2.9051,-2.9412,-2.9641,-3.029,-3.0555,-3.0591,-3.0903,-3.1036,-3.1036,-3.1036,-3.1036,-3.106,-3.1264,-3.1348,-3.13,-3.0987,-3.1216,-3.1577,-3.1048,-3.0313,-2.9612,-2.9612,-2.8215,-2.6648,-2.6648,-2.6197,-2.5742,-2.5742,-2.5742,-2.5742,-2.5742,-2.5742,-2.5742,-2.5742,-2.5742,-2.5742,-2.5742,-2.5742,-2.5742,-2.5742,-2.4412,-2.3484,-2.3484,-2.219,-2.0987,-2.0388,-1.968,-1.9279,-1.9279,-1.9279,-1.9199,-1.9001,-1.8745,-1.843,-1.8035,-1.7566,-1.707,-1.6602,-1.6225,-1.5952,-1.5832,-1.5832,-1.535,-1.4298,-1.3221,-1.2145,-1.117,-1.0109,-0.9628,0.0,0.0,0.0,0.0,0.0,0.0,0.0,0.0,0.0,0.0,0.0,0.0,0.0,0.0,0.0,0.0,0.0,0.0,0.0,0.0,0.0,0.0,0.0,0.0,0.0,0.0,0.0,0.0,0.0,0.0,0.0,-2.9112,-2.8907,-2.8522,-2.8462,-2.8462,-2.851,-2.851,-2.851,-2.851,-2.851,-2.851,-2.8522,-2.9003,-2.9508,-3.0013,-3.0013,-3.0037,-3.0086,-3.0086,-3.0086,-3.0086,-3.0086,-3.0122,-3.0218,-3.0699,-3.0879,-3.0879,-3.0879,-3.1192,-3.1517,-3.1036,-2.9935,-2.868,-2.868,-2.7305,-2.5742,-2.5742,-2.5742,-2.5742,-2.5742,-2.5742,-2.5742,-2.5742,-2.5742,-2.5742,-2.5742,-2.5742,-2.5742,-2.5742,-2.5742,-2.5742,-2.5742,-2.3908,-2.2383,-2.2291,-2.0585,-1.9279,-1.9279,-1.9279,-1.9279,-1.9279,-1.9279,-1.9279,-1.9279,-1.8701,-1.8335,-1.8299,-1.7469,-1.6942,-1.6588,-1.6381,-1.6106,-1.5832,-1.5832,-1.535,-1.4298,-1.3221,-1.2145,-1.117,-1.0109,-0.9628,0.0,0.0,0.0,0.0,0.0,0.0,0.0,0.0,0.0,0.0,0.0,0.0,0.0,0.0,0.0,0.0,0.0,0.0,0.0,0.0,0.0,0.0,0.0,0.0,0.0,0.0,0.0,0.0,0.0,0.0,-2.8041,-2.7669,-2.7765,-2.8486,-2.8114,-2.8089,-2.851,-2.851,-2.851,0.0,-2.851,-2.851,-2.851,-2.8631,-2.8967,-2.9472,-2.9472,-2.9701,-3.0086,-3.0086,-3.0086,-3.0086,-3.0086,-3.0338,-3.0723,-3.0831,-3.0879,-3.0879,-3.0879,-3.0951,-3.1023,-3.0915,-2.9935,-2.868,-2.868,-2.7305,-2.5742,-2.5742,-2.5742,-2.5742,-2.5742,-2.5742,-2.5742,-2.5742,-2.5742,-2.5742,-2.5742,-2.5742,-2.5742,-2.5742,-2.5742,-2.5742,-2.5742,-2.3908,-2.1887,-2.0285,-1.9576,-1.9279,-1.9279,-1.9279,-1.9279,-1.9279,-1.9279,-1.9279,-1.9279,-1.8913,-1.8577,-1.8321,-1.7781,-1.719,-1.6602,-1.6374,-1.6089,-1.5832,-1.5832,-1.535,-1.4298,-1.3221,-1.2145,-1.117,-1.0109,-0.9628,0.0,0.0,0.0,0.0,0.0,0.0,0.0,0.0,0.0,0.0,0.0,0.0,0.0,0.0,0.0,0.0,0.0,0.0,0.0,0.0,0.0,0.0,0.0,0.0,0.0,0.0,0.0,0.0,0.0,-2.7055,-2.7332,-2.7079,-2.7188,-2.7741,-2.7488,-2.7596,-2.8126,-2.8138,-2.8258,-2.851,-2.851,-2.851,-2.851,-2.851,-2.8655,-2.8919,-2.8919,-2.9076,-2.9328,-2.9328,-2.9328,-2.9328,-2.8905,-2.9154,-2.969,-2.9593,-2.9927,-3.0458,-3.0206,-3.0615,-3.1081,-3.0111,-2.9283,-2.8588,-2.8121,-2.6924,-2.5742,-2.5742,-2.5742,-2.5742,-2.5742,-2.5742,-2.5742,-2.5742,-2.5742,-2.5742,-2.5742,-2.5742,-2.5742,-2.5742,-2.5742,-2.5742,-2.5742,-2.3908,-2.1785,-1.9576,-1.9279,-1.9279,-1.9279,-1.9279,-1.9279,-1.9279,-1.9279,-1.9213,-1.906,-1.8745,-1.8482,-1.8313,-1.7714,-1.7277,-1.6812,-1.6578,-1.6211,-1.5832,-1.5832,-1.554,-1.5064,-1.3998,-1.3221,-1.2635,-1.1082,-1.04,0.0,0.0,0.0,0.0,0.0,0.0,0.0,0.0,0.0,0.0,0.0,0.0,0.0,0.0,0.0,0.0,0.0,0.0,0.0,0.0,0.0,0.0,0.0,0.0,0.0,0.0,0.0,0.0,0.0,-2.6695,-2.6779,-2.6707,-2.6743,-2.6923,-2.6839,-2.7043,-2.7584,-2.7584,-2.7801,-2.8234,-2.833,-2.8378,-2.8378,-2.8474,-2.851,-2.851,-2.8339,-2.8271,-2.8259,-2.8087,-2.8007,-2.7926,-2.7255,-2.7476,-2.8115,-2.7865,-2.8617,-2.963,-2.9118,-2.9879,-3.0759,-2.8994,-2.8388,-2.819,-2.7348,-2.6396,-2.5742,-2.5742,-2.5742,-2.5742,-2.5742,-2.5742,-2.5742,-2.5742,-2.5742,-2.5742,-2.5742,-2.5742,-2.5742,-2.5742,-2.5538,-2.5333,-2.5226,-2.3502,-2.1591,-1.9576,-1.9279,-1.9279,-1.9279,-1.9279,-1.9279,-1.9279,-1.9279,-1.9169,-1.8891,-1.8577,-1.8364,-1.8306,-1.7647,-1.7232,-1.7056,-1.6728,-1.6305,-1.5832,-1.5832,-1.5832,-1.5832,-1.4777,-1.4298,-1.4292,-1.2344,-1.1365,0.0,0.0,0.0,0.0,0.0,0.0,0.0,0.0,0.0,0.0,0.0,0.0,0.0,0.0,0.0,0.0,0.0,0.0,0.0,0.0,0.0,0.0,0.0,0.0,0.0,0.0,0.0,0.0,-2.5528,-2.5721,-2.619,-2.5781,-2.5961,-2.6899,-2.6466,-2.6478,-2.7031,-2.7043,-2.7079,-2.7152,-2.7609,-2.7825,-2.7837,-2.8306,-2.851,-2.8431,-2.7684,-2.7348,-2.7348,-2.6494,-2.6163,-2.6163,-2.5997,-2.6334,-2.6879,-2.6775,-2.7448,-2.826,-2.7824,-2.7985,-2.8372,-2.7774,-2.7263,-2.6888,-2.6703,-2.6259,-2.5742,-2.5742,-2.5742,-2.5742,-2.5742,-2.5742,-2.5742,-2.5742,-2.5742,-2.5742,-2.5742,-2.5742,-2.5742,-2.5742,-2.4913,-2.3998,-2.3094,-2.1887,-2.068,-1.948,-1.9279,-1.9279,-1.9279,-1.9279,-1.9279,-1.9279,-1.9279,-1.9257,-1.9213,-1.8913,-1.8606,-1.8321,-1.7768,-1.7177,-1.6658,-1.6427,-1.6123,-1.5832,-1.5832,-1.5832,-1.5832,-1.4777,-1.4298,-1.4298,-1.3022,-1.2047,0.0,0.0,0.0,0.0,0.0,0.0,0.0,0.0,0.0,0.0,0.0,0.0,0.0,0.0,0.0,0.0,0.0,0.0,0.0,0.0,0.0,0.0,0.0,0.0,0.0,0.0,0.0,0.0,-2.5312,-2.5408,-2.5636,-2.5432,-2.5528,-2.6009,-2.5781,-2.5913,-2.6466,-2.6466,-2.6622,-2.6947,-2.7464,-2.7717,-2.7741,-2.827,-2.8259,-2.7765,-2.7348,-2.6928,-2.6412,-2.5997,-2.5819,-2.5735,-2.5242,-2.554,-2.6051,-2.5637,-2.614,-2.7138,-2.6645,-2.7015,-2.7453,-2.6431,-2.612,-2.6134,-2.5512,-2.5198,-2.5049,-2.5293,-2.5361,-2.542,-2.5674,-2.5742,-2.5742,-2.5742,-2.5742,-2.5742,-2.5742,-2.5742,-2.5742,-2.5742,-2.4815,-2.3791,-2.2685,-2.1582,-2.0585,-1.948,-1.9279,-1.9279,-1.9279,-1.9279,-1.9279,-1.9279,-1.9279,-1.9199,-1.9023,-1.8701,-1.846,-1.8313,-1.7734,-1.7187,-1.684,-1.6592,-1.6211,-1.5832,-1.5832,-1.5832,-1.5832,-1.535,-1.5159,-1.5159,-1.4094,-1.3022,0.0,0.0,0.0,0.0,0.0,0.0,0.0,0.0,0.0,0.0,0.0,0.0,0.0,0.0,0.0,0.0,0.0,0.0,0.0,0.0,0.0,0.0,0.0,0.0,0.0,0.0,0.0,0.0,-2.5312,-2.5312,-2.5312,-2.5312,-2.5312,-2.5312,-2.5312,-2.5492,-2.5889,-2.5901,-2.6105,-2.6526,-2.7055,-2.7308,-2.7332,-2.7861,-2.7687,-2.699,-2.6871,-2.6329,-2.5495,-2.5231,-2.5073,-2.5073,-2.4402,-2.4573,-2.5073,-2.4402,-2.4953,-2.5969,-2.5359,-2.5776,-2.6399,-2.5011,-2.4941,-2.5228,-2.4431,-2.4336,-2.4482,-2.4814,-2.498,-2.5146,-2.5478,-2.5654,-2.5742,-2.5742,-2.5742,-2.5742,-2.5742,-2.5742,-2.5742,-2.5742,-2.4609,-2.3484,-2.2685,-2.1387,-2.0181,-1.9376,-1.9279,-1.9279,-1.9279,-1.9279,-1.9279,-1.9279,-1.9279,-1.914,-1.8818,-1.8562,-1.8357,-1.8098,-1.7632,-1.7151,-1.6835,-1.6619,-1.6305,-1.5832,-1.5832,-1.5832,-1.5832,-1.5832,-1.5832,-1.5737,-1.5064,-1.4094,0.0,0.0,0.0,0.0,0.0,0.0,0.0,0.0,0.0,0.0,0.0,0.0,0.0,0.0,0.0,0.0,0.0,0.0,0.0,0.0,0.0,0.0,0.0,0.0,0.0,0.0,0.0,0.0,-2.5312,-2.5312,-2.5312,-2.5312,-2.5312,-2.5312,-2.5312,-2.5324,-2.5348,-2.5348,-2.536,-2.5396,-2.5925,-2.6178,-2.6202,-2.6767,-2.6813,-2.6417,-2.6046,-2.5411,-2.4498,-2.3647,-2.3222,-2.3222,-2.3222,-2.3222,-2.3222,-2.3222,-2.3744,-2.4444,-2.357,-2.3851,-2.4475,-2.3513,-2.3555,-2.3908,-2.3828,-2.4102,-2.4424,-2.4443,-2.4746,-2.5068,-2.5098,-2.542,-2.5742,-2.5742,-2.5742,-2.5742,-2.5742,-2.5742,-2.5742,-2.5742,-2.4007,-2.2593,-2.2492,-2.0783,-1.9376,-1.9279,-1.9279,-1.9279,-1.9279,-1.9279,-1.9279,-1.9279,-1.9279,-1.914,-1.8818,-1.8774,-1.8404,-1.7502,-1.7437,-1.7007,-1.6259,-1.6231,-1.6123,-1.5832,-1.5832,-1.5832,-1.5832,-1.5832,-1.5832,-1.5832,-1.5737,-1.5159,0.0,0.0,0.0,0.0,0.0,0.0,0.0,0.0,0.0,0.0,0.0,0.0,0.0,0.0,0.0,0.0,0.0,0.0,0.0,0.0,0.0,0.0,0.0,0.0,0.0,0.0,0.0,0.0,0.0,-2.5312,-2.5312,-2.5312,-2.5312,-2.5312,-2.5312,-2.5312,-2.5312,-2.4975,-2.4975,-2.5312,-2.5492,-2.5769,-2.6117,-2.6683,-2.6247,-2.5092,-2.5245,-2.4965,-2.4413,-2.3474,-2.3135,-2.3135,-2.3135,-2.3135,-2.3135,-2.3135,-2.3309,-2.356,-2.3222,-2.3309,-2.356,-2.3222,-2.3242,-2.3369,-2.3369,-2.3477,-2.3652,-2.3935,-2.4131,-2.4375,-2.4922,-2.5185,-2.5381,-2.5674,-2.5742,-2.5742,-2.5742,-2.5742,-2.5528,-2.4815,-2.3493,-2.2291,-2.1582,-2.0285,-1.9279,-1.9279,-1.9279,-1.9279,-1.9279,-1.9279,-1.9199,-1.8986,-1.8964,-1.8833,-1.8503,-1.8094,-1.7779,-1.7459,-1.706,-1.6707,-1.6231,-1.6224,-1.6028,-1.5832,-1.5832,-1.5832,-1.5832,-1.5832,-1.5832,-1.5832,-1.5832,-1.5255,0.0,0.0,0.0,0.0,0.0,0.0,0.0,0.0,0.0,0.0,0.0,0.0,0.0,0.0,0.0,0.0,0.0,0.0,0.0,0.0,0.0,0.0,0.0,0.0,0.0,0.0,0.0,0.0,0.0,0.0,-2.4795,-2.4795,-2.4795,-2.4795,-2.4795,-2.4795,-2.4795,-2.4446,-2.4446,-2.4795,-2.4963,-2.5228,-2.5588,-2.6142,-2.5709,-2.4559,-2.4566,-2.4257,-2.378,-2.3337,-2.3135,-2.3135,-2.3135,-2.3135,-2.3135,-2.3135,-2.3135,-2.3135,-2.3135,-2.3135,-2.3135,-2.3135,-2.3135,-2.3135,-2.3135,-2.3135,-2.3203,-2.3486,-2.3682,-2.3926,-2.4492,-2.4853,-2.5137,-2.5439,-2.5625,-2.5742,-2.5742,-2.5742,-2.543,-2.4295,-2.3185,-2.219,-2.1081,-1.9975,-1.9279,-1.9279,-1.9279,-1.9279,-1.9279,-1.9279,-1.9191,-1.8979,-1.8855,-1.8701,-1.8482,-1.7779,-1.7391,-1.7393,-1.6819,-1.6353,-1.6273,-1.6082,-1.6021,-1.5832,-1.5832,-1.5832,-1.5832,-1.5832,-1.5832,-1.5832,-1.5832,-1.5255,0.0,0.0,0.0,0.0,0.0,0.0,0.0,0.0,0.0,0.0,0.0,0.0,0.0,0.0,0.0,0.0,0.0,0.0,0.0,0.0,0.0,0.0,0.0,0.0,0.0,0.0,0.0,0.0,-2.3773,-2.3773,-2.3773,-2.3773,-2.3773,-2.3773,-2.3773,-2.3773,-2.3773,-2.3749,-2.3749,-2.3773,-2.4266,-2.4506,-2.4542,-2.5071,-2.5134,-2.4768,-2.3951,-2.3186,-2.2519,-2.2949,-2.3125,-2.3135,-2.3135,-2.3135,-2.3135,-2.3135,-2.3135,-2.3135,-2.3135,-2.3135,-2.3135,-2.3135,-2.3135,-2.3135,-2.3135,-2.3135,-2.3135,-2.3135,-2.3447,-2.3769,-2.3789,-2.4434,-2.5088,-2.5068,-2.541,-2.5732,-2.5635,-2.5635,-2.5323,-2.4295,-2.3194,-2.2089,-2.1089,-1.9983,-1.9279,-1.9279,-1.9279,-1.9279,-1.9279,-1.9279,-1.9272,-1.9264,-1.8979,-1.8782,-1.876,-1.7894,-1.7372,-1.7456,-1.6636,-1.6252,-1.6246,-1.5979,-1.5832,-1.5832,-1.5832,-1.5832,-1.5832,-1.5832,-1.5832,-1.5832,-1.5832,-1.5255,-1.7684,0.0,0.0,0.0,0.0,0.0,0.0,0.0,0.0,0.0,0.0,0.0,0.0,0.0,0.0,0.0,0.0,0.0,0.0,0.0,0.0,0.0,0.0,0.0,0.0,0.0,0.0,0.0,-2.2989,-2.327,-2.3773,-2.3773,-2.3773,-2.3773,-2.3773,-2.3773,-2.3773,-2.3388,-2.3388,-2.3773,-2.3917,-2.4169,-2.4542,-2.5071,-2.4646,-2.3538,-2.3601,-2.3029,-2.209,-2.251,-2.2861,-2.3135,-2.3135,-2.3135,-2.3135,-2.3135,-2.3135,-2.3135,-2.3135,-2.3135,-2.3135,-2.3135,-2.3135,-2.3135,-2.3135,-2.3135,-2.3135,-2.3135,-2.3223,-2.3389,-2.3711,-2.4668,-2.5469,-2.5146,-2.541,-2.5528,-2.4707,-2.4501,-2.4196,-2.3194,-2.2089,-2.0987,-1.9879,-1.948,-1.9279,-1.9279,-1.9279,-1.9279,-1.9279,-1.9279,-1.9184,-1.895,-1.8644,-1.8304,-1.7843,-1.726,-1.6808,-1.6574,-1.6116,-1.5967,-1.5945,-1.5872,-1.5832,-1.5832,-1.5832,-1.5832,-1.5832,-1.5832,-1.5832,-1.5832,-1.5832,-1.5635,0.0,0.0,0.0,0.0,0.0,0.0,-1.8004,-1.8257,0.0,0.0,0.0,0.0,0.0,0.0,0.0,0.0,0.0,0.0,0.0,0.0,0.0,0.0,0.0,0.0,0.0,-2.195,-2.2163,-2.2467,-2.2205,-2.2217,-2.2622,-2.297,-2.3111,-2.3111,-2.3111,-2.3111,-2.3111,-2.2811,-2.2811,-2.3111,-2.334,-2.3713,-2.4218,-2.4388,-2.3936,-2.2968,-2.2886,-2.236,-2.165,-2.208,-2.2607,-2.3135,-2.3135,-2.3135,-2.3135,-2.3135,-2.3135,-2.3135,-2.3135,-2.3135,-2.3135,-2.3135,-2.3135,-2.3135,-2.3135,-2.3135,-2.3135,-2.3135,-2.3135,-2.3242,-2.3682,-2.4482,-2.5071,-2.4593,-2.4707,-2.4716,-2.3692,-2.3085,-2.2584,-2.1988,-2.1285,-2.0585,-1.948,-1.9279,-1.9279,-1.9279,-1.9279,-1.9279,-1.9279,-1.9279,-1.9206,-1.9016,-1.8557,-1.8103,-1.786,-1.6995,-1.6519,-1.6594,-1.6068,-1.5885,-1.6012,-1.5892,-1.5832,-1.5832,-1.5832,-1.5832,-1.5832,-1.5832,-1.5832,-1.5832,-1.5832,-1.5832,0.0,0.0,0.0,0.0,0.0,0.0,-1.7744,-1.7546,-1.7531,0.0,0.0,0.0,0.0,0.0,0.0,0.0,0.0,0.0,0.0,0.0,0.0,0.0,0.0,0.0,-2.1737,-2.18,-2.1862,-2.1937,-2.1526,-2.1198,-2.1198,-2.1862,-2.2197,-2.2197,-2.2197,-2.2197,-2.2197,-2.2197,-2.2197,-2.2197,-2.2727,-2.3256,-2.3785,-2.3525,-2.3232,-2.2957,-2.2134,-2.1602,-2.1338,-2.1728,-2.2353,-2.3076,-2.3125,-2.3135,-2.3135,-2.3135,-2.3135,-2.3135,-2.3135,-2.3135,-2.3135,-2.3135,-2.3135,-2.3135,-2.3135,-2.3135,-2.3135,-2.3135,-2.3174,-2.3291,-2.3633,-2.3971,-2.4121,-2.3481,-2.3605,-2.352,-2.2524,-2.1558,-2.0885,-2.079,-2.068,-2.038,-1.948,-1.9279,-1.9279,-1.9279,-1.9279,-1.9279,-1.9279,-1.9279,-1.9279,-1.9279,-1.8426,-1.7967,-1.8223,-1.7051,-1.6388,-1.6891,-1.6222,-1.5945,-1.6213,-1.5972,-1.5832,-1.5832,-1.5832,-1.5832,-1.5832,-1.5832,-1.5832,-1.5832,-1.5832,-1.5832,0.0,0.0,0.0,0.0,0.0,0.0,-1.8006,-1.789,-1.7801,0.0,0.0,0.0,0.0,0.0,0.0,0.0,0.0,0.0,0.0,0.0,0.0,0.0,0.0,0.0,-1.8865,-1.9309,-1.989,-2.0495,-2.1411,-2.1999,-2.1999,-2.2123,-2.2197,-2.2197,-2.2197,-2.2197,-2.2197,-2.2197,-2.2197,-2.2197,-2.2727,-2.3256,-2.3785,-2.3525,-2.3232,-2.2957,-2.2134,-2.1784,-2.1768,-2.1846,-2.2178,-2.2666,-2.3008,-2.3135,-2.3135,-2.3135,-2.3135,-2.3135,-2.3135,-2.3135,-2.3135,-2.3135,-2.3135,-2.3135,-2.3135,-2.3135,-2.3135,-2.3135,-2.3389,-2.3603,-2.333,-2.3276,-2.3112,-2.2677,-2.25,-2.2128,-2.1047,-2.0881,-2.0688,-1.9783,-1.9576,-1.9583,-1.9376,-1.9279,-1.9279,-1.9279,-1.9279,-1.9279,-1.9279,-1.9279,-1.9175,-1.8974,-1.8416,-1.7806,-1.7424,-1.6721,-1.6229,-1.6108,-1.5892,-1.5852,-1.5912,-1.5858,-1.5832,-1.5832,-1.5832,-1.5832,-1.5832,-1.5832,-1.5832,-1.5832,-1.5832,-1.5832,0.0,0.0,0.0,-1.9014,0.0,0.0,0.0,-1.7852,-1.7578,0.0,0.0,0.0,0.0,0.0,0.0,0.0,0.0,0.0,0.0,0.0,0.0,0.0,0.0,0.0,-1.9233,-1.9479,-1.9672,-1.9683,-2.0617,-2.1008,-2.0613,-2.1262,-2.1663,-2.1663,-2.1999,-2.2197,-2.2197,-2.2197,-2.2197,-2.2197,-2.2462,-2.2667,-2.2827,-2.2502,-2.2281,-2.202,-2.1435,-2.1192,-2.124,-2.1475,-2.1816,-2.2266,-2.2891,-2.3135,-2.3135,-2.3135,-2.3135,-2.3135,-2.3135,-2.3135,-2.3135,-2.3135,-2.3135,-2.3135,-2.3135,-2.3135,-2.3135,-2.3135,-2.3301,-2.3368,-2.2815,-2.2656,-2.2399,-2.1362,-2.1122,-2.0949,-1.9868,-1.9704,-1.9778,-1.9346,-1.9147,-1.9081,-1.925,-1.9279,-1.9279,-1.9279,-1.9175,-1.9078,-1.9078,-1.8959,-1.879,-1.8433,-1.7932,-1.7324,-1.6922,-1.642,-1.5985,-1.5838,-1.5832,-1.5832,-1.5832,-1.5832,-1.5832,-1.5832,-1.5832,-1.5832,-1.5832,-1.5832,-1.5832,-1.5832,-1.5832,-1.5832,0.0,0.0,0.0,0.0,0.0,-1.8769,0.0,0.0,0.0,0.0,0.0,0.0,0.0,0.0,0.0,0.0,0.0,0.0,0.0,0.0,0.0,0.0,0.0,0.0,0.0,-1.9812,-1.9616,-1.9068,-1.9628,-1.9695,-1.9107,-2.0235,-2.0933,-2.0933,-2.1474,-2.18,-2.18,-2.1925,-2.1987,-2.1987,-2.2123,-2.2119,-2.2042,-2.1616,-2.1336,-2.1217,-2.0785,-2.0615,-2.0723,-2.1084,-2.1543,-2.207,-2.2754,-2.3066,-2.3135,-2.3135,-2.3135,-2.3135,-2.3135,-2.3135,-2.3135,-2.3135,-2.3135,-2.3135,-2.3135,-2.3135,-2.3047,-2.2872,-2.2862,-2.2675,-2.2089,-2.1798,-2.1318,-2.0036,-1.9802,-1.9667,-1.8792,-1.8701,-1.8847,-1.9052,-1.8928,-1.8891,-1.922,-1.9279,-1.9279,-1.9279,-1.9078,-1.8869,-1.8764,-1.8485,-1.824,-1.8002,-1.7351,-1.6936,-1.6696,-1.6101,-1.5832,-1.5832,-1.5832,-1.5832,-1.5832,-1.5832,-1.5832,-1.5832,-1.5832,-1.5832,-1.5832,-1.5832,-1.5832,-1.5832,-1.5832,-1.5832,0.0,0.0,0.0,0.0,-1.9805,0.0,0.0,0.0,0.0,0.0,0.0,0.0,0.0,0.0,0.0,0.0,0.0,0.0,0.0,0.0,0.0,0.0,0.0,0.0,0.0,-1.7729,-1.8039,-1.7978,-1.8889,-1.9452,-1.9389,-1.9931,-2.0226,-2.0226,-2.0291,-2.0366,-2.0366,-2.0944,-2.1198,-2.1262,-2.1862,-2.2308,-2.2491,-2.1713,-2.1517,-2.1683,-2.0914,-2.0791,-2.1162,-2.1211,-2.1709,-2.2451,-2.2549,-2.2812,-2.3135,-2.3135,-2.3135,-2.3135,-2.3135,-2.3135,-2.3135,-2.3135,-2.3135,-2.3135,-2.3135,-2.3135,-2.296,-2.205,-2.1872,-2.1615,-2.0654,-1.9845,-1.9136,-1.8991,-1.8525,-1.8015,-1.7925,-1.8379,-1.8716,-1.846,-1.8613,-1.8891,-1.922,-1.9279,-1.9175,-1.8974,-1.8869,-1.8757,-1.8534,-1.8191,-1.7907,-1.7674,-1.7066,-1.6613,-1.6377,-1.5999,-1.5832,-1.5832,-1.5832,-1.5832,-1.5832,-1.5832,-1.5832,-1.5832,-1.5832,-1.5832,-1.5832,-1.5832,-1.5832,-1.5832,-1.5832,-1.5832,0.0,0.0,0.0,0.0,0.0,0.0,-1.9697,0.0,-1.916,0.0,0.0,0.0,0.0,0.0,0.0,0.0,-1.6943,0.0,0.0,0.0,0.0,0.0,0.0,0.0,0.0,0.0,0.0,0.0,-1.7915,-1.8253,-1.8253,-1.8816,-1.9231,-1.9431,-1.9901,-2.0096,-2.0096,-2.0355,-2.0549,-2.0549,-2.0816,-2.0837,-2.0495,-2.0435,-2.0369,-2.0336,-2.023,-2.0439,-2.084,-2.084,-2.1211,-2.1768,-2.1768,-2.2334,-2.3135,-2.3135,-2.3135,-2.3135,-2.3135,-2.3135,-2.3135,-2.3135,-2.3135,-2.3135,-2.3135,-2.2687,-2.2236,-2.1784,-2.1239,-2.0602,-1.9604,-1.9063,-1.8611,-1.8056,-1.7851,-1.7816,-1.7816,-1.8028,-1.824,-1.8291,-1.8262,-1.8229,-1.8463,-1.8673,-1.8758,-1.884,-1.8555,-1.8276,-1.7984,-1.7743,-1.7327,-1.6887,-1.6623,-1.6303,-1.6032,-1.5899,-1.5832,-1.5832,-1.5832,-1.5832,-1.5832,-1.5832,-1.5832,-1.5832,-1.5832,-1.5832,-1.5832,-1.5832,-1.5832,-1.5832,-1.5832,-1.5832,-2.0489,0.0,0.0,0.0,0.0,0.0,0.0,0.0,0.0,0.0,0.0,0.0,0.0,0.0,0.0,0.0,0.0,0.0,0.0,0.0,0.0,0.0,0.0,0.0,0.0,0.0,0.0,-1.6941,-1.7199,-1.7383,-1.7383,-1.7996,-1.8395,-1.871,-1.9253,-1.9507,-1.9507,-1.9704,-1.977,-1.977,-2.0031,-1.9768,-1.9184,-1.9637,-1.9748,-1.9482,-1.9912,-2.0273,-2.0566,-2.0566,-2.083,-2.125,-2.1367,-2.2051,-2.2969,-2.2969,-2.3047,-2.3135,-2.3135,-2.3135,-2.3135,-2.3135,-2.296,-2.2687,-2.2687,-2.205,-2.1239,-2.097,-2.0421,-1.9604,-1.8603,-1.8427,-1.8241,-1.7512,-1.7508,-1.7684,-1.7684,-1.775,-1.786,-1.7916,-1.7821,-1.7703,-1.7647,-1.7953,-1.8375,-1.8483,-1.8144,-1.7722,-1.7483,-1.7218,-1.6747,-1.6319,-1.6199,-1.6059,-1.5845,-1.5832,-1.5832,-1.5832,-1.5832,-1.5832,-1.5832,-1.5832,-1.5832,-1.5832,-1.5832,-1.5832,-1.5832,-1.5832,-1.5832,-1.5832,-1.5832,-1.5832,0.0,0.0,0.0,-2.0342,0.0,0.0,0.0,0.0,-2.04,0.0,0.0,0.0,0.0,0.0,0.0,-1.75,0.0,0.0,0.0,0.0,0.0,0.0,0.0,0.0,0.0,0.0,0.0,-1.6709,-1.7129,-1.7383,-1.7383,-1.7764,-1.7998,-1.8008,-1.8076,-1.8076,-1.8076,-1.8721,-1.9044,-1.9044,-1.977,-1.9951,-1.9658,-2.0102,-2.0121,-1.9922,-2.0352,-2.0557,-2.0566,-2.0566,-2.083,-2.1279,-2.1699,-2.2139,-2.2539,-2.2539,-2.2793,-2.3135,-2.3135,-2.3135,-2.3135,-2.3135,-2.2511,-2.1695,-2.1695,-2.1051,-2.0051,-1.9155,-1.888,-1.8611,-1.7606,-1.7326,-1.7326,-1.7333,-1.7333,-1.7347,-1.7347,-1.7589,-1.7632,-1.716,-1.7244,-1.7348,-1.7161,-1.7527,-1.7846,-1.7647,-1.7339,-1.715,-1.7217,-1.6653,-1.6293,-1.6279,-1.6012,-1.5838,-1.5832,-1.5832,-1.5832,-1.5832,-1.5832,-1.5832,-1.5832,-1.5832,-1.5832,-1.5832,-1.5832,-1.5832,-1.5832,-1.5832,-1.5832,-1.5832,-1.5832,-1.5832,0.0,0.0,-2.0108,-2.0264,0.0,0.0,0.0,0.0,0.0,0.0,0.0,0.0,0.0,0.0,0.0,0.0,0.0,0.0,0.0,0.0,0.0,0.0,0.0,0.0,0.0,0.0,0.0,-1.6665,-1.6865,-1.708,-1.7363,-1.7519,-1.7725,-1.7998,-1.8008,-1.8008,-1.8008,-1.8202,-1.8327,-1.8327,-1.8596,-1.8829,-1.8984,-1.9123,-1.9446,-1.9922,-2.0068,-2.0303,-2.0566,-2.0566,-2.083,-2.125,-2.1396,-2.1885,-2.2549,-2.2822,-2.3018,-2.3135,-2.3135,-2.3135,-2.296,-2.2413,-2.1961,-2.1606,-2.0872,-2.0059,-1.9247,-1.888,-1.8334,-1.7692,-1.7419,-1.7326,-1.7326,-1.7326,-1.7326,-1.7326,-1.7326,-1.7232,-1.7196,-1.7001,-1.6964,-1.6749,-1.6559,-1.6649,-1.6891,-1.7196,-1.6981,-1.6773,-1.658,-1.64,-1.6199,-1.5999,-1.5885,-1.5832,-1.5832,-1.5832,-1.5832,-1.5832,-1.5832,-1.5832,-1.5832,-1.5832,-1.5832,-1.5832,-1.5832,-1.5832,-1.5832,-1.5832,-1.5832,-1.5832,-1.5832,-1.5832,-1.9784,-1.9784,0.0,-2.0029,-2.0186,0.0,-2.0333,0.0,0.0,0.0,0.0,0.0,0.0,0.0,0.0,0.0,-1.8232,0.0,0.0,-1.8008,-1.8008,0.0,0.0,0.0,0.0,0.0,-1.7187,-1.7187,-1.7187,-1.7305,0.0,0.0,-1.7734,-1.7998,-1.8008,-1.8008,-1.8008,-1.8008,-1.8008,-1.8008,-1.8008,-1.8232,-1.8643,-1.8799,-1.9248,-1.9922,-2.0078,-2.0303,-2.0576,-2.0732,-2.0977,-2.126,-2.1572,-2.2021,-2.2549,-2.2812,-2.3008,-2.3135,-2.3135,-2.2872,-2.2511,-2.1872,-2.1239,-2.0512,-1.9877,-1.9063,-1.8265,-1.8388,-1.7875,-1.7355,-1.7472,-1.7413,-1.7326,-1.7326,-1.7326,-1.7326,-1.7326,-1.716,-1.6979,-1.6878,-1.6595,-1.6407,-1.6123,-1.6028,-1.619,-1.6783,-1.6565,-1.6366,-1.6286,-1.6179,-1.6039,-1.5852,-1.5832,-1.5832,-1.5832,-1.5832,-1.5832,-1.5832,-1.5832,-1.5832,-1.5832,-1.5832,-1.5925,-1.6139,-1.5932,-1.5932,-1.6139,-1.5932,-1.5832,-1.5832,-1.5832,-1.5832]},{"header":{"parameterUnit":"m.s-1","parameterCategory":1,"la1":30.6,"la2":29.2853,"lo1":-89.7004,"lo2":-87.6739,"dy":0.0162,"dx":0.0183,"nx":112,"ny":82,"refTime":"2023-06-27T06:00:00:Z","depth":0,"parameterNumber":3,"parameterNumberName":"V-component_of_WINDS"},"data":[0.0,0.0,0.0,0.0,0.0,0.0,0.0,0.0,0.0,0.0,0.0,0.0,0.0,0.0,0.0,0.0,0.0,0.0,0.0,0.0,0.0,0.0,0.0,0.0,0.0,0.0,0.0,0.0,0.0,0.0,0.0,0.0,0.0,0.0,0.0,0.0,0.0,0.0,0.0,0.0,0.0,0.0,0.0,0.0,0.0,0.0,0.0,0.0,0.0,0.0,0.0,0.0,0.0,0.0,0.0,0.0,0.0,0.0,0.0,0.0,0.0,0.0,0.0,0.0,0.0,0.0,0.0,0.0,0.0,0.0,0.0,0.0,0.0,0.0,0.0,0.0,0.0,0.0,0.0,0.0,0.0,0.0,0.0,0.0,0.0,0.0,0.0,0.0,0.0,0.0,0.0,-1.9619,-2.3608,-2.585,-2.5229,-2.5419,-2.416,-2.0791,0.0,0.0,0.0,0.0,0.0,0.0,0.0,0.0,0.0,0.0,0.0,0.0,0.0,0.0,0.0,0.0,0.0,0.0,0.0,0.0,0.0,0.0,0.0,0.0,0.0,0.0,0.0,0.0,0.0,0.0,0.0,0.0,0.0,0.0,0.0,0.0,0.0,0.0,0.0,0.0,0.0,0.0,0.0,0.0,0.0,0.0,0.0,0.0,0.0,0.0,0.0,0.0,0.0,0.0,0.0,0.0,0.0,0.0,0.0,0.0,0.0,0.0,0.0,0.0,0.0,0.0,0.0,0.0,0.0,0.0,0.0,0.0,0.0,0.0,0.0,0.0,0.0,0.0,0.0,0.0,0.0,0.0,0.0,0.0,0.0,0.0,0.0,0.0,0.0,0.0,0.0,0.0,0.0,0.0,0.0,0.0,0.0,0.0,0.0,0.0,0.0,0.0,0.0,0.0,-1.9068,-2.1876,-2.454,-2.6057,-2.5954,-2.4281,-2.2712,-2.1505,0.0,0.0,0.0,0.0,0.0,0.0,0.0,0.0,0.0,0.0,0.0,0.0,0.0,0.0,0.0,0.0,0.0,0.0,0.0,0.0,0.0,0.0,0.0,0.0,0.0,0.0,0.0,0.0,0.0,0.0,0.0,0.0,0.0,0.0,0.0,0.0,0.0,0.0,0.0,0.0,0.0,0.0,0.0,0.0,0.0,0.0,0.0,0.0,0.0,0.0,0.0,0.0,0.0,0.0,0.0,0.0,0.0,0.0,0.0,0.0,0.0,0.0,0.0,0.0,0.0,0.0,0.0,0.0,0.0,0.0,0.0,0.0,0.0,0.0,0.0,0.0,0.0,0.0,0.0,0.0,0.0,0.0,0.0,0.0,0.0,0.0,0.0,0.0,0.0,0.0,0.0,0.0,0.0,0.0,0.0,0.0,0.0,0.0,0.0,0.0,0.0,0.0,0.0,-1.8551,-1.9792,-2.2436,-2.3977,-2.4838,-2.4838,-2.3177,-2.1633,-2.0529,-2.039,0.0,0.0,0.0,0.0,0.0,0.0,0.0,0.0,0.0,0.0,0.0,0.0,0.0,0.0,0.0,0.0,0.0,0.0,0.0,0.0,0.0,0.0,0.0,0.0,0.0,0.0,0.0,0.0,0.0,0.0,0.0,0.0,0.0,0.0,0.0,0.0,0.0,0.0,0.0,0.0,0.0,0.0,0.0,0.0,0.0,0.0,0.0,0.0,0.0,0.0,0.0,0.0,0.0,0.0,0.0,0.0,0.0,0.0,0.0,0.0,0.0,0.0,0.0,0.0,0.0,0.0,0.0,0.0,0.0,0.0,0.0,0.0,0.0,0.0,0.0,0.0,0.0,0.0,0.0,0.0,0.0,0.0,0.0,0.0,0.0,0.0,0.0,0.0,0.0,0.0,0.0,0.0,0.0,0.0,0.0,0.0,0.0,0.0,0.0,0.0,0.0,0.0,-1.9137,-1.9895,-2.2212,-2.3081,-2.346,-2.3315,-2.1918,-2.0604,-1.956,-1.9078,0.0,0.0,0.0,0.0,0.0,0.0,0.0,0.0,0.0,0.0,0.0,0.0,0.0,0.0,0.0,0.0,0.0,0.0,0.0,0.0,0.0,0.0,0.0,0.0,0.0,0.0,0.0,0.0,0.0,0.0,0.0,0.0,0.0,0.0,0.0,0.0,0.0,0.0,0.0,0.0,0.0,0.0,0.0,0.0,0.0,0.0,0.0,0.0,0.0,0.0,0.0,0.0,0.0,0.0,0.0,0.0,0.0,0.0,0.0,0.0,0.0,0.0,0.0,0.0,0.0,0.0,0.0,0.0,0.0,0.0,0.0,0.0,0.0,0.0,0.0,0.0,0.0,0.0,0.0,0.0,0.0,0.0,0.0,0.0,0.0,0.0,0.0,0.0,0.0,0.0,0.0,0.0,0.0,0.0,0.0,0.0,0.0,0.0,0.0,0.0,0.0,0.0,-1.8689,-1.9159,-2.1436,-2.235,-2.2505,-2.1815,-2.0343,-1.948,-1.9491,-1.8198,0.0,0.0,0.0,0.0,0.0,0.0,0.0,0.0,0.0,0.0,0.0,0.0,0.0,0.0,0.0,0.0,0.0,0.0,0.0,0.0,0.0,0.0,0.0,0.0,0.0,0.0,0.0,0.0,0.0,0.0,0.0,0.0,0.0,0.0,0.0,0.0,0.0,0.0,0.0,0.0,0.0,0.0,0.0,0.0,0.0,0.0,0.0,0.0,0.0,0.0,0.0,0.0,0.0,0.0,0.0,0.0,0.0,0.0,0.0,0.0,0.0,0.0,0.0,0.0,0.0,0.0,0.0,0.0,0.0,0.0,0.0,0.0,0.0,0.0,0.0,0.0,0.0,0.0,0.0,0.0,0.0,0.0,0.0,0.0,0.0,0.0,0.0,0.0,0.0,0.0,0.0,0.0,0.0,0.0,0.0,0.0,0.0,0.0,0.0,0.0,0.0,0.0,-1.9326,-1.9568,0.0,-2.098,-2.0636,-2.0825,-1.9016,-1.8153,-1.8828,0.0,0.0,0.0,0.0,0.0,0.0,0.0,0.0,0.0,0.0,0.0,0.0,0.0,0.0,0.0,0.0,0.0,0.0,0.0,0.0,0.0,0.0,0.0,0.0,0.0,0.0,0.0,0.0,0.0,0.0,0.0,0.0,0.0,0.0,0.0,0.0,0.0,0.0,0.0,0.0,0.0,0.0,0.0,0.0,0.0,0.0,0.0,0.0,0.0,0.0,0.0,0.0,0.0,0.0,0.0,0.0,0.0,0.0,0.0,0.0,0.0,0.0,0.0,0.0,0.0,0.0,0.0,0.0,0.0,0.0,0.0,0.0,0.0,0.0,0.0,0.0,0.0,0.0,0.0,0.0,0.0,0.0,0.0,0.0,0.0,0.0,0.0,0.0,0.0,0.0,0.0,0.0,0.0,0.0,0.0,0.0,0.0,0.0,0.0,0.0,0.0,0.0,-2.0274,-1.9326,-1.9154,0.0,-1.9728,-1.9051,-1.9309,-1.769,-1.7045,-1.8043,0.0,0.0,0.0,0.0,0.0,0.0,0.0,0.0,0.0,0.0,0.0,0.0,0.0,0.0,0.0,0.0,0.0,0.0,0.0,0.0,0.0,0.0,0.0,0.0,0.0,0.0,0.0,0.0,0.0,0.0,0.0,0.0,0.0,0.0,0.0,0.0,0.0,0.0,0.0,0.0,0.0,0.0,0.0,0.0,0.0,0.0,0.0,0.0,0.0,0.0,0.0,0.0,0.0,0.0,0.0,0.0,0.0,0.0,0.0,0.0,0.0,0.0,0.0,0.0,0.0,0.0,0.0,0.0,0.0,0.0,0.0,0.0,0.0,0.0,0.0,0.0,0.0,0.0,0.0,0.0,0.0,0.0,0.0,0.0,0.0,0.0,0.0,0.0,0.0,0.0,0.0,0.0,0.0,0.0,0.0,0.0,0.0,0.0,0.0,0.0,0.0,0.0,-2.0222,-1.8431,-1.7604,-1.9137,-1.8637,-1.7862,-1.707,-1.6329,-1.6265,0.0,0.0,0.0,0.0,0.0,0.0,0.0,0.0,0.0,0.0,0.0,0.0,0.0,0.0,0.0,0.0,0.0,0.0,0.0,0.0,0.0,0.0,0.0,0.0,0.0,0.0,0.0,0.0,0.0,0.0,0.0,0.0,0.0,0.0,0.0,0.0,0.0,0.0,0.0,0.0,0.0,0.0,0.0,0.0,0.0,0.0,0.0,0.0,0.0,0.0,0.0,0.0,0.0,0.0,0.0,0.0,0.0,0.0,0.0,0.0,0.0,0.0,0.0,0.0,0.0,0.0,0.0,0.0,0.0,0.0,0.0,0.0,0.0,0.0,0.0,0.0,0.0,0.0,0.0,0.0,0.0,0.0,0.0,0.0,0.0,0.0,0.0,0.0,0.0,0.0,0.0,0.0,0.0,0.0,0.0,0.0,0.0,0.0,0.0,0.0,0.0,0.0,0.0,-2.1101,-1.9258,-1.8207,-1.9189,-1.8637,-1.7862,-1.707,-1.6329,-1.6302,-1.7219,0.0,0.0,0.0,0.0,0.0,0.0,0.0,0.0,0.0,0.0,0.0,0.0,0.0,0.0,0.0,0.0,0.0,0.0,0.0,0.0,0.0,0.0,0.0,0.0,0.0,0.0,0.0,0.0,0.0,0.0,0.0,0.0,0.0,0.0,0.0,0.0,0.0,0.0,0.0,0.0,0.0,0.0,0.0,0.0,0.0,0.0,0.0,0.0,0.0,0.0,0.0,0.0,0.0,0.0,0.0,0.0,0.0,0.0,0.0,0.0,0.0,0.0,0.0,0.0,0.0,0.0,0.0,0.0,0.0,0.0,0.0,0.0,0.0,0.0,0.0,0.0,0.0,0.0,0.0,0.0,0.0,0.0,0.0,0.0,0.0,0.0,0.0,0.0,0.0,0.0,0.0,0.0,0.0,0.0,0.0,0.0,0.0,0.0,0.0,0.0,0.0,0.0,-2.1236,-1.9727,-1.8689,-1.8844,-1.8448,-1.7759,-1.6657,-1.6157,-1.6024,-1.629,0.0,0.0,0.0,0.0,0.0,0.0,0.0,0.0,0.0,0.0,0.0,0.0,0.0,0.0,0.0,0.0,0.0,0.0,0.0,0.0,0.0,0.0,0.0,0.0,0.0,0.0,0.0,0.0,0.0,0.0,0.0,0.0,0.0,0.0,0.0,0.0,0.0,0.0,0.0,0.0,0.0,0.0,0.0,0.0,0.0,0.0,0.0,0.0,0.0,0.0,0.0,0.0,0.0,0.0,0.0,0.0,0.0,0.0,0.0,0.0,0.0,0.0,0.0,0.0,0.0,0.0,0.0,0.0,0.0,0.0,0.0,0.0,0.0,0.0,0.0,0.0,0.0,0.0,0.0,0.0,0.0,0.0,0.0,0.0,0.0,0.0,0.0,0.0,0.0,0.0,0.0,0.0,0.0,0.0,0.0,0.0,0.0,0.0,0.0,0.0,0.0,0.0,-2.0833,-1.9921,-1.9016,-1.8297,-1.8211,-1.7587,-1.6123,-1.5933,-1.5624,-1.4986,0.0,0.0,0.0,0.0,0.0,0.0,0.0,0.0,0.0,0.0,0.0,0.0,0.0,0.0,0.0,0.0,0.0,0.0,0.0,0.0,0.0,0.0,0.0,0.0,0.0,0.0,0.0,0.0,0.0,0.0,0.0,0.0,0.0,0.0,0.0,0.0,0.0,0.0,0.0,0.0,0.0,0.0,0.0,0.0,0.0,0.0,0.0,0.0,0.0,0.0,0.0,0.0,0.0,0.0,0.0,0.0,0.0,0.0,0.0,0.0,-1.9142,0.0,0.0,0.0,0.0,0.0,0.0,0.0,0.0,0.0,0.0,0.0,0.0,0.0,0.0,0.0,0.0,0.0,0.0,0.0,0.0,0.0,0.0,0.0,0.0,0.0,0.0,0.0,0.0,0.0,0.0,0.0,0.0,0.0,0.0,0.0,0.0,0.0,0.0,0.0,0.0,0.0,-2.0668,-1.9786,-1.9016,-1.8297,-1.8211,-1.7811,-1.6846,-1.6226,-1.5922,-1.599,-1.5563,0.0,0.0,0.0,0.0,0.0,0.0,0.0,0.0,0.0,0.0,0.0,0.0,0.0,0.0,0.0,0.0,0.0,0.0,0.0,0.0,0.0,0.0,0.0,0.0,0.0,0.0,0.0,0.0,0.0,0.0,0.0,0.0,0.0,0.0,0.0,0.0,0.0,0.0,0.0,0.0,0.0,0.0,0.0,0.0,0.0,0.0,0.0,0.0,0.0,0.0,0.0,0.0,0.0,0.0,0.0,0.0,0.0,0.0,0.0,0.0,-2.0425,0.0,0.0,0.0,0.0,0.0,0.0,0.0,0.0,0.0,0.0,0.0,0.0,0.0,0.0,0.0,0.0,0.0,0.0,0.0,0.0,0.0,0.0,0.0,0.0,0.0,0.0,0.0,0.0,0.0,0.0,0.0,0.0,0.0,0.0,0.0,0.0,0.0,0.0,0.0,0.0,-2.1515,-2.0147,-1.9016,-1.8297,-1.8211,-1.7862,-1.707,-1.6657,-1.6353,-1.6116,-1.6201,0.0,0.0,0.0,0.0,0.0,0.0,0.0,0.0,0.0,0.0,0.0,0.0,0.0,0.0,0.0,0.0,0.0,0.0,0.0,0.0,0.0,0.0,0.0,0.0,0.0,0.0,0.0,0.0,0.0,0.0,0.0,0.0,0.0,0.0,0.0,0.0,0.0,0.0,0.0,0.0,0.0,0.0,0.0,0.0,0.0,0.0,0.0,0.0,0.0,0.0,0.0,0.0,0.0,-2.5328,-2.5873,-2.6164,-2.644,-2.6654,-2.6613,-2.406,-2.2587,-2.2074,-2.2444,0.0,0.0,0.0,0.0,0.0,0.0,0.0,0.0,0.0,0.0,0.0,0.0,0.0,0.0,0.0,0.0,0.0,0.0,0.0,0.0,0.0,0.0,0.0,0.0,-2.5078,-2.518,0.0,0.0,0.0,0.0,0.0,0.0,0.0,0.0,0.0,0.0,0.0,0.0,-2.238,-2.0875,-1.9499,-1.8482,-1.8379,-1.8069,-1.7277,-1.711,-1.6803,-1.6234,-1.6906,-1.7538,0.0,0.0,0.0,0.0,0.0,0.0,0.0,0.0,0.0,0.0,0.0,0.0,0.0,0.0,0.0,0.0,0.0,0.0,0.0,0.0,0.0,0.0,0.0,0.0,0.0,0.0,0.0,0.0,0.0,0.0,0.0,0.0,-1.9768,-2.0482,0.0,0.0,0.0,0.0,0.0,0.0,0.0,0.0,0.0,0.0,0.0,0.0,0.0,-2.6304,-2.6771,-2.7015,-2.7061,-2.676,-2.7209,-2.757,-2.7974,-2.8041,-2.8647,-2.9737,-2.8892,0.0,-2.4476,-2.4049,0.0,0.0,0.0,0.0,0.0,0.0,0.0,0.0,0.0,0.0,0.0,0.0,0.0,0.0,0.0,0.0,0.0,0.0,0.0,0.0,0.0,0.0,-2.4805,-2.46,-2.531,-2.5947,0.0,-2.5456,-2.5725,-2.6554,-2.5584,0.0,0.0,0.0,0.0,0.0,0.0,0.0,-2.2086,-2.2038,-2.147,-1.9378,-1.9137,-1.8844,-1.8103,-1.7559,-1.7275,-1.7276,-1.6976,-1.7485,-1.9023,-1.9069,0.0,0.0,0.0,0.0,0.0,0.0,0.0,0.0,0.0,0.0,0.0,0.0,0.0,0.0,0.0,0.0,0.0,0.0,0.0,0.0,0.0,0.0,0.0,0.0,0.0,0.0,0.0,0.0,0.0,-2.0795,-2.1907,-2.1204,-2.2661,-2.3477,0.0,0.0,0.0,0.0,0.0,0.0,0.0,0.0,0.0,-2.7663,-2.8015,-2.8496,-2.904,-2.956,-2.9861,-2.9934,-3.047,-3.1085,-3.1628,-3.1771,-3.227,-3.3079,-3.283,-3.1593,-2.9476,-2.7116,-2.5936,-2.5542,0.0,0.0,0.0,0.0,-2.4981,-2.5437,-2.5725,-2.6436,0.0,-2.6824,0.0,0.0,0.0,0.0,0.0,0.0,0.0,0.0,0.0,0.0,-2.655,-2.6651,-2.7241,-2.775,-2.7536,-2.7165,-2.6708,0.0,-2.5639,-2.5615,-2.6963,0.0,0.0,0.0,0.0,-2.57,-2.3815,-2.3307,-2.2611,-2.1194,-2.0647,-2.0044,-1.9266,-1.8551,-1.8164,-1.8235,-1.8084,-1.8556,-1.9802,-2.0005,-2.047,0.0,0.0,0.0,0.0,0.0,0.0,0.0,0.0,0.0,0.0,0.0,0.0,0.0,0.0,0.0,0.0,0.0,0.0,0.0,0.0,0.0,0.0,0.0,0.0,0.0,0.0,0.0,0.0,-2.2377,-2.3427,-2.1882,-2.3916,-2.4958,0.0,0.0,0.0,0.0,0.0,0.0,-2.7256,-2.7959,-2.885,-2.9955,-3.0294,-3.0691,-3.1153,-3.1786,-3.2052,-3.2156,-3.2997,-3.3658,-3.4249,-3.4647,-3.5178,-3.5691,-3.5536,-3.4871,-3.3747,-3.0193,-2.8352,-2.7678,-2.6905,-2.6427,-2.6202,-2.6497,-2.693,-2.7451,-2.8165,-2.9024,-2.966,-2.8744,-2.8181,-2.7565,-2.5672,0.0,0.0,0.0,0.0,-2.6707,-2.7241,-2.7927,-2.8576,-2.9118,-2.9537,-2.977,-2.9583,-2.8941,-2.796,0.0,-2.5862,-2.5895,-2.6757,0.0,0.0,0.0,0.0,-2.6321,-2.5398,-2.4769,-2.4027,-2.3088,-2.2085,-2.1151,-2.0382,-1.9416,-1.8843,-1.8843,-1.918,-1.9771,-2.0661,-2.1018,-2.1487,-2.211,0.0,0.0,0.0,0.0,0.0,0.0,0.0,0.0,0.0,0.0,0.0,0.0,0.0,0.0,0.0,0.0,0.0,0.0,0.0,0.0,0.0,0.0,0.0,0.0,0.0,0.0,0.0,0.0,0.0,-2.241,-2.5172,0.0,0.0,0.0,0.0,-2.7067,-2.762,-2.8436,-2.9566,-3.062,-3.17,-3.283,-3.3134,-3.3415,-3.3801,-3.3576,-3.3186,-3.2454,-3.3392,-3.3941,-3.4306,-3.521,-3.6108,-3.6866,-3.6276,-3.5981,-3.5686,-3.2581,-3.0923,-3.0221,-2.9012,-2.8886,-2.9307,-2.8759,-2.8774,-2.9087,-2.9093,-2.9287,-2.9786,-3.0838,-3.0335,-2.9058,-2.7657,-2.6811,0.0,0.0,-2.6673,-2.7205,-2.7973,-2.9264,-3.0643,-3.1366,-3.1842,-3.1918,-3.1241,-3.0514,-2.955,0.0,-2.6573,-2.5895,-2.6757,0.0,-2.6288,-2.6324,-2.7219,-2.7379,-2.5954,-2.6397,-2.6244,-2.4735,-2.3173,-2.1938,-2.1207,-1.9813,-1.8998,-1.8998,-1.9892,-2.0814,-2.1694,-2.2483,-2.2923,-2.303,-2.303,0.0,0.0,0.0,0.0,0.0,0.0,0.0,0.0,0.0,0.0,0.0,0.0,0.0,0.0,0.0,0.0,0.0,0.0,0.0,0.0,0.0,0.0,0.0,0.0,0.0,0.0,0.0,0.0,-2.6578,-2.8863,0.0,-2.8674,-2.8586,-2.8976,-2.9854,-3.0432,-3.1399,-3.288,-3.3658,-3.4575,-3.568,-3.5612,-3.5717,-3.5821,-3.5355,-3.4811,-3.429,-3.4991,-3.5582,-3.5979,-3.6941,-3.7469,-3.7569,-3.7344,-3.7021,-3.6543,-3.5054,-3.3831,-3.2792,-3.1555,-3.0979,-3.0797,-3.0572,-3.1017,-3.1626,-3.1602,-3.2406,-3.3184,-3.182,-3.0489,-2.9243,-2.8319,-2.8181,-2.8334,-2.8334,-2.8773,-2.9435,-3.035,-3.0664,-3.0937,-3.1859,-3.1837,-3.1512,-3.1258,-3.0987,-3.0497,-2.9499,-2.8467,-2.7706,-2.7521,-2.755,-2.7289,-2.6303,-2.7174,-2.7619,-2.681,-2.7453,-2.7644,-2.6795,-2.5725,-2.432,-2.2499,-2.1406,-2.0564,-1.9999,-2.0287,-2.1108,-2.252,-2.285,-2.3254,-2.3805,-2.3805,-2.3694,0.0,0.0,0.0,0.0,0.0,0.0,0.0,0.0,0.0,0.0,0.0,0.0,0.0,0.0,0.0,0.0,0.0,0.0,0.0,0.0,0.0,0.0,0.0,0.0,0.0,0.0,-2.9352,-2.9716,-3.1876,-3.2905,-3.1825,-3.1562,-3.1825,-3.2729,-3.3307,-3.4198,-3.5479,-3.6069,-3.6709,-3.7437,-3.7267,-3.707,-3.6773,-3.6493,-3.5844,-3.4956,-3.6031,-3.6546,-3.6619,-3.7944,-3.827,-3.7906,-3.7906,-3.7555,-3.695,-3.6543,-3.5897,-3.504,-3.3817,-3.3087,-3.2707,-3.2497,-3.2844,-3.3434,-3.3618,-3.4465,-3.5183,-3.3367,-3.1705,-3.0335,-2.9889,-2.975,-2.975,-2.975,-3.016,-3.0838,-3.1773,-3.1915,-3.1991,-3.2921,-3.2521,-3.2002,-3.2256,-3.1918,-3.1495,-3.1258,-3.0209,-2.911,-2.8349,-2.8305,-2.8107,-2.7333,-2.7577,-2.7875,-2.7975,-2.819,-2.8301,-2.8201,-2.7149,-2.5737,-2.3969,-2.307,-2.2134,-2.1015,-2.1455,-2.2134,-2.2978,-2.3272,-2.3658,-2.4229,-2.3713,-2.4044,-2.5208,0.0,0.0,0.0,0.0,0.0,0.0,0.0,0.0,0.0,0.0,0.0,0.0,0.0,0.0,0.0,0.0,0.0,0.0,0.0,0.0,0.0,0.0,0.0,-2.6584,-2.9402,-3.1486,-3.1562,-3.3997,-3.5253,-3.4186,-3.4562,-3.5102,-3.5655,-3.6207,-3.6747,-3.7262,-3.7776,-3.8052,-3.8052,-3.8052,-3.769,-3.6835,-3.681,-3.5987,-3.4469,-3.6315,-3.6809,-3.6197,-3.8131,-3.8566,-3.7962,-3.7934,-3.7583,-3.7021,-3.6993,-3.6978,-3.6866,-3.5733,-3.5254,-3.5156,-3.4464,-3.4225,-3.4327,-3.4777,-3.5202,-3.5507,-3.5491,-3.4121,-3.249,-3.2459,-3.1551,-3.052,-3.052,-3.0818,-3.1315,-3.206,-3.2935,-3.3859,-3.457,-3.4086,-3.3609,-3.4303,-3.3322,-3.2544,-3.3271,-3.1664,-2.9939,-2.9178,-2.8664,-2.856,-2.9265,-2.8481,0.0,-2.9321,-2.8602,-2.8273,-2.8929,-2.7378,-2.6077,-2.5493,-2.4685,-2.3547,-2.1986,-2.3309,-2.3823,-2.307,-2.3786,-2.4228,-2.4303,-2.2856,-2.2906,-2.4574,0.0,0.0,0.0,0.0,0.0,0.0,0.0,0.0,0.0,0.0,0.0,0.0,0.0,0.0,0.0,0.0,0.0,0.0,0.0,0.0,0.0,0.0,-2.9289,-2.9453,-3.1625,-3.3809,-3.5403,-3.7349,-3.8429,-3.8128,-3.8241,-3.8555,-3.9107,-3.8931,-3.9032,-3.9572,-3.9358,-3.9233,-3.9233,-3.9233,-3.8956,-3.8304,-3.768,-3.6838,-3.588,-3.7296,-3.774,-3.7415,-3.9298,-3.9859,-3.924,-3.8791,-3.8243,-3.7611,-3.7161,-3.6978,-3.6908,-3.6121,-3.562,-3.5156,-3.4464,-3.4426,-3.4791,-3.5279,-3.5837,-3.6138,-3.5645,-3.5091,-3.4552,-3.4044,-3.329,-3.2582,-3.2582,-3.2322,-3.2182,-3.2777,-3.3042,-3.3288,-3.3879,-3.3701,-3.3457,-3.366,-3.3389,-3.3169,-3.3372,-3.2476,-3.1444,-3.0717,-3.0031,-2.9306,-2.8388,-2.8066,0.0,-2.8298,-2.8152,-2.8273,-2.8929,-2.8544,-2.7698,-2.6392,-2.5529,-2.4612,-2.3602,-2.3419,-2.3492,-2.3859,-2.408,-2.4228,-2.4247,-2.4432,-2.5079,0.0,0.0,0.0,0.0,0.0,0.0,0.0,0.0,0.0,0.0,0.0,0.0,0.0,0.0,0.0,0.0,0.0,0.0,0.0,0.0,0.0,0.0,-3.0871,-3.2579,-3.3269,-3.4474,-3.5931,-3.7676,-3.8956,-3.9697,-3.9697,-3.9898,-4.0074,-4.0162,-4.0086,-4.0074,-4.0174,-3.9873,-3.9697,-3.9697,-3.9697,-3.9421,-3.8653,-3.8604,-3.8038,-3.6895,-3.8398,-3.893,-3.8419,-3.9968,-4.0364,-3.9746,-3.9128,-3.8496,-3.785,-3.7245,-3.6978,0.0,0.0,0.0,0.0,0.0,-3.4737,-3.4942,-3.5285,-3.5879,-3.643,-3.6045,-3.5707,-3.5414,-3.5014,-3.4398,-3.386,-3.386,-3.3352,-3.2931,-3.3599,-3.355,-3.3518,-3.4104,-3.4039,-3.3947,-3.4269,-3.4083,-3.3947,-3.4269,-3.3728,0.0,-3.2239,-3.1004,-2.9905,-2.933,-2.874,-2.8562,-2.898,-2.8556,-2.849,-2.9185,-2.87,-2.8004,-2.7181,-2.6667,0.0,0.0,0.0,-2.4428,-2.4208,-2.419,0.0,0.0,0.0,-2.5967,-2.6782,0.0,0.0,0.0,-2.6934,-2.7511,0.0,0.0,0.0,0.0,0.0,0.0,0.0,0.0,0.0,0.0,0.0,0.0,0.0,0.0,0.0,0.0,-3.3571,-3.5504,-3.7224,-3.7462,-3.7839,-3.8843,-3.9446,-3.981,-3.9873,-4.0375,-4.0501,-4.0011,-4.0375,-4.0375,-3.9823,0.0,0.0,0.0,0.0,-3.9228,-3.8512,-3.927,-3.9005,-3.7635,-3.944,-3.9918,-3.9197,-4.0229,-4.0407,-3.9859,-3.924,-3.8608,-3.7962,-3.7344,-3.7049,-3.6978,-3.6908,-3.6838,-3.6641,-3.555,-3.5051,-3.4876,-3.4942,0.0,0.0,-3.6492,-3.6091,-3.5599,-3.5599,-3.5122,-3.4583,-3.4583,-3.4075,-3.366,-3.4214,-3.4281,-3.4341,-3.4778,-3.4833,-3.4912,-3.5504,-3.5098,-3.481,-3.5487,-3.5013,-3.4286,-3.3643,-3.1765,-3.0514,-3.1004,-2.9956,-2.9462,-3.0386,-2.9329,-2.8759,-2.9511,0.0,0.0,-2.772,-2.7787,-2.7145,-2.5642,-2.6209,-2.597,-2.452,-2.4467,-2.4817,-2.561,-2.5688,-2.6114,-2.693,-2.6988,-2.7027,-2.7083,-2.8477,-2.8756,0.0,0.0,0.0,0.0,0.0,0.0,0.0,0.0,0.0,0.0,0.0,0.0,0.0,0.0,0.0,-3.4236,-3.5479,-3.6784,-3.8906,-3.9207,-3.9295,-3.9509,-4.0023,-4.0538,-4.0978,-4.1517,-4.1794,-4.1681,-4.1367,-4.094,-4.0388,-3.9936,-3.9581,-3.9374,-3.9374,-3.9312,-3.9096,-3.8429,-3.8151,-3.8472,0.0,0.0,-3.9197,-4.0229,-4.0631,-4.0491,-3.9873,-3.9255,-3.8636,-3.799,-3.7428,-3.6936,-3.6431,-3.5953,-3.5494,-3.5139,-3.4994,-3.4942,-3.5415,-3.5943,-3.6492,-3.6492,-3.6399,-3.6307,-3.6307,-3.583,0.0,-3.5291,-3.4799,-3.4168,-3.3721,-3.4683,-3.5509,-3.4473,-3.528,-3.6214,-3.5723,-3.5504,-3.5453,-3.5588,-3.5013,-3.4438,-3.4303,-3.2933,-3.1512,-3.048,-3.0074,-2.987,-2.9867,-2.9034,-2.8652,-2.9287,-2.8676,-2.8019,-2.7501,-2.7675,-2.7383,-2.6429,-2.6521,-2.6465,-2.6153,-2.6135,-2.6209,-2.6395,-2.6395,-2.6843,-2.7758,-2.7779,-2.782,-2.7844,-2.7529,-2.7641,0.0,0.0,0.0,0.0,0.0,0.0,0.0,0.0,0.0,0.0,0.0,-2.9842,0.0,0.0,-3.4625,-3.6847,-3.7902,-3.873,-3.9572,-3.9697,-3.9697,-3.9697,-3.9936,-4.0212,-4.0488,-4.1015,-4.1216,-4.094,-4.0927,-4.0689,-4.0136,-3.9848,-3.9594,-3.9478,-3.9374,-3.9258,-3.905,-3.8641,-3.8662,-3.9026,-3.9282,-3.9522,-3.9954,-4.0502,-4.0702,-4.0674,-4.0041,-3.9437,-3.8791,-3.7835,-3.7259,-3.695,-3.6655,-3.5967,-3.5184,-3.5137,-3.5045,-3.4957,-3.5219,-3.5816,-3.6492,-3.6492,-3.6492,-3.6492,-3.6492,-3.6261,-3.5984,-3.5984,-3.5507,-3.4968,-3.4953,-3.5357,-3.5716,-3.563,-3.6272,-3.6762,-3.6303,-3.6197,-3.6079,-3.569,-3.5318,-3.4928,-3.4556,-3.388,-3.2882,-3.141,-3.0886,-3.0611,-3.0463,-2.9885,-2.9622,-3.0015,-2.8905,-2.8255,-2.8525,-2.8085,-2.7457,-2.6649,-2.6227,-2.6172,-2.6594,-2.5841,-2.5786,-2.6594,-2.6229,-2.6493,-2.7348,-2.7389,-2.7411,-2.7434,-2.7083,-2.7382,0.0,0.0,0.0,0.0,0.0,0.0,0.0,0.0,-2.875,-2.9967,-3.1436,-3.3131,-3.5165,-3.6609,-3.7877,-3.9007,-3.9848,-4.0199,-3.976,-3.9697,-3.9647,-3.9546,-3.9634,-3.9735,-3.9848,-4.0262,-4.0337,-3.9885,-4.0262,-4.0275,-3.9722,-3.9697,-3.9581,-3.9478,-3.9258,-3.905,-3.8736,-3.888,-3.921,-3.9507,-3.993,-4.0261,-4.0702,-4.0702,-4.0702,-4.0659,-3.9929,-3.9325,-3.8777,-3.7512,-3.6978,-3.6978,-3.6978,-3.6304,-3.5409,-3.5469,-3.5366,-3.5067,-3.52,-3.5793,-3.6492,-3.6492,-3.6492,-3.6492,-3.6492,-3.6492,-3.6492,-3.6492,-3.6107,-3.5768,-3.6184,-3.6032,-3.5918,-3.6819,-3.7081,-3.7203,-3.705,-3.6992,-3.6806,-3.618,-3.5943,-3.5656,-3.5047,-3.4692,-3.3981,-3.2493,-3.1782,-3.141,-3.145,-3.0905,-3.0592,-3.0888,-2.9372,-2.8734,-2.9725,-2.8565,-2.7585,-2.7108,-2.6465,-2.6319,-2.6814,-2.5585,-2.5438,-2.6594,-2.6011,-2.6033,-2.6698,-2.6742,-2.6782,-2.6821,-2.7026,-2.7494,-2.3062,-2.3414,-2.4205,-2.5096,-2.5799,-2.7155,0.0,0.0,-3.288,-3.4474,-3.573,-3.6923,-3.8178,-3.8555,-3.9044,-4.0162,-4.0023,-3.9772,-3.9697,-3.9697,-3.9509,-3.9019,-3.9396,-3.9885,-4.0375,-4.0475,-4.0488,-4.0425,-4.0488,-4.0275,-3.9722,-3.9478,-3.9166,-3.8945,-3.8631,-3.8514,-3.8421,-3.8404,-3.8812,-3.9781,-3.9694,-4.0037,-4.0702,-4.0702,-4.0702,-4.0631,-3.9479,-3.8931,-3.8777,-3.7512,-3.6978,-3.6978,-3.6978,-3.6571,-3.6043,-3.6553,-3.6301,-3.5798,-3.6216,-3.6444,-3.6492,-3.6492,-3.6492,-3.6492,-3.6492,-3.6492,-3.6492,-3.6492,-3.6445,-3.6261,-3.5737,-3.6375,-3.6996,-3.6432,-3.715,-3.7951,-3.7826,-3.7787,-3.7753,-3.7669,-3.711,-3.662,-3.6535,-3.5402,-3.3981,-3.2493,-3.2246,-3.2212,-3.2326,-3.1087,-3.0496,-3.135,-3.0538,-2.9998,-3.0131,-2.87,-2.8062,-2.8682,-2.8668,-2.8319,-2.7695,-2.7493,-2.7145,-2.6612,-2.6521,-2.6565,-2.6703,-2.6703,-2.6763,-2.6916,-2.7621,-2.7699,-2.5435,-2.5963,0.0,0.0,-2.9428,-3.121,-3.283,-3.4374,-3.5855,-3.7199,-3.8354,-3.9471,-4.0576,-4.0777,-4.0927,0.0,-4.1015,-4.0538,-4.0224,-3.9622,-3.9007,-3.8429,-3.8291,-3.8454,-3.9007,-3.9358,-3.9559,-3.9559,-3.986,-3.9936,-3.9697,-3.9581,-3.9374,-3.905,-3.8841,-3.8526,-3.8409,-3.7645,-3.7965,-3.959,-3.8898,-3.9339,-4.0702,-4.0702,-4.0702,-4.0631,-3.9395,-3.8861,-3.8777,-3.7512,-3.6768,-3.6487,-3.6838,-3.6613,-3.6141,-3.6368,-3.6202,-3.5834,-3.6052,-3.6295,-3.6492,-3.6492,-3.6492,-3.6492,-3.6492,-3.6492,-3.6492,-3.6492,-3.6492,-3.643,-3.6138,-3.6445,-3.6977,-3.7327,-3.7851,-3.8262,-3.847,-3.8531,-3.8413,-3.799,-3.7652,-3.7432,-3.7432,-3.6535,-3.5453,-3.4387,-3.3491,-3.2949,-3.3008,-3.2466,-3.1958,-3.176,-3.0812,-3.0118,-2.994,-2.9028,-2.865,-2.8975,-2.8576,-2.8356,-2.8503,-2.7603,-2.7163,-2.7291,-2.6851,-2.6615,-2.6638,-2.6698,-2.672,-2.6801,-2.7173,-2.7251,-2.659,0.0,0.0,-3.0143,-3.2541,-3.4713,-3.5165,-3.686,-3.8567,-3.9383,-4.03,-4.1166,-4.1806,-4.1932,-4.1882,-4.1731,-4.1367,-4.0865,-4.0162,-3.9233,-3.8366,-3.7638,-3.7061,-3.6835,-3.7086,-3.7889,-3.8467,-3.8617,-3.9157,-3.9459,-3.9343,-3.939,-3.9374,-3.905,-3.8736,-3.8526,-3.8303,-3.778,-3.8115,-3.9412,-3.9057,-3.9503,-4.0702,-4.0702,-4.0702,-4.0631,-3.9395,-3.8861,-3.8777,-3.7512,-3.6726,-3.636,-3.6627,-3.6571,-3.6366,-3.6165,-3.6086,-3.6084,-3.6043,-3.623,-3.6492,-3.6492,-3.6615,-3.6769,-3.6769,-3.6769,-3.6769,-3.6769,-3.663,-3.6492,-3.6492,-3.6492,-3.6769,-3.778,-3.8181,-3.8427,-3.8974,-3.9193,-3.914,-3.8616,-3.8345,-3.821,-3.821,-3.7584,-3.684,-3.6062,-3.503,-3.4184,-3.3761,-3.3711,-3.3325,-3.2342,-3.1388,-3.067,-3.0387,-2.9922,-2.9659,-2.9659,-2.9108,-2.8943,-2.9329,-2.8007,-2.7548,-2.8117,-2.7126,-2.6722,-2.6964,-2.6765,-2.6827,-2.7073,-2.7095,-2.7343,0.0,0.0,-3.0131,-3.1738,-3.4248,-3.6747,-3.8354,-4.0011,-4.1229,-4.1254,-4.1718,-4.1957,-4.1455,-4.1367,-4.1191,-4.0651,-4.0551,-4.0162,-3.9082,-3.8417,-3.7626,-3.6533,-3.5931,-3.5391,0.0,-3.6282,-3.7462,-3.799,-3.8567,-3.878,-3.8438,-3.865,-3.8736,-3.8409,-3.8198,-3.7974,-3.7986,-3.9436,-3.9875,-3.9425,-4.0781,-4.1191,-4.0702,-4.0702,-4.0702,-4.0631,-3.9395,-3.8861,-3.8777,-3.7512,-3.6978,-3.6908,-3.6318,-3.6445,-3.6887,-3.627,-3.6272,-3.6674,-3.6611,-3.6505,-3.6492,-3.6492,-3.6938,-3.7477,-3.7477,-3.7477,-3.7477,-3.7477,-3.6999,-3.6492,-3.6492,-3.6492,-3.6662,-3.7298,-3.7838,-3.8446,-3.9065,-3.9662,-4.0037,-4.002,-3.9445,-3.8954,-3.8954,-3.8362,-3.7618,-3.6857,-3.6705,-3.6146,-3.4658,-3.4455,-3.4133,-3.3179,-3.2634,-3.2257,-3.2032,-3.1597,-3.1329,-3.1329,-3.1292,-3.0944,-3.0191,-2.9384,-2.8938,-2.8957,-2.742,-2.7019,-2.7874,-2.708,-2.714,-2.7957,-2.7964,-2.8413,-2.8423,0.0,-3.3545,-3.5554,-3.7877,-3.9923,-4.084,-4.148,-4.1668,-4.094,-4.0061,-3.912,-3.8203,-3.8052,-3.8241,-3.8768,-3.917,-3.9421,-3.9421,-3.8931,-3.7889,-3.6044,-3.5655,0.0,0.0,0.0,0.0,-3.6872,-3.7592,-3.8166,-3.8388,-3.8637,-3.8631,-3.8409,-3.8303,-3.8502,-3.9104,-3.926,-3.9679,-4.0455,-4.0844,-4.0898,-4.0702,-4.0702,-4.0702,-4.0631,-3.9395,-3.8861,-3.8777,-3.7512,-3.674,-3.636,-3.615,-3.5953,-3.5864,-3.6345,-3.6597,-3.6788,-3.6611,-3.6873,-3.7092,-3.663,-3.6953,-3.7415,-3.6969,-3.683,-3.683,-3.683,-3.6661,-3.6492,-3.6492,-3.6492,-3.6662,-3.7238,-3.7854,-3.8463,-3.9082,-3.9696,-4.007,-4.007,-3.9884,-3.9715,-3.9715,-3.9106,-3.821,-3.6958,-3.6349,-3.5825,-3.5301,-3.4793,-3.4457,-3.4438,-3.3193,-3.269,-3.344,-3.2211,-3.1623,-3.2173,-3.1696,-3.1274,-3.0999,-3.0742,-3.0595,-3.0595,-3.0063,-2.994,-3.0215,-2.9407,-2.9191,-2.9499,-2.9012,-2.901,-3.1065,-3.3508,-3.5881,-3.8304,-4.0275,-4.1718,-4.207,-4.1844,-4.1141,-3.9634,-3.8153,-3.6734,-3.5429,-3.5039,-3.5328,-3.6621,-3.6985,-3.75,-3.8642,-3.8153,-3.7224,-3.5981,-3.5491,-3.4964,0.0,0.0,0.0,-3.595,-3.7007,-3.7679,-3.7799,-3.8332,-3.8514,-3.8303,-3.8607,-3.9104,-3.9597,-4.0043,-4.0654,-4.1595,-4.1016,-4.0702,-4.0702,-4.0702,-4.0575,-4.0308,-3.9311,-3.8735,-3.844,-3.7414,-3.6754,-3.6374,-3.615,-3.5826,-3.5568,-3.621,-3.66,-3.6788,-3.6893,-3.7155,-3.7384,-3.6707,-3.6953,-3.7415,-3.6984,-3.6861,-3.6861,-3.6861,-3.6676,-3.6492,-3.6492,-3.6492,-3.6616,-3.7013,-3.7679,-3.8407,-3.8794,-3.9523,-4.007,-4.007,-4.007,-4.007,-4.007,-3.9478,-3.8582,-3.7364,-3.6535,-3.5926,-3.5656,-3.5199,-3.4924,-3.4966,-3.3885,-3.3404,-3.4005,-3.2936,-3.2441,-3.2999,-3.254,-3.2247,-3.2247,-3.1971,-3.1953,-3.2247,-3.1678,-3.1531,-3.1825,-3.1017,-3.0656,-3.0686,-3.024,-2.9975,-3.3391,-3.5341,-3.7262,-3.9973,-4.1392,-4.2108,-4.2108,-4.1178,-3.9672,-3.7475,-3.6044,-3.47,0.0,0.0,-3.2566,-3.4274,-3.4236,-3.4738,-3.6885,-3.6358,-3.5893,0.0,0.0,0.0,0.0,0.0,0.0,-3.5233,0.0,-3.7419,-3.7042,-3.7849,-3.8303,-3.8185,-3.9104,-3.9597,-3.9802,-4.1736,-4.2722,-4.2514,-4.1278,-4.0702,-4.0702,-4.0702,-4.0364,-3.9746,-3.9128,-3.8496,-3.785,-3.7245,-3.6978,-3.6922,-3.6318,-3.6141,-3.6151,-3.5977,-3.632,-3.6971,-3.741,-3.76,-3.7492,-3.6769,-3.6999,-3.7538,-3.7477,-3.7446,-3.7446,-3.7446,-3.6984,-3.6492,-3.6492,-3.6492,-3.6492,-3.6492,-3.7445,-3.8278,-3.8278,-3.9242,-4.007,-4.007,-4.007,-4.007,-4.007,-3.9478,-3.8751,-3.8075,-3.7297,-3.6502,-3.5723,-3.5622,-3.5351,-3.4822,-3.4688,-3.4446,-3.3949,-3.3834,-3.3781,-3.3862,-3.3825,-3.3807,-3.3807,-3.3073,-3.3036,-3.3788,-3.2302,-3.1898,-3.2669,-3.1843,-3.1458,-3.1458,-3.147,-3.1205,-3.6552,-3.8479,-4.0438,-4.1969,-4.1944,-4.1543,-4.1543,-3.9804,-3.7565,-3.5193,-3.2949,-3.0714,0.0,0.0,0.0,-3.1901,-3.3859,0.0,-3.6985,-3.8015,0.0,-3.5981,0.0,-3.6138,-3.5127,-3.559,0.0,0.0,-3.6676,-3.7431,-3.9692,-3.872,-3.8804,-4.0313,-3.9905,-4.0401,-4.1985,-4.2422,-4.2356,-4.1854,-4.1067,-4.0702,-4.0702,-4.0702,-4.0364,-3.9746,-3.9128,-3.8496,-3.785,-3.7245,-3.6978,-3.6922,-3.6318,-3.6354,-3.6833,-3.7197,-3.7664,-3.8301,-3.8779,-3.9,-3.8816,-3.7631,-3.7707,-3.8061,-3.7061,-3.6738,-3.6738,-3.6738,-3.663,-3.6492,-3.6492,-3.6492,-3.6492,-3.6492,-3.7445,-3.8278,-3.8278,-3.9242,-4.007,-4.007,-4.007,-4.007,-4.007,-3.9478,-3.8937,-3.8751,-3.7601,-3.6502,-3.5723,-3.5622,-3.5554,-3.5368,-3.5451,-3.5432,-3.5311,-3.4862,-3.4613,-3.4641,-3.411,-3.3807,-3.3807,-3.3605,-3.3587,-3.3807,-3.3403,-3.3293,-3.3495,-3.2687,-3.2302,-3.2284,-3.1746,-3.1589,-3.9827,-4.1233,-4.2455,-4.2557,-4.1969,-4.0953,-3.9484,-3.7425,-3.506,-3.2288,-2.9998,0.0,0.0,0.0,0.0,0.0,0.0,0.0,-3.6263,-3.7551,-3.7838,0.0,-3.6714,0.0,-3.6131,-3.6701,-3.7723,0.0,-3.7846,-3.8086,-4.05,-3.9,-3.9,-4.1119,-4.0617,-4.1306,-4.3491,-4.2901,-4.2402,-4.2022,-4.1123,-4.0702,-4.0702,-4.0702,-4.0364,-3.9746,0.0,-3.8496,-3.785,-3.7245,-3.6978,-3.695,-3.6613,-3.667,-3.7083,-3.7579,-3.815,-3.8795,-3.9305,-3.9708,-3.9693,-3.8046,-3.7554,-3.7477,-3.6722,-3.6492,-3.6492,-3.6492,-3.6492,-3.6492,-3.6492,-3.6492,-3.6554,-3.6831,-3.7621,-3.8351,-3.8629,-3.9418,-4.007,-4.007,-4.007,-4.007,-4.007,-3.9732,-3.936,-3.9039,-3.8278,-3.7364,-3.6265,-3.5825,-3.5622,-3.5622,-3.5682,-3.5782,-3.5839,-3.5551,-3.5425,-3.5502,-3.5119,-3.489,-3.489,-3.4541,-3.4339,-3.4339,-3.3972,-3.3807,-3.3807,-3.3348,-3.3128,-3.3128,-3.2695,-3.2553,-4.2995,-4.3402,-4.3503,-4.2536,-4.1517,-3.9986,-3.7044,-3.4855,-3.2619,-2.9528,0.0,-2.6504,-2.6398,-2.6623,-2.7486,-2.9595,0.0,-3.3871,-3.5608,-3.6534,-3.7051,-3.7248,-3.7089,-3.7177,-3.7383,-3.784,-3.9055,-4.1282,-3.9771,-3.9401,-4.0839,-3.9346,-3.9299,-4.1319,-4.1518,-4.2447,-4.4172,-4.3104,-4.25,-4.2317,-4.1221,-4.0702,-4.0702,-4.0702,-4.0364,-3.9746,-3.9226,-3.8566,-3.7864,-3.733,-3.7141,-3.7134,-3.7134,-3.7253,-3.7434,-3.7884,-3.8441,-3.8985,-3.9336,-3.9847,-3.997,-3.82,-3.723,-3.6722,-3.6538,-3.6492,-3.6492,-3.6492,-3.6492,-3.6492,-3.6492,-3.6492,-3.6693,-3.7408,-3.7982,-3.8625,-3.9346,-3.9914,-4.0223,-4.0223,-4.0155,-4.007,-4.007,-4.007,-3.9868,-3.9225,-3.9056,-3.8531,-3.7246,-3.6315,-3.574,-3.5639,-3.5745,-3.592,-3.6017,-3.6128,-3.6236,-3.6421,-3.634,-3.6303,-3.6303,-3.5587,-3.5119,-3.499,-3.4321,-3.3917,-3.3807,-3.3807,-3.3807,-3.3807,-3.3807,-3.3691,-4.4229,-4.3755,-4.3034,-4.2928,-4.035,-3.7707,-3.6657,-3.3845,0.0,0.0,0.0,-2.6442,-2.5456,-2.6026,0.0,-3.0438,0.0,0.0,0.0,0.0,-3.8635,0.0,0.0,0.0,0.0,0.0,0.0,0.0,0.0,-4.2019,-4.3624,-4.1762,-4.1206,-4.2501,-4.341,-4.3533,-4.2907,-4.2683,-4.205,-4.1025,-4.08,-4.0702,-4.0702,-4.0702,-4.0364,-3.9774,-3.9676,0.0,-3.7892,-3.7793,-3.7742,-3.7734,-3.7734,-3.8339,-3.9215,-3.9358,-3.9713,-4.0125,-3.964,-3.9231,-3.88,-3.8446,-3.8262,-3.7954,-3.683,-3.6492,-3.6492,-3.6492,-3.6492,-3.6492,-3.6492,-3.6492,-3.6801,-3.7991,-3.8777,-3.9561,-4.075,-4.1037,-4.1018,-4.1018,-4.051,-4.007,-4.007,-4.007,-4.0037,-3.9918,-3.9377,-3.8903,-3.8633,-3.7415,-3.6332,-3.569,-3.6271,-3.6689,-3.6728,-3.6908,-3.6997,-3.7028,-3.6593,-3.6303,-3.6303,-3.6156,-3.5752,-3.5009,-3.4844,-3.4468,-3.3807,-3.3807,-3.3807,-3.3807,-3.3807,-3.3988,-4.4813,-4.441,-4.3715,-4.1757,-3.9272,-3.6708,-3.4384,0.0,0.0,0.0,0.0,-2.5038,-2.5809,0.0,0.0,0.0,0.0,0.0,0.0,0.0,0.0,0.0,0.0,0.0,0.0,0.0,0.0,0.0,0.0,-4.2925,-4.4355,-4.341,-4.2806,-4.2792,-4.3804,-4.3975,-4.3076,-4.2739,-4.2107,-4.1165,-4.0856,-4.0702,-4.0702,-4.0702,-4.0533,-4.0238,-3.9929,0.0,-3.8464,-3.8351,-3.8139,-3.7962,-3.8263,-3.8929,-3.9681,-3.9681,-4.0036,-4.0432,-3.9754,-3.9308,-3.8923,-3.8215,-3.7738,-3.7338,-3.6692,-3.6492,-3.6492,-3.6492,-3.6738,-3.6938,-3.6584,-3.7015,-3.7762,-3.873,-3.9985,-4.1111,-4.1753,-4.1499,-4.1204,-4.1204,-4.0595,-4.007,-4.007,-4.007,-4.007,-4.007,-3.9783,-3.9411,-3.9039,-3.8379,-3.7483,-3.6349,-3.6963,-3.7321,-3.6995,-3.7484,-3.7849,-3.788,-3.7674,-3.7551,-3.7551,-3.7147,-3.6725,-3.6303,-3.5899,-3.5275,-3.4431,-3.4431,-3.4211,-3.3788,-3.3947,-3.4208,-4.5106,-4.5121,-4.4468,-4.1349,-3.8846,-3.6266,-3.2765,-3.0001,0.0,0.0,-2.4657,-2.4104,-2.6376,0.0,0.0,0.0,0.0,0.0,0.0,0.0,0.0,0.0,0.0,0.0,0.0,0.0,0.0,0.0,0.0,0.0,-4.4355,-4.4284,-4.3812,-4.2999,-4.3686,-4.3722,-4.3104,-4.2612,-4.205,-4.1404,-4.0926,-4.0702,-4.0702,-4.0702,-4.0702,-4.0674,-4.0196,0.0,0.0,-3.9004,-3.8717,-3.8337,-3.8782,-3.9379,-3.9895,-3.9895,-4.0106,-4.0432,-3.9754,-3.9524,-3.9323,-3.8108,-3.7261,-3.6676,-3.6538,-3.6492,-3.6492,-3.6492,-3.6876,-3.72,-3.6799,-3.7619,-3.8763,-3.9806,-4.1477,-4.2777,-4.2777,-4.2202,-4.1677,-4.1677,-4.095,-4.0324,-4.0324,-4.0189,-4.007,-4.007,-4.007,-3.9868,-3.9292,-3.9306,-3.8894,-3.7568,-3.7906,-3.8063,-3.7662,-3.8418,-3.8871,-3.8734,-3.8865,-3.8841,-3.8707,-3.8083,-3.7661,-3.7507,-3.6872,-3.6138,-3.5265,-3.5265,-3.4871,-3.4064,-3.4333,-3.4493,-4.5563,-4.5202,-4.4177,-4.3399,-3.9809,-3.6035,-3.4065,0.0,0.0,0.0,-2.5582,-2.5077,-2.6547,-2.6188,0.0,0.0,0.0,0.0,0.0,0.0,0.0,0.0,0.0,0.0,0.0,0.0,0.0,0.0,0.0,0.0,-4.4397,-4.3877,-4.3582,-4.3476,-4.3034,-4.2444,-4.1797,-4.1727,-4.139,-4.0786,-4.073,-4.0702,-4.0702,-4.0702,-4.0702,-4.0702,-4.0631,0.0,0.0,-3.9621,-3.9583,-3.9538,-3.961,-3.9965,-4.0455,-4.0455,-4.0455,-4.0432,-3.9754,-3.9524,-3.94,-3.8662,-3.7954,-3.7292,-3.6676,-3.6492,-3.6492,-3.6492,-3.6538,-3.6707,-3.7261,-3.7966,-3.9113,-4.1634,-4.331,-4.4367,-4.4367,-4.3758,-4.3217,-4.3217,-4.2066,-4.1102,-4.1102,-4.0527,-4.007,-4.007,-4.007,-4.0054,-3.9986,-4.038,-4.0341,-3.9531,-3.9234,-3.9224,-3.9626,-4.0185,-4.0211,-3.9531,-3.9593,-3.9347,-3.8744,-3.8634,-3.8248,-3.7496,-3.7422,-3.6982,-3.6174,-3.6174,-3.5752,-3.4908,-3.5166,-3.5011,-4.3294,-4.4129,-4.4121,-4.1748,-3.8937,-3.5921,-3.3176,0.0,0.0,-2.6303,-2.5119,-2.4496,-2.5373,-2.5265,-2.5603,0.0,0.0,0.0,0.0,0.0,0.0,0.0,0.0,0.0,0.0,0.0,0.0,0.0,0.0,0.0,-4.3877,-4.3624,-4.3329,-4.2964,-4.2711,-4.2275,-4.1629,-4.1615,-4.1306,-4.0702,-4.0702,-4.0702,-4.0702,-4.0702,-4.0702,-4.0702,-4.0702,0.0,0.0,-4.0249,-4.0258,-4.0311,-4.0188,-4.0316,-4.0524,-4.0524,-4.0524,-4.0432,-3.9754,-3.9524,-3.9339,-3.8262,-3.7723,-3.7446,-3.7184,-3.6815,-3.6492,-3.6492,-3.7076,-3.7677,-3.7538,-3.892,-4.0809,-4.2657,-4.3887,-4.4451,-4.3978,-4.3639,-4.3284,-4.2828,-4.2252,-4.1863,-4.1863,-4.1255,-4.0747,-4.0747,-4.0358,-4.007,-4.007,-4.0531,-4.0775,-4.0767,-4.0468,-4.0162,-3.9914,-4.0402,-4.0577,-4.0352,-3.9926,-3.9621,-3.9441,-3.8964,-3.856,-3.823,-3.8212,-3.7826,-3.7,-3.7,-3.6597,-3.5789,-3.618,-3.626,-4.0942,-4.2767,-4.3588,-4.0763,-3.8422,-3.6019,0.0,0.0,0.0,-2.5885,-2.4549,-2.384,-2.4768,-2.4733,-2.502,0.0,0.0,0.0,0.0,0.0,0.0,0.0,0.0,0.0,0.0,0.0,0.0,0.0,0.0,0.0,-4.3259,-4.3048,-4.2739,-4.2317,-4.2121,-4.1797,-4.1348,-4.1334,-4.1123,-4.0702,-4.0702,-4.0702,-4.0702,-4.0702,-4.0702,-4.0702,-4.0944,0.0,0.0,-4.09,-4.095,-4.0921,-4.0646,-4.0524,-4.0524,-4.0524,-4.0524,-4.0462,-3.9985,-3.9816,-3.9631,-3.8477,-3.7969,-3.78,-3.78,-3.7323,-3.683,-3.703,-3.8036,-3.9054,-3.8747,-4.0382,-4.2376,-4.3531,-4.4236,-4.4418,-4.3876,-4.3758,-4.3606,-4.3064,-4.2777,-4.2557,-4.2337,-4.1694,-4.1136,-4.0899,-4.0409,-4.0171,-4.0303,-4.0707,-4.1185,-4.1674,-4.1617,-4.136,-4.0823,-4.1143,-4.1269,-4.1172,-4.0659,-4.0229,-3.99,-3.935,-3.8946,-3.8707,-3.8707,-3.8414,-3.7845,-3.7845,-3.7482,-3.6777,-3.7163,-3.7344,-3.8961,-4.1119,-4.2422,-4.1141,-3.9064,-3.6475,0.0,0.0,-2.6605,-2.5923,-2.4202,-2.3385,-2.5272,-2.4998,-2.4883,-2.614,0.0,0.0,0.0,0.0,0.0,0.0,0.0,0.0,0.0,0.0,0.0,0.0,0.0,0.0,-4.2626,-4.198,-4.1629,-4.1629,-4.1039,-4.0716,-4.0702,-4.0702,-4.0702,-4.0702,-4.0702,-4.0702,-4.0702,-4.0702,-4.0702,0.0,0.0,0.0,0.0,-4.1609,-4.1574,-4.1524,-4.0816,-4.0524,-4.0524,-4.0524,-4.0524,-4.0524,-4.0524,-4.0524,-4.0401,-3.9724,-3.9046,-3.8492,-3.8492,-3.8031,-3.7631,-3.8292,-3.9464,-4.0658,-4.1313,-4.2458,-4.3647,-4.444,-4.457,-4.4587,-4.457,-4.457,-4.457,-4.4553,-4.3927,-4.3166,-4.2422,-4.1694,-4.095,-4.0206,-4.007,-4.0254,-4.0707,-4.1185,-4.1656,-4.2157,-4.2634,-4.2882,-4.2864,-4.2864,-4.2595,-4.2029,-4.1975,-4.1366,-3.9955,-3.9882,-3.9515,-3.8726,-3.8707,-3.8707,-3.8689,-3.8689,-3.8398,-3.7875,-3.8103,-3.8088,-3.4811,-3.6636,-3.7448,-3.618,-3.4767,-3.3033,-3.0208,0.0,-2.6069,-2.4546,-2.4081,-2.3989,-2.402,-2.4554,-2.5355,-2.6605,-2.74,0.0,0.0,0.0,0.0,0.0,0.0,0.0,0.0,0.0,0.0,0.0,0.0,0.0,-4.2612,-4.1966,-4.1418,-4.0997,-4.08,-4.0702,-4.0702,-4.0702,-4.0702,-4.0702,-4.0702,-4.0702,-4.0702,-4.0702,-4.0702,0.0,0.0,0.0,0.0,-4.1609,-4.1847,-4.2171,-4.0986,-4.0832,-4.1201,-4.0709,-4.0524,-4.0524,-4.0524,-4.0232,-3.9801,-3.9585,-3.9062,-3.8508,-3.8508,-3.7707,-3.7046,-3.8185,-3.9479,-4.0785,-4.1864,-4.2851,-4.3706,-4.444,-4.4587,-4.4434,-4.391,-4.4198,-4.4418,-4.3893,-4.4012,-4.413,-4.3893,-4.2794,-4.1863,-4.1627,-4.073,-4.0171,-4.0303,-4.1001,-4.1569,-4.1717,-4.244,-4.2882,-4.2882,-4.2882,-4.2904,-4.2832,-4.2303,-4.1624,-4.0781,-4.0194,-3.9515,-3.8726,-3.8707,-3.8707,-3.8707,-3.8707,-3.8792,-3.9008,-3.9251,-3.9426,0.0,-3.2741,-3.3518,-3.2496,-3.1604,0.0,0.0,0.0,-2.5277,-2.3894,-2.3826,-2.3957,-2.3674,-2.4495,-2.5516,-2.6411,-2.7314,0.0,0.0,0.0,0.0,0.0,0.0,0.0,0.0,0.0,0.0,0.0,0.0,0.0,-4.2247,-4.1615,-4.1095,-4.0702,-4.0702,-4.0702,-4.0702,-4.0702,-4.0702,-4.0702,-4.0702,-4.0702,-4.0702,-4.0702,-4.0873,0.0,0.0,0.0,0.0,-4.2364,-4.2419,-4.2494,-4.137,-4.1047,-4.114,-4.0693,-4.0524,-4.0524,-4.0524,-4.0247,-3.9862,-3.9601,-3.9062,-3.8462,-3.82,-3.7892,-3.7861,-3.897,-4.0237,-4.1469,-4.2282,-4.3213,-4.4047,-4.4497,-4.4587,-4.4451,-4.3961,-4.4231,-4.4434,-4.3944,-4.4248,-4.4485,-4.4198,-4.3352,-4.2523,-4.1965,-4.1085,-4.0493,-4.0387,-4.1047,-4.1569,-4.176,-4.2458,-4.2882,-4.2882,-4.2882,-4.2975,-4.3214,-4.274,-4.2191,-4.1589,-4.0781,-3.9974,-3.9166,-3.8854,-3.8707,-3.8707,-3.8892,-3.9219,-3.967,-3.9933,-4.0158,0.0,0.0,0.0,0.0,0.0,0.0,0.0,0.0,0.0,-2.377,-2.3478,-2.356,-2.4176,-2.485,-2.5434,-2.6032,-2.723,0.0,0.0,0.0,0.0,0.0,0.0,0.0,0.0,0.0,0.0,0.0,0.0,0.0,-4.1643,-4.1039,-4.0702,-4.0702,-4.0659,-4.0659,-4.0702,-4.0702,-4.0702,-4.0702,-4.0659,-4.0631,-4.0631,-4.0661,-4.0986,0.0,0.0,0.0,0.0,-4.347,-4.311,-4.254,-4.1801,-4.1155,-4.0601,-4.0539,-4.0524,-4.0524,-4.0524,-4.0462,-4.0278,-3.9647,-3.9031,-3.8415,-3.7877,-3.8523,-3.9585,-4.0201,-4.1349,-4.2456,-4.2504,-4.3545,-4.4587,-4.4587,-4.4587,-4.4587,-4.4587,-4.4587,-4.4587,-4.4587,-4.4587,-4.435,-4.3623,-4.3453,-4.2946,-4.1559,-4.1322,-4.1155,-4.0848,-4.1226,-4.1683,-4.2115,-4.2577,-4.2844,-4.29,-4.2882,-4.2975,-4.3178,-4.3214,-4.2921,-4.2307,-4.1589,-4.0781,-3.9918,-3.9111,-3.8707,-3.8738,-3.9245,-3.9647,-3.9914,-4.0176,-4.0328,-2.4081,0.0,-2.6242,-2.5635,0.0,0.0,0.0,0.0,0.0,0.0,0.0,0.0,0.0,0.0,0.0,0.0,0.0,0.0,0.0,0.0,0.0,0.0,0.0,0.0,0.0,0.0,0.0,0.0,0.0,-4.1783,-4.1629,-4.1039,-4.0702,-4.0702,-4.0238,-4.0224,-4.0702,-4.0702,-4.0702,-4.0688,-4.0224,-3.9999,-3.9985,-3.9961,-4.0058,0.0,0.0,0.0,-4.2062,-4.2107,-4.2279,-4.2494,-4.1263,-4.1016,-4.1278,-4.0724,-4.0524,-4.0524,-4.0524,-3.9847,-3.8954,-3.88,-3.8646,-3.8677,-3.9554,-3.9323,-3.8785,-3.8939,-4.0324,-4.1824,-4.2375,-4.3545,-4.4587,-4.4587,-4.4587,-4.4587,-4.4587,-4.4587,-4.4587,-4.4587,-4.4587,-4.4519,-4.4333,-4.3809,-4.3301,-4.2963,-4.2405,-4.1814,-4.1172,-4.1518,-4.1783,-4.1683,-4.2056,-4.2498,-4.2882,-4.2882,-4.2975,-4.3123,-4.3178,-4.2904,-4.2258,-4.2106,-4.135,-3.9918,-3.9111,-3.881,-3.9007,-3.935,-3.9647,-3.9914,-4.0176,-4.031,-2.2999,-2.3814,-2.461,-2.4554,-2.4315,-2.4176,0.0,0.0,0.0,0.0,0.0,0.0,0.0,0.0,0.0,0.0,0.0,0.0,0.0,0.0,0.0,0.0,0.0,0.0,0.0,0.0,0.0,0.0,0.0,-4.1488,-4.1207,-4.0884,-4.0702,-4.0702,-4.0097,-4.0083,-4.0688,-4.014,-3.9999,-4.0266,-3.9662,-3.9518,-3.9722,-3.9691,-3.9996,0.0,0.0,0.0,-4.2028,-4.2057,-4.2094,-4.2078,-4.1309,-4.1047,-4.1063,-4.0678,-4.0524,-4.0478,-4.017,-3.9585,-3.8923,-3.8616,-3.8723,-3.9046,-3.9477,-3.9093,-3.8646,-3.9262,-4.0672,-4.2035,-4.2423,-4.3545,-4.4587,-4.4587,-4.4587,-4.4587,-4.4587,-4.4587,-4.4587,-4.4587,-4.4587,-4.4587,-4.4587,-4.4231,-4.3826,-4.347,-4.3064,-4.2422,-4.1339,-4.1793,-4.2021,-4.1569,-4.2098,-4.2634,-4.2882,-4.2882,-4.2938,-4.3104,-4.3142,-4.305,-4.2772,-4.2472,-4.1534,-3.9918,-3.946,-3.9261,-3.9272,-3.9427,-3.9693,-4.0098,-4.0234,-4.0291,-2.3328,-2.3922,-2.4544,-2.4681,-2.4427,-2.4295,0.0,0.0,0.0,0.0,0.0,0.0,0.0,0.0,0.0,0.0,0.0,0.0,0.0,0.0,0.0,0.0,0.0,0.0,0.0,0.0,0.0,0.0,0.0,-4.1165,-4.0449,-4.0421,-4.0378,-4.028,-3.9676,-3.9774,-4.0576,-3.9464,-3.9128,-3.9634,-3.9098,-3.9098,-3.9535,-3.9671,-4.0264,-4.128,0.0,0.0,-4.2448,-4.234,-4.2017,-4.1586,-4.1478,-4.1063,-4.0524,-4.0524,-4.0524,-4.0432,-3.9754,-3.9447,-3.9293,-3.8816,-3.9046,-3.9431,-3.897,-3.8882,-3.9164,-4.0322,-4.1446,-4.2375,-4.2613,-4.3604,-4.4587,-4.4587,-4.4587,-4.4587,-4.4587,-4.4587,-4.4587,-4.4587,-4.4587,-4.4587,-4.4587,-4.4587,-4.435,-4.369,-4.3589,-4.3098,-4.1816,-4.2262,-4.2444,-4.1833,-4.2391,-4.2806,-4.2882,-4.2882,-4.2938,-4.3049,-4.3142,-4.3251,-4.3411,-4.2711,-4.1662,-4.0286,-4.0139,-3.993,-3.969,-3.969,-3.9894,-4.031,-4.031,-4.0291,-2.4498,-2.5531,-2.581,-2.4007,-2.3865,-2.4204,0.0,0.0,0.0,0.0,0.0,0.0,0.0,0.0,0.0,0.0,0.0,0.0,0.0,0.0,0.0,0.0,0.0,0.0,0.0,0.0,0.0,0.0,0.0,-4.0336,-3.9212,-3.9156,-3.8903,-3.8341,-3.7737,-3.8187,-3.9805,-3.9191,-3.8917,-3.9002,-3.8902,-3.8903,-3.8952,-3.9476,-3.9839,-3.9998,0.0,-4.1115,-4.1709,-4.1093,-4.114,-4.154,-4.0924,-4.0632,-4.0524,-4.0524,-4.0524,-4.0432,-3.9754,-3.9139,-3.8739,-3.9216,-3.9431,-3.9616,-4.0078,-4.0593,-4.106,-4.128,-4.147,-4.1943,-4.3032,-4.3972,-4.4587,-4.4587,-4.4587,-4.4587,-4.4587,-4.4587,-4.4587,-4.4587,-4.4587,-4.4587,-4.4587,-4.4587,-4.4536,-4.4418,-4.4401,-4.4228,-4.3769,-4.3285,-4.2967,-4.3116,-4.265,-4.2458,-4.2882,-4.2882,-4.29,-4.2938,-4.3087,-4.3286,-4.3463,-4.2727,-4.2176,-4.1937,-4.1258,-4.0781,-4.0528,-4.0528,-4.0438,-4.031,-4.031,-4.0291,-2.3952,-2.471,-2.5199,-2.474,-2.552,-2.6286,0.0,0.0,0.0,0.0,0.0,0.0,0.0,0.0,0.0,0.0,0.0,0.0,0.0,0.0,0.0,0.0,0.0,0.0,0.0,0.0,0.0,0.0,0.0,0.0,-3.9335,-3.9306,-3.9178,-3.8865,-3.8566,-3.8895,-3.9707,-3.917,-3.9015,-3.9347,-3.9004,-3.9,-3.9298,-3.9601,-3.9824,-4.0176,0.0,-4.0709,-4.1001,-4.0662,-4.0724,-4.0986,-4.0662,-4.0524,-4.0524,-4.0524,-4.0293,-3.9939,-3.9631,-3.9323,-3.9046,-3.8985,-3.9462,-4.0047,-4.0001,-4.0421,-4.1075,-4.1836,-4.2278,-4.2709,-4.3353,-4.4047,-4.4587,-4.4587,-4.4587,-4.4587,-4.4587,-4.4587,-4.4587,-4.4587,-4.4587,-4.4587,-4.4587,-4.4587,-4.4587,-4.4587,-4.4587,-4.4504,-4.4251,-4.4123,-4.4038,-4.4064,-4.3548,-4.3322,-4.3534,-4.3136,-4.2938,-4.305,-4.316,-4.3268,-4.3479,-4.313,-4.2745,-4.2304,-4.1937,-4.1557,-4.1129,-4.0843,-4.0726,-4.0722,-4.0444,-4.0291,-2.3717,-2.4149,-2.4804,-2.5696,0.0,0.0,0.0,0.0,0.0,0.0,0.0,0.0,0.0,0.0,0.0,0.0,0.0,0.0,0.0,0.0,0.0,0.0,0.0,0.0,0.0,0.0,0.0,0.0,0.0,0.0,-3.9497,-3.9469,-3.9411,-3.9252,-3.9232,-3.9431,-3.9683,-3.9091,-3.9017,-3.9519,-3.9165,-3.9235,-3.9681,-3.9672,-3.9954,-4.0524,-4.0355,-4.037,-4.0524,-4.0524,-4.0524,-4.0524,-4.0524,-4.0524,-4.0524,-4.0524,-4.0108,-3.9539,-3.9693,-3.9647,-3.9462,-3.9093,-3.9677,-4.0432,-3.9908,-4.0297,-4.1209,-4.2205,-4.3092,-4.3781,-4.3781,-4.4179,-4.4587,-4.4587,-4.4587,-4.4587,-4.4587,-4.4587,-4.4587,-4.4587,-4.4587,-4.4587,-4.4587,-4.4587,-4.4587,-4.4587,-4.4587,-4.461,-4.463,-4.4771,-4.4964,-4.504,-4.4638,-4.4295,-4.4114,-4.3353,-4.2975,-4.3178,-4.3214,-4.3286,-4.3463,-4.3497,-4.3204,-4.2598,-4.258,-4.2322,-4.1783,-4.1417,-4.1293,-4.1366,-4.1033,-4.0903,-2.4884,-2.5423,-2.5803,-2.6214,0.0,0.0,0.0,0.0,0.0,0.0,0.0,0.0,0.0,0.0,0.0,0.0,0.0,0.0,0.0,0.0,0.0,0.0,0.0,0.0,0.0,0.0,0.0,0.0,0.0,0.0,-3.8914,-3.8841,-3.8561,-3.7929,-3.7942,-3.851,-3.9685,-3.8993,-3.8695,-3.8856,-3.9409,-3.9681,-3.9666,-3.9604,-3.9856,-4.0493,-3.9862,-3.9955,-4.0524,-4.0524,-4.0524,-4.0524,-4.0524,-4.0524,-4.0524,-4.0524,-4.0108,-3.9616,-4.0232,-4.0047,-3.9616,-4.0201,-4.0447,-4.0524,-4.0462,-4.1362,-4.2395,-4.2458,-4.3486,-4.4514,-4.4514,-4.457,-4.4587,-4.4587,-4.4587,-4.4587,-4.4587,-4.4587,-4.4587,-4.4587,-4.4587,-4.4587,-4.4587,-4.4587,-4.4587,-4.4587,-4.4587,-4.4944,-4.5848,-4.5348,-4.5269,-4.6272,-4.5649,-4.491,-4.415,-4.3353,-4.2938,-4.3104,-4.316,-4.3251,-4.3376,-4.3463,-4.3461,-4.3406,-4.3406,-4.3152,-4.2619,-4.2801,-4.2667,-4.2223,-4.2502,-4.2622,-2.4568,-2.5415,-2.6259,-2.672,0.0,0.0,0.0,0.0,0.0,0.0,0.0,0.0,0.0,0.0,0.0,0.0,0.0,0.0,0.0,0.0,0.0,0.0,0.0,0.0,0.0,0.0,0.0,0.0,0.0,0.0,-3.871,-3.8665,-3.8366,-3.7694,-3.8039,-3.8447,-3.8925,-3.8666,-3.8583,-3.8637,-3.8857,-3.8925,-3.894,-3.9312,-3.9662,-3.9908,-4.0078,-4.0293,-4.0524,-4.0524,-4.0524,-4.0524,-4.0524,-4.0524,-4.0524,-4.0524,-4.037,-4.0185,-4.0432,-4.0355,-4.0185,-4.0447,-4.0524,-4.0524,-4.0524,-4.1158,-4.1965,-4.2395,-4.3213,-4.403,-4.4497,-4.4587,-4.4587,-4.4587,-4.4587,-4.4587,-4.4587,-4.4587,-4.4587,-4.4587,-4.4587,-4.4587,-4.4587,-4.4587,-4.4587,-4.4587,-4.4587,-4.4961,-4.5968,-4.5852,-4.6059,-4.7145,-4.654,-4.5526,-4.4204,-4.3806,-4.3464,-4.3012,-4.3142,-4.3251,-4.3394,-4.3463,-4.3497,-4.3497,-4.3497,-4.3401,-4.3203,-4.3125,-4.3002,-4.2787,-4.2797,-4.2794,-2.4502,-2.501,-2.5651,0.0,0.0,0.0,0.0,0.0,0.0,0.0,0.0,0.0,0.0,0.0,0.0,0.0,0.0,0.0,0.0,0.0,0.0,0.0,0.0,0.0,0.0,0.0,0.0,0.0,0.0,0.0,0.0,-3.8864,-3.8561,-3.7895,-3.8295,-3.8508,-3.8508,-3.8292,-3.8185,-3.8185,-3.7984,-3.82,-3.8831,-3.9093,-3.9431,-3.9847,-4.0108,-4.0324,-4.0524,-4.0524,-4.0524,-4.0524,-4.0524,-4.0524,-4.0524,-4.0524,-4.0524,-4.0524,-4.0524,-4.0524,-4.0524,-4.0524,-4.0646,-4.0836,-4.0836,-4.1459,-4.2205,-4.2707,-4.3333,-4.3972,-4.444,-4.4587,-4.4587,-4.4587,-4.4587,-4.4587,-4.4587,-4.4587,-4.4587,-4.4587,-4.4587,-4.4587,-4.4587,-4.472,-4.4797,-4.4797,-4.4961,-4.539,-4.6262,-4.6358,-4.6707,-4.7615,-4.6993,-4.6051,-4.4947,-4.4385,-4.386,-4.3299,-4.3232,-4.3251,-4.334,-4.3428,-4.3497,-4.3497,-4.3497,-4.3548,-4.3649,-4.3565,-4.3547,-4.3653,-4.3596,-4.3596,-2.4948,-2.4348,0.0,0.0,0.0,0.0,0.0,0.0,0.0,0.0,0.0,0.0,0.0,0.0,0.0,0.0,0.0,0.0,0.0,0.0,0.0,0.0,0.0,0.0,0.0,0.0,0.0,0.0,0.0,0.0,0.0,-3.9493,-3.9185,-3.8508,-3.8492,-3.8492,-3.8492,-3.7831,-3.7492,-3.7477,-3.6815,-3.7538,-3.9462,-3.88,-3.9231,-4.0462,-3.9801,-3.9893,-4.0524,-4.0524,-4.0524,-4.0524,-4.0524,-4.0524,-4.0524,-4.0524,-4.0524,-4.0524,-4.0524,-4.0524,-4.0524,-4.0524,-4.0956,-4.1525,-4.1525,-4.2458,-4.3512,-4.3512,-4.4047,-4.4587,-4.4587,-4.4587,-4.4587,-4.4587,-4.4587,-4.4587,-4.4587,-4.4587,-4.4587,-4.4587,-4.4587,-4.4587,-4.4587,-4.4998,-4.5303,-4.5303,-4.5767,-4.631,-4.6817,-4.6908,-4.7107,-4.7657,-4.6993,-4.6504,-4.6504,-4.5037,-4.4114,-4.4095,-4.356,-4.3233,-4.3214,-4.3375,-4.3497,-4.3497,-4.3497,-4.3649,-4.4005,-4.4279,-4.4546,-4.48,-4.5132,-4.5297,-2.5284,0.0,0.0,0.0,0.0,0.0,0.0,0.0,0.0,0.0,0.0,0.0,0.0,0.0,0.0,0.0,0.0,0.0,0.0,0.0,0.0,0.0,0.0,0.0,0.0,0.0,0.0,0.0,0.0,0.0,0.0,-3.8092,-3.78,-3.7107,-3.7092,-3.7092,-3.7092,-3.6892,-3.6799,-3.6784,-3.6599,-3.6799,-3.74,-3.7677,-3.8015,-3.8446,-3.92,-3.9631,-3.9862,-4.0339,-4.0524,-4.0524,-4.0524,-4.0524,-4.0524,-4.0524,-4.0524,-4.0462,-3.9985,-4.0124,-4.0447,-3.997,-4.0567,-4.1525,-4.1525,-4.2458,-4.3512,-4.3512,-4.4047,-4.4587,-4.4587,-4.4587,-4.4587,-4.4587,-4.4587,-4.4587,-4.4587,-4.4587,-4.4587,-4.4587,-4.4587,-4.4587,-4.4587,-4.4998,-4.5303,-4.5303,-4.5767,-4.631,-4.6817,-4.7214,-4.7511,-4.7657,-4.75,-4.712,-4.6558,-4.6069,-4.5309,-4.4168,-4.4596,-4.4381,-4.3251,-4.3375,-4.3497,-4.3497,-4.3497,-4.3649,-4.4005,-4.4279,-4.4546,-4.48,-4.5132,-4.5297,-2.5226,0.0,0.0,0.0,0.0,0.0,0.0,0.0,0.0,0.0,0.0,0.0,0.0,0.0,0.0,0.0,0.0,0.0,0.0,0.0,0.0,0.0,0.0,0.0,0.0,0.0,0.0,0.0,0.0,0.0,0.0,-3.7507,-3.7184,-3.6507,-3.6492,-3.6492,-3.6492,-3.6492,-3.6492,-3.6492,-3.6492,-3.6492,-3.6507,-3.7184,-3.7646,-3.7938,-3.8769,-3.9108,-3.9154,-3.9554,-3.9724,-3.9724,-3.9724,-3.9724,-3.9754,-4.0016,-4.0124,-4.0062,-3.9662,-3.9955,-4.0416,-3.9739,-4.0595,-4.1901,-4.1901,-4.2831,-4.3914,-4.3914,-4.4253,-4.4587,-4.4587,-4.4587,-4.4587,-4.4587,-4.4587,-4.4587,-4.4587,-4.4587,-4.4587,-4.4587,-4.4587,-4.4587,-4.4587,-4.5196,-4.5597,-4.5597,-4.6262,-4.6863,-4.7169,-4.7511,-4.7717,-4.7717,-4.7717,-4.7518,-4.7029,-4.6395,-4.5617,-4.4639,-4.4595,-4.418,-4.3251,-4.3686,-4.3828,-4.3497,-4.3497,-4.3649,-4.4005,-4.4279,-4.4546,-4.48,-4.5132,-4.5297,0.0,0.0,0.0,0.0,0.0,0.0,0.0,0.0,0.0,0.0,0.0,0.0,0.0,0.0,0.0,0.0,0.0,0.0,0.0,0.0,0.0,0.0,0.0,0.0,0.0,0.0,0.0,0.0,0.0,0.0,0.0,-3.7261,-3.6999,-3.6507,-3.643,-3.643,-3.6492,-3.6492,-3.6492,-3.6492,-3.6492,-3.6492,-3.6507,-3.7123,-3.7769,-3.8415,-3.8415,-3.8446,-3.8508,-3.8508,-3.8508,-3.8508,-3.8508,-3.8554,-3.8677,-3.9293,-3.9524,-3.9524,-3.9524,-3.9924,-4.0339,-3.9724,-4.0826,-4.252,-4.252,-4.3486,-4.4587,-4.4587,-4.4587,-4.4587,-4.4587,-4.4587,-4.4587,-4.4587,-4.4587,-4.4587,-4.4587,-4.4587,-4.4587,-4.4587,-4.4587,-4.4587,-4.4587,-4.5442,-4.6147,-4.6213,-4.7062,-4.7717,-4.7717,-4.7717,-4.7717,-4.7717,-4.7717,-4.7717,-4.7717,-4.6287,-4.5381,-4.5291,-4.4066,-4.3287,-4.3214,-4.4107,-4.425,-4.3497,-4.3497,-4.3649,-4.4005,-4.4279,-4.4546,-4.48,-4.5132,-4.5297,0.0,0.0,0.0,0.0,0.0,0.0,0.0,0.0,0.0,0.0,0.0,0.0,0.0,0.0,0.0,0.0,0.0,0.0,0.0,0.0,0.0,0.0,0.0,0.0,0.0,0.0,0.0,0.0,0.0,0.0,-3.5891,-3.5414,-3.5537,-3.6461,-3.5984,-3.5953,-3.6492,-3.6492,-3.6492,0.0,-3.6492,-3.6492,-3.6492,-3.6645,-3.7076,-3.7723,-3.7723,-3.8015,-3.8508,-3.8508,-3.8508,-3.8508,-3.8508,-3.8831,-3.9323,-3.9462,-3.9524,-3.9524,-3.9524,-3.9616,-3.9708,-3.957,-4.0826,-4.252,-4.252,-4.3486,-4.4587,-4.4587,-4.4587,-4.4587,-4.4587,-4.4587,-4.4587,-4.4587,-4.4587,-4.4587,-4.4587,-4.4587,-4.4587,-4.4587,-4.4587,-4.4587,-4.4587,-4.5442,-4.6406,-4.7214,-4.7554,-4.7717,-4.7717,-4.7717,-4.7717,-4.7717,-4.7717,-4.7717,-4.7717,-4.6812,-4.5979,-4.5345,-4.514,-4.449,-4.3251,-4.3505,-4.3611,-4.3497,-4.3497,-4.3649,-4.4005,-4.4279,-4.4546,-4.48,-4.5132,-4.5297,0.0,0.0,0.0,0.0,0.0,0.0,0.0,0.0,0.0,0.0,0.0,0.0,0.0,0.0,0.0,0.0,0.0,0.0,0.0,0.0,0.0,0.0,0.0,0.0,0.0,0.0,0.0,0.0,0.0,-3.4629,-3.4983,-3.466,-3.4799,-3.5507,-3.5183,-3.5322,-3.5999,-3.6014,-3.6168,-3.6492,-3.6492,-3.6492,-3.6492,-3.6492,-3.6676,-3.7015,-3.7015,-3.7215,-3.7538,-3.7538,-3.7538,-3.7538,-3.784,-3.7994,-3.8172,-3.8741,-3.9001,-3.8985,-3.8662,-3.9185,-3.9961,-3.9598,-4.0865,-4.2583,-4.2892,-4.3722,-4.4587,-4.4587,-4.4587,-4.4587,-4.4587,-4.4587,-4.4587,-4.4587,-4.4587,-4.4587,-4.4587,-4.4587,-4.4587,-4.4587,-4.4587,-4.4587,-4.4587,-4.5442,-4.6454,-4.7554,-4.7717,-4.7717,-4.7717,-4.7717,-4.7717,-4.7717,-4.7717,-4.7554,-4.7174,-4.6395,-4.5743,-4.5327,-4.4683,-4.4142,-4.3798,-4.347,-4.3358,-4.3497,-4.3497,-4.3582,-4.3749,-4.406,-4.4279,-4.443,-4.4862,-4.5045,0.0,0.0,0.0,0.0,0.0,0.0,0.0,0.0,0.0,0.0,0.0,0.0,0.0,0.0,0.0,0.0,0.0,0.0,0.0,0.0,0.0,0.0,0.0,0.0,0.0,0.0,0.0,0.0,0.0,-3.4168,-3.4275,-3.4183,-3.4229,-3.446,-3.4352,-3.4614,-3.5306,-3.5306,-3.5584,-3.6138,-3.6261,-3.6322,-3.6322,-3.6445,-3.6492,-3.6492,-3.66,-3.6677,-3.6662,-3.6769,-3.6831,-3.6892,-3.7342,-3.7301,-3.7141,-3.8178,-3.8498,-3.8441,-3.812,-3.8939,-4.0086,-3.9724,-4.0922,-4.259,-4.3135,-4.393,-4.4587,-4.4587,-4.4587,-4.4587,-4.4587,-4.4587,-4.4587,-4.4587,-4.4587,-4.4587,-4.4587,-4.4587,-4.4587,-4.4587,-4.4682,-4.4776,-4.4814,-4.5631,-4.6566,-4.7554,-4.7717,-4.7717,-4.7717,-4.7717,-4.7717,-4.7717,-4.7717,-4.7446,-4.6757,-4.5979,-4.5454,-4.5309,-4.3953,-4.3467,-4.4144,-4.3579,-4.3322,-4.3497,-4.3497,-4.3497,-4.3497,-4.3846,-4.4005,-4.3986,-4.4511,-4.4751,0.0,0.0,0.0,0.0,0.0,0.0,0.0,0.0,0.0,0.0,0.0,0.0,0.0,0.0,0.0,0.0,0.0,0.0,0.0,0.0,0.0,0.0,0.0,0.0,0.0,0.0,0.0,0.0,-3.2675,-3.2921,-3.3521,-3.2998,-3.3229,-3.4429,-3.3875,-3.3891,-3.4599,-3.4614,-3.466,-3.4752,-3.5337,-3.5614,-3.563,-3.623,-3.6492,-3.6554,-3.7074,-3.7298,-3.7298,-3.7838,-3.8067,-3.8067,-3.8181,-3.8495,-3.8926,-3.914,-3.8838,-3.8542,-3.9553,-3.9415,-3.8872,-3.985,-4.1189,-4.2409,-4.2526,-4.3487,-4.4587,-4.4587,-4.4587,-4.4587,-4.4587,-4.4587,-4.4587,-4.4587,-4.4587,-4.4587,-4.4587,-4.4587,-4.4587,-4.4587,-4.4944,-4.5372,-4.5817,-4.6406,-4.6999,-4.7615,-4.7717,-4.7717,-4.7717,-4.7717,-4.7717,-4.7717,-4.7717,-4.7663,-4.7554,-4.6812,-4.6051,-4.5345,-4.4536,-4.3887,-4.3397,-4.3359,-4.3411,-4.3497,-4.3497,-4.3497,-4.3497,-4.3846,-4.4005,-4.4005,-4.4318,-4.4572,0.0,0.0,0.0,0.0,0.0,0.0,0.0,0.0,0.0,0.0,0.0,0.0,0.0,0.0,0.0,0.0,0.0,0.0,0.0,0.0,0.0,0.0,0.0,0.0,0.0,0.0,0.0,0.0,-3.2398,-3.2521,-3.2813,-3.2552,-3.2675,-3.329,-3.2998,-3.3167,-3.3875,-3.3875,-3.4075,-3.4491,-3.5153,-3.5476,-3.5507,-3.6184,-3.6662,-3.7013,-3.7298,-3.7578,-3.7895,-3.8181,-3.8278,-3.8334,-3.8684,-3.877,-3.8805,-3.9103,-3.9121,-3.8937,-3.9134,-3.9307,-3.9574,-4.0123,-4.1,-4.1823,-4.225,-4.2778,-4.3386,-4.3809,-4.3927,-4.4028,-4.4468,-4.4587,-4.4587,-4.4587,-4.4587,-4.4587,-4.4587,-4.4587,-4.4587,-4.4587,-4.4998,-4.5459,-4.6,-4.6548,-4.7062,-4.7615,-4.7717,-4.7717,-4.7717,-4.7717,-4.7717,-4.7717,-4.7717,-4.7518,-4.7083,-4.6287,-4.5689,-4.5327,-4.417,-4.3631,-4.3871,-4.3506,-4.3358,-4.3497,-4.3497,-4.3497,-4.3497,-4.3649,-4.3716,-4.3716,-4.403,-4.4318,0.0,0.0,0.0,0.0,0.0,0.0,0.0,0.0,0.0,0.0,0.0,0.0,0.0,0.0,0.0,0.0,0.0,0.0,0.0,0.0,0.0,0.0,0.0,0.0,0.0,0.0,0.0,0.0,-3.2398,-3.2398,-3.2398,-3.2398,-3.2398,-3.2398,-3.2398,-3.2628,-3.3136,-3.3152,-3.3413,-3.3952,-3.4629,-3.4953,-3.4983,-3.566,-3.6411,-3.7148,-3.7499,-3.7953,-3.8518,-3.8668,-3.8794,-3.8794,-3.9242,-3.9135,-3.8794,-3.9242,-3.9358,-3.9235,-3.8864,-3.9315,-4.0074,-4.0221,-4.07,-4.1371,-4.1893,-4.2151,-4.2405,-4.298,-4.3267,-4.3555,-4.413,-4.4434,-4.4587,-4.4587,-4.4587,-4.4587,-4.4587,-4.4587,-4.4587,-4.4587,-4.5089,-4.5597,-4.6,-4.666,-4.7258,-4.7657,-4.7717,-4.7717,-4.7717,-4.7717,-4.7717,-4.7717,-4.7717,-4.7373,-4.6576,-4.5943,-4.5436,-4.5077,-4.3917,-4.3541,-4.4145,-4.3579,-4.3322,-4.3497,-4.3497,-4.3497,-4.3497,-4.3497,-4.3497,-4.3532,-4.3749,-4.403,0.0,0.0,0.0,0.0,0.0,0.0,0.0,0.0,0.0,0.0,0.0,0.0,0.0,0.0,0.0,0.0,0.0,0.0,0.0,0.0,0.0,0.0,0.0,0.0,0.0,0.0,0.0,0.0,-3.2398,-3.2398,-3.2398,-3.2398,-3.2398,-3.2398,-3.2398,-3.2413,-3.2444,-3.2444,-3.2459,-3.2505,-3.3183,-3.3506,-3.3537,-3.426,-3.526,-3.6527,-3.7721,-3.8574,-3.9206,-3.9747,-4.002,-4.002,-4.002,-4.002,-4.002,-4.002,-3.9713,-3.9309,-3.9816,-3.9694,-3.9358,-3.9918,-4.0594,-4.1202,-4.1271,-4.1745,-4.2303,-4.2337,-4.2861,-4.342,-4.347,-4.4028,-4.4587,-4.4587,-4.4587,-4.4587,-4.4587,-4.4587,-4.4587,-4.4587,-4.539,-4.6067,-4.6116,-4.6954,-4.7657,-4.7717,-4.7717,-4.7717,-4.7717,-4.7717,-4.7717,-4.7717,-4.7717,-4.7373,-4.6576,-4.6468,-4.5838,-4.4431,-4.4267,-4.4016,-4.3486,-4.3412,-4.3411,-4.3497,-4.3497,-4.3497,-4.3497,-4.3497,-4.3497,-4.3497,-4.3532,-4.3716,0.0,0.0,0.0,0.0,0.0,0.0,0.0,0.0,0.0,0.0,0.0,0.0,0.0,0.0,0.0,0.0,0.0,0.0,0.0,0.0,0.0,0.0,0.0,0.0,0.0,0.0,0.0,0.0,0.0,-3.2398,-3.2398,-3.2398,-3.2398,-3.2398,-3.2398,-3.2398,-3.2398,-3.1967,-3.1967,-3.2398,-3.2628,-3.2982,-3.3429,-3.4152,-3.5149,-3.6339,-3.7252,-3.8259,-3.9259,-3.985,-4.007,-4.007,-4.007,-4.007,-4.007,-4.007,-3.9969,-3.9799,-4.002,-3.9969,-3.9799,-4.002,-4.0257,-4.0476,-4.0476,-4.0663,-4.0967,-4.1457,-4.1796,-4.2219,-4.3166,-4.3623,-4.3961,-4.4468,-4.4587,-4.4587,-4.4587,-4.4587,-4.4665,-4.4998,-4.5614,-4.6213,-4.6548,-4.7214,-4.7717,-4.7717,-4.7717,-4.7717,-4.7717,-4.7717,-4.7518,-4.6993,-4.6939,-4.6613,-4.5798,-4.5352,-4.4847,-4.4322,-4.387,-4.3524,-4.3412,-4.3394,-4.3446,-4.3497,-4.3497,-4.3497,-4.3497,-4.3497,-4.3497,-4.3497,-4.3497,-4.3682,0.0,0.0,0.0,0.0,0.0,0.0,0.0,0.0,0.0,0.0,0.0,0.0,0.0,0.0,0.0,0.0,0.0,0.0,0.0,0.0,0.0,0.0,0.0,0.0,0.0,0.0,0.0,0.0,0.0,0.0,-3.1736,-3.1736,-3.1736,-3.1736,-3.1736,-3.1736,-3.1736,-3.1289,-3.1289,-3.1736,-3.1951,-3.229,-3.2752,-3.346,-3.4429,-3.5567,-3.6249,-3.7531,-3.9189,-3.9817,-4.007,-4.007,-4.007,-4.007,-4.007,-4.007,-4.007,-4.007,-4.007,-4.007,-4.007,-4.007,-4.007,-4.007,-4.007,-4.007,-4.0189,-4.0679,-4.1018,-4.1441,-4.2422,-4.3047,-4.3538,-4.4062,-4.4384,-4.4587,-4.4587,-4.4587,-4.472,-4.5214,-4.5749,-4.6262,-4.6799,-4.7345,-4.7717,-4.7717,-4.7717,-4.7717,-4.7717,-4.7717,-4.75,-4.6975,-4.6667,-4.6287,-4.5743,-4.4847,-4.4433,-4.4725,-4.3816,-4.345,-4.3814,-4.3593,-4.3428,-4.3497,-4.3497,-4.3497,-4.3497,-4.3497,-4.3497,-4.3497,-4.3497,-4.3682,0.0,0.0,0.0,0.0,0.0,0.0,0.0,0.0,0.0,0.0,0.0,0.0,0.0,0.0,0.0,0.0,0.0,0.0,0.0,0.0,0.0,0.0,0.0,0.0,0.0,0.0,0.0,0.0,-3.0428,-3.0428,-3.0428,-3.0428,-3.0428,-3.0428,-3.0428,-3.0428,-3.0428,-3.0397,-3.0397,-3.0428,-3.1059,-3.1366,-3.1413,-3.209,-3.3053,-3.4248,-3.4848,-3.657,-3.9005,-3.9749,-4.0054,-4.007,-4.007,-4.007,-4.007,-4.007,-4.007,-4.007,-4.007,-4.007,-4.007,-4.007,-4.007,-4.007,-4.007,-4.007,-4.007,-4.007,-4.0612,-4.117,-4.1204,-4.232,-4.3453,-4.342,-4.4012,-4.457,-4.4626,-4.4626,-4.4759,-4.5214,-4.5767,-4.631,-4.6817,-4.7363,-4.7717,-4.7717,-4.7717,-4.7717,-4.7717,-4.7717,-4.7699,-4.7681,-4.6975,-4.6486,-4.6432,-4.5137,-4.4671,-4.5475,-4.42,-4.3759,-4.4635,-4.3901,-4.3497,-4.3497,-4.3497,-4.3497,-4.3497,-4.3497,-4.3497,-4.3497,-4.3497,-4.3682,-3.0022,0.0,0.0,0.0,0.0,0.0,0.0,0.0,0.0,0.0,0.0,0.0,0.0,0.0,0.0,0.0,0.0,0.0,0.0,0.0,0.0,0.0,0.0,0.0,0.0,0.0,0.0,0.0,-3.0927,-3.074,-3.0428,-3.0428,-3.0428,-3.0428,-3.0428,-3.0428,-3.0428,-2.9935,-2.9935,-3.0428,-3.0612,-3.0936,-3.1413,-3.209,-3.3005,-3.4089,-3.4826,-3.6323,-3.8261,-3.8988,-3.9597,-4.007,-4.007,-4.007,-4.007,-4.007,-4.007,-4.007,-4.007,-4.007,-4.007,-4.007,-4.007,-4.007,-4.007,-4.007,-4.007,-4.007,-4.0223,-4.051,-4.1068,-4.2726,-4.4113,-4.3555,-4.4012,-4.4665,-4.5035,-4.5125,-4.5267,-4.5767,-4.631,-4.6863,-4.7407,-4.7615,-4.7717,-4.7717,-4.7717,-4.7717,-4.7717,-4.7717,-4.7482,-4.6902,-4.6731,-4.6172,-4.501,-4.4672,-4.4364,-4.4035,-4.3684,-4.3573,-4.3809,-4.3608,-4.3497,-4.3497,-4.3497,-4.3497,-4.3497,-4.3497,-4.3497,-4.3497,-4.3497,-4.3548,0.0,0.0,0.0,0.0,0.0,0.0,-2.9237,-2.9218,0.0,0.0,0.0,0.0,0.0,0.0,0.0,0.0,0.0,0.0,0.0,0.0,0.0,0.0,0.0,0.0,0.0,-2.98,-2.9545,-2.9951,-3.0146,-3.0162,-2.9884,-2.9666,-2.9581,-2.9581,-2.9581,-2.9581,-2.9581,-2.9196,-2.9196,-2.9581,-2.9874,-3.0351,-3.0997,-3.1927,-3.2945,-3.4052,-3.4741,-3.5958,-3.7499,-3.8244,-3.9157,-4.007,-4.007,-4.007,-4.007,-4.007,-4.007,-4.007,-4.007,-4.007,-4.007,-4.007,-4.007,-4.007,-4.007,-4.007,-4.007,-4.007,-4.007,-4.0257,-4.1018,-4.2405,-4.3644,-4.369,-4.4343,-4.5052,-4.5511,-4.58,-4.6049,-4.6358,-4.6707,-4.7062,-4.7615,-4.7717,-4.7717,-4.7717,-4.7717,-4.7717,-4.7717,-4.7717,-4.7536,-4.7065,-4.6513,-4.5957,-4.534,-4.4564,-4.4181,-4.4382,-4.3848,-4.3644,-4.3993,-4.3663,-4.3497,-4.3497,-4.3497,-4.3497,-4.3497,-4.3497,-4.3497,-4.3497,-4.3497,-4.3497,0.0,0.0,0.0,0.0,0.0,0.0,-2.9098,-2.9492,-2.9614,0.0,0.0,0.0,0.0,0.0,0.0,0.0,0.0,0.0,0.0,0.0,0.0,0.0,0.0,0.0,-2.8716,-2.8668,-2.8621,-2.8589,-2.8826,-2.9044,-2.9044,-2.8621,-2.8411,-2.8411,-2.8411,-2.8411,-2.8411,-2.8411,-2.8411,-2.8411,-2.9089,-2.9766,-3.0443,-3.1648,-3.2873,-3.4036,-3.4577,-3.5599,-3.6958,-3.7635,-3.8717,-3.9969,-4.0054,-4.007,-4.007,-4.007,-4.007,-4.007,-4.007,-4.007,-4.007,-4.007,-4.007,-4.007,-4.007,-4.007,-4.007,-4.007,-4.0138,-4.0341,-4.0933,-4.173,-4.2634,-4.37,-4.463,-4.5424,-4.5926,-4.6495,-4.6908,-4.6972,-4.6999,-4.7151,-4.7615,-4.7717,-4.7717,-4.7717,-4.7717,-4.7717,-4.7717,-4.7717,-4.7717,-4.7717,-4.6481,-4.5906,-4.6561,-4.471,-4.4125,-4.548,-4.427,-4.3809,-4.4544,-4.3883,-4.3497,-4.3497,-4.3497,-4.3497,-4.3497,-4.3497,-4.3497,-4.3497,-4.3497,-4.3497,0.0,0.0,0.0,0.0,0.0,0.0,-3.0875,-3.083,-3.0678,0.0,0.0,0.0,0.0,0.0,0.0,0.0,0.0,0.0,0.0,0.0,0.0,0.0,0.0,0.0,-3.0634,-3.0309,-2.9908,-2.9544,-2.8936,-2.8541,-2.8541,-2.8444,-2.8411,-2.8411,-2.8411,-2.8411,-2.8411,-2.8411,-2.8411,-2.8411,-2.9089,-2.9766,-3.0443,-3.1648,-3.2873,-3.4036,-3.4577,-3.59,-3.7702,-3.7838,-3.8413,-3.9259,-3.9851,-4.007,-4.007,-4.007,-4.007,-4.007,-4.007,-4.007,-4.007,-4.007,-4.007,-4.007,-4.007,-4.007,-4.007,-4.007,-4.051,-4.0882,-4.0409,-4.1563,-4.279,-4.2425,-4.3687,-4.512,-4.5655,-4.6354,-4.7017,-4.7468,-4.7554,-4.7572,-4.7657,-4.7717,-4.7717,-4.7717,-4.7717,-4.7717,-4.7717,-4.7717,-4.7759,-4.7861,-4.7052,-4.6387,-4.599,-4.5022,-4.4288,-4.3958,-4.3663,-4.3552,-4.3718,-4.3571,-4.3497,-4.3497,-4.3497,-4.3497,-4.3497,-4.3497,-4.3497,-4.3497,-4.3497,-4.3497,0.0,0.0,0.0,-3.2933,0.0,0.0,0.0,-3.092,-3.0446,0.0,0.0,0.0,0.0,0.0,0.0,0.0,0.0,0.0,0.0,0.0,0.0,0.0,0.0,0.0,-2.9615,-2.943,-2.9302,-2.9318,-2.9173,-2.9182,-2.9438,-2.8997,-2.8748,-2.8748,-2.8541,-2.8411,-2.8411,-2.8411,-2.8411,-2.8411,-2.875,-2.9407,-3.0292,-3.1547,-3.2724,-3.3907,-3.4808,-3.5799,-3.6789,-3.7195,-3.7787,-3.8565,-3.9648,-4.007,-4.007,-4.007,-4.007,-4.007,-4.007,-4.007,-4.007,-4.007,-4.007,-4.007,-4.007,-4.007,-4.007,-4.007,-4.0358,-4.068,-4.0948,-4.1727,-4.2573,-4.308,-4.4283,-4.5443,-4.5968,-4.6421,-4.6877,-4.7585,-4.7391,-4.7228,-4.7645,-4.7717,-4.7717,-4.7717,-4.7759,-4.7819,-4.7819,-4.7824,-4.7702,-4.7401,-4.6715,-4.6027,-4.526,-4.4509,-4.392,-4.3516,-4.3497,-4.3497,-4.3497,-4.3497,-4.3497,-4.3497,-4.3497,-4.3497,-4.3497,-4.3497,-4.3497,-4.3497,-4.3497,-4.3497,0.0,0.0,0.0,0.0,0.0,-3.251,0.0,0.0,0.0,0.0,0.0,0.0,0.0,0.0,0.0,0.0,0.0,0.0,0.0,0.0,0.0,0.0,0.0,0.0,0.0,-2.8163,-2.8276,-2.8672,-2.9237,-2.9756,-3.0137,-2.9581,-2.9212,-2.9212,-2.8889,-2.8668,-2.8668,-2.8573,-2.8525,-2.8525,-2.8444,-2.9088,-3.0338,-3.1452,-3.2698,-3.3955,-3.511,-3.5707,-3.5893,-3.6518,-3.7313,-3.8227,-3.9411,-3.9952,-4.007,-4.007,-4.007,-4.007,-4.007,-4.007,-4.007,-4.007,-4.007,-4.007,-4.007,-4.007,-4.0121,-4.0221,-4.0204,-4.0489,-4.1543,-4.1873,-4.2294,-4.3713,-4.4739,-4.5502,-4.5933,-4.6287,-4.6649,-4.7156,-4.6848,-4.6757,-4.7572,-4.7717,-4.7717,-4.7717,-4.7819,-4.7902,-4.7943,-4.7842,-4.7518,-4.6898,-4.6101,-4.5297,-4.4656,-4.394,-4.3497,-4.3497,-4.3497,-4.3497,-4.3497,-4.3497,-4.3497,-4.3497,-4.3497,-4.3497,-4.3497,-4.3497,-4.3497,-4.3497,-4.3497,-4.3497,0.0,0.0,0.0,0.0,-3.4303,0.0,0.0,0.0,0.0,0.0,0.0,0.0,0.0,0.0,0.0,0.0,0.0,0.0,0.0,0.0,0.0,0.0,0.0,0.0,0.0,-2.8511,-2.8316,-2.8355,-2.8673,-2.8838,-2.8881,-2.941,-2.9705,-2.9705,-2.9661,-2.9633,-2.9633,-2.9227,-2.9044,-2.8997,-2.8621,-2.9337,-3.1098,-3.1741,-3.2976,-3.47,-3.5328,-3.6011,-3.6654,-3.6738,-3.7601,-3.8886,-3.9056,-3.9512,-4.007,-4.007,-4.007,-4.007,-4.007,-4.007,-4.007,-4.007,-4.007,-4.007,-4.007,-4.007,-4.0171,-4.0611,-4.0707,-4.0866,-4.1426,-4.1841,-4.2234,-4.2406,-4.3378,-4.431,-4.4367,-4.549,-4.6323,-4.5689,-4.6069,-4.6757,-4.7572,-4.7717,-4.7759,-4.7861,-4.7902,-4.7925,-4.797,-4.739,-4.6955,-4.696,-4.5644,-4.4729,-4.4691,-4.3956,-4.3497,-4.3497,-4.3497,-4.3497,-4.3497,-4.3497,-4.3497,-4.3497,-4.3497,-4.3497,-4.3497,-4.3497,-4.3497,-4.3497,-4.3497,-4.3497,0.0,0.0,0.0,0.0,0.0,0.0,-3.4117,0.0,-3.3186,0.0,0.0,0.0,0.0,0.0,0.0,0.0,-2.9347,0.0,0.0,0.0,0.0,0.0,0.0,0.0,0.0,0.0,0.0,0.0,-2.881,-2.9497,-2.9497,-2.9535,-2.9756,-3.0208,-2.9924,-2.9793,-2.9793,-2.9617,-2.9483,-2.9483,-2.9319,-2.9758,-3.0819,-3.1466,-3.2597,-3.4013,-3.4688,-3.5402,-3.6096,-3.6096,-3.6738,-3.7702,-3.7702,-3.8684,-4.007,-4.007,-4.007,-4.007,-4.007,-4.007,-4.007,-4.007,-4.007,-4.007,-4.007,-4.0303,-4.0531,-4.0754,-4.1019,-4.1321,-4.1803,-4.2074,-4.2297,-4.2537,-4.3364,-4.4095,-4.4095,-4.4621,-4.5146,-4.5273,-4.52,-4.5403,-4.6277,-4.6803,-4.7316,-4.7829,-4.8024,-4.7922,-4.7469,-4.7142,-4.6652,-4.5773,-4.5059,-4.449,-4.4048,-4.3681,-4.3497,-4.3497,-4.3497,-4.3497,-4.3497,-4.3497,-4.3497,-4.3497,-4.3497,-4.3497,-4.3497,-4.3497,-4.3497,-4.3497,-4.3497,-4.3497,-3.5667,0.0,0.0,0.0,0.0,0.0,0.0,0.0,0.0,0.0,0.0,0.0,0.0,0.0,0.0,0.0,0.0,0.0,0.0,0.0,0.0,0.0,0.0,0.0,0.0,0.0,0.0,-2.7781,-2.9198,-3.0108,-3.0108,-2.9951,-3.0166,-3.0683,-3.0368,-3.0182,-3.0182,-3.0054,-3.0011,-3.0011,-2.9837,-3.0152,-3.085,-3.158,-3.2543,-3.3744,-3.4489,-3.5115,-3.5622,-3.5622,-3.6079,-3.6806,-3.7009,-3.8193,-3.9783,-3.9783,-3.9918,-4.007,-4.007,-4.007,-4.007,-4.007,-4.0171,-4.0303,-4.0303,-4.0611,-4.1019,-4.1157,-4.141,-4.1803,-4.2279,-4.2378,-4.2458,-4.2806,-4.3335,-4.3769,-4.3769,-4.3932,-4.4204,-4.4624,-4.4388,-4.4372,-4.5087,-4.587,-4.6648,-4.7529,-4.7576,-4.7401,-4.7073,-4.6671,-4.6012,-4.4837,-4.4507,-4.4121,-4.3534,-4.3497,-4.3497,-4.3497,-4.3497,-4.3497,-4.3497,-4.3497,-4.3497,-4.3497,-4.3497,-4.3497,-4.3497,-4.3497,-4.3497,-4.3497,-4.3497,-4.3497,0.0,0.0,0.0,-3.5773,0.0,0.0,0.0,0.0,-3.5334,0.0,0.0,0.0,0.0,0.0,0.0,-3.0311,0.0,0.0,0.0,0.0,0.0,0.0,0.0,0.0,0.0,0.0,0.0,-2.8941,-2.9668,-3.0108,-3.0108,-3.0768,-3.1173,-3.119,-3.1151,-3.1151,-3.1151,-3.0699,-3.0477,-3.0477,-3.0011,-3.043,-3.1613,-3.2326,-3.3322,-3.4506,-3.525,-3.5605,-3.5622,-3.5622,-3.6079,-3.6857,-3.7584,-3.8345,-3.9039,-3.9039,-3.9478,-4.007,-4.007,-4.007,-4.007,-4.007,-4.0402,-4.0802,-4.0802,-4.1094,-4.1569,-4.2032,-4.2157,-4.2297,-4.2768,-4.2882,-4.2882,-4.29,-4.29,-4.2936,-4.2936,-4.3534,-4.3917,-4.3285,-4.3777,-4.4324,-4.4417,-4.5071,-4.589,-4.6887,-4.6376,-4.6176,-4.6984,-4.5755,-4.4764,-4.4727,-4.3993,-4.3516,-4.3497,-4.3497,-4.3497,-4.3497,-4.3497,-4.3497,-4.3497,-4.3497,-4.3497,-4.3497,-4.3497,-4.3497,-4.3497,-4.3497,-4.3497,-4.3497,-4.3497,-4.3497,0.0,0.0,-3.5905,-3.5817,0.0,0.0,0.0,0.0,0.0,0.0,0.0,0.0,0.0,0.0,0.0,0.0,0.0,0.0,0.0,0.0,0.0,0.0,0.0,0.0,0.0,0.0,0.0,-2.9011,-2.9211,-2.9583,-3.0074,-3.0345,-3.07,-3.1173,-3.119,-3.119,-3.119,-3.1055,-3.0958,-3.0958,-3.0797,-3.1182,-3.2068,-3.2303,-3.3178,-3.4506,-3.4759,-3.5165,-3.5622,-3.5622,-3.6079,-3.6806,-3.706,-3.7905,-3.9056,-3.9529,-3.9868,-4.007,-4.007,-4.007,-4.0171,-4.0434,-4.0659,-4.0849,-4.1185,-4.1587,-4.199,-4.2157,-4.2418,-4.2711,-4.2844,-4.2882,-4.2882,-4.2882,-4.2882,-4.2882,-4.2882,-4.3193,-4.3376,-4.3159,-4.3341,-4.3634,-4.3707,-4.3944,-4.4583,-4.5992,-4.603,-4.5773,-4.5553,-4.5057,-4.4507,-4.3956,-4.3644,-4.3497,-4.3497,-4.3497,-4.3497,-4.3497,-4.3497,-4.3497,-4.3497,-4.3497,-4.3497,-4.3497,-4.3497,-4.3497,-4.3497,-4.3497,-4.3497,-4.3497,-4.3497,-4.3497,-3.6062,-3.6062,0.0,-3.5949,-3.5861,0.0,-3.5756,0.0,0.0,0.0,0.0,0.0,0.0,0.0,0.0,0.0,-3.1579,0.0,0.0,-3.119,-3.119,0.0,0.0,0.0,0.0,0.0,-2.977,-2.977,-2.977,-2.9973,0.0,0.0,-3.0717,-3.1173,-3.119,-3.119,-3.119,-3.119,-3.119,-3.119,-3.119,-3.1579,-3.229,-3.256,-3.3339,-3.4506,-3.4776,-3.5165,-3.5639,-3.591,-3.6332,-3.6823,-3.7364,-3.8142,-3.9056,-3.9512,-3.9851,-4.007,-4.007,-4.0221,-4.0402,-4.0707,-4.1019,-4.1366,-4.1674,-4.2074,-4.2512,-4.2799,-4.2889,-4.2955,-4.3244,-4.3099,-4.2882,-4.2882,-4.2882,-4.2882,-4.2882,-4.3012,-4.3104,-4.3123,-4.3233,-4.3305,-4.3411,-4.3446,-4.3886,-4.5187,-4.5205,-4.4966,-4.4745,-4.4452,-4.4066,-4.3552,-4.3497,-4.3497,-4.3497,-4.3497,-4.3497,-4.3497,-4.3497,-4.3497,-4.3497,-4.3497,-4.3754,-4.4342,-4.3773,-4.3773,-4.4342,-4.3773,-4.3497,-4.3497,-4.3497,-4.3497]}]]